GFSMW_sfc_dewp_003.txt.gz
Dewpoint
25 29 33 35 34 36 34 32 33 34 32 31 31 32 34 35 35 34 35 37 34 36 38 34 35 37 36 38 40 38 38 35 35 37 39 37 44 52 57 59 58 58 57
26 29 32 35 37 35 35 32 32 33 33 30 31 32 33 31 33 34 37 38 38 37 36 36 35 36 35 39 39 39 36 36 37 33 33 33 36 41 48 53 57 58 57
25 28 31 34 37 38 37 34 31 32 33 34 29 31 33 33 30 31 33 37 40 39 39 38 37 38 38 36 39 38 37 33 37 40 32 29 31 37 34 44 48 55 58
27 27 29 32 36 38 39 37 35 32 32 34 32 35 29 27 29 31 29 29 34 37 38 38 37 38 38 39 40 35 40 40 35 37 33 40 35 30 31 33 35 47 48
28 29 30 31 32 37 39 40 37 35 33 33 37 36 36 35 31 32 34 35 36 36 35 36 37 38 37 39 42 43 43 39 39 37 36 38 36 37 34 30 31 34 43
30 30 31 31 32 37 40 41 38 35 34 34 34 39 39 37 34 36 35 37 36 36 35 31 35 36 36 36 39 42 41 41 40 39 38 37 35 32 33 32 33 31 35
31 32 31 31 32 33 36 38 38 36 35 35 36 39 39 38 37 34 33 31 30 29 31 33 36 32 31 31 33 36 37 37 36 38 36 35 34 34 33 32 31 30 30
33 33 33 34 33 34 34 35 35 34 34 34 35 36 36 35 34 31 30 29 28 28 29 30 29 29 29 29 32 32 34 35 35 37 36 33 34 34 33 31 31 30 30
33 34 35 35 35 35 36 38 36 35 34 34 35 35 35 34 31 30 30 29 28 25 27 28 29 28 29 28 30 32 33 35 36 38 39 36 35 37 37 37 34 31 28
34 34 34 36 37 37 37 40 37 35 34 32 33 33 32 30 29 30 29 28 28 28 27 27 26 26 27 28 29 31 31 34 34 33 35 35 34 34 36 35 36 34 31
34 34 34 35 37 38 37 36 35 34 34 30 32 32 30 28 27 26 26 27 28 26 26 25 25 26 26 27 28 29 30 30 31 33 33 34 34 33 33 35 36 35 33
34 34 35 37 37 37 34 32 33 32 29 29 30 29 28 26 26 26 26 28 27 27 26 26 25 24 24 24 24 25 25 26 27 29 30 31 26 32 33 33 35 35 34
34 34 34 37 37 35 32 30 30 30 27 26 27 27 26 26 27 26 27 27 26 25 25 24 24 23 23 23 24 23 25 26 27 28 29 30 30 31 31 32 32 34 31
33 33 36 36 38 34 31 29 29 28 26 25 25 28 28 27 26 27 27 27 26 25 24 23 23 23 22 21 22 21 24 26 26 29 30 28 29 30 31 31 33 31 32
34 34 36 38 40 33 29 28 27 26 26 27 28 31 29 28 27 27 27 26 26 24 22 21 22 22 21 18 22 23 24 26 26 27 26 28 30 30 30 29 30 32 33
34 36 38 40 39 30 27 26 25 27 30 31 31 28 27 26 26 26 26 25 22 20 21 21 21 22 17 25 29 28 25 25 25 27 26 26 28 28 30 30 30 30 31
37 37 40 40 37 30 26 24 28 33 37 30 28 27 25 25 25 23 22 21 21 21 21 21 21 21 23 27 28 28 26 27 27 27 28 27 24 28 28 29 30 30 30
37 40 40 40 34 31 29 32 37 33 31 30 26 23 23 23 24 23 19 19 20 20 20 21 22 23 23 27 28 28 28 28 28 28 28 28 29 29 29 30 31 30 31
41 39 39 38 35 36 38 40 38 31 27 23 21 21 22 23 21 19 19 19 19 20 20 21 24 25 26 27 28 27 30 30 29 28 28 29 30 30 30 31 31 31 32
39 37 38 37 39 39 39 35 29 24 23 22 21 22 22 20 18 19 19 19 19 19 24 24 25 26 28 28 29 30 31 31 30 30 30 29 28 30 31 31 30 30 30
37 38 37 37 36 36 32 25 25 24 20 21 22 21 19 18 19 18 18 17 20 25 30 30 29 28 30 31 31 32 32 31 29 28 30 32 31 32 31 30 31 31 30
37 37 38 35 33 32 30 25 20 18 20 21 21 20 20 19 16 17 16 18 21 27 28 28 28 29 31 29 29 29 31 30 30 29 29 30 32 32 30 29 29 32 32
37 38 35 34 33 27 22 19 21 19 21 21 20 21 21 19 16 16 19 20 19 24 26 26 26 27 28 29 27 29 29 31 30 31 30 29 28 28 28 28 28 28 32
38 38 35 30 26 23 20 19 21 22 20 21 21 22 21 17 16 17 17 19 22 23 22 24 25 26 25 26 28 29 30 28 29 29 29 28 29 30 31 32 33 31 32
38 35 31 28 23 21 20 20 20 22 21 22 22 22 20 19 18 19 19 20 24 25 24 24 26 26 25 26 29 29 28 29 28 28 31 29 28 28 29 33 33 32 33
36 33 27 23 20 19 20 21 22 21 23 23 23 24 20 20 20 19 19 23 25 25 24 26 27 27 26 29 30 30 31 27 28 29 27 27 27 26 27 30 31 31 30

GFSMW_sfc_dewp_006.txt.gz
Dewpoint
27 34 38 41 40 43 41 40 39 42 40 41 41 41 43 43 44 43 43 44 43 43 43 43 41 43 42 42 41 42 41 41 42 40 37 38 37 39 41 53 57 58 58
28 32 37 41 42 41 41 40 39 40 40 39 40 41 42 41 41 42 44 43 45 43 41 43 40 41 41 41 43 42 40 41 41 40 37 34 33 38 38 40 50 53 56
29 31 37 41 44 43 44 41 39 39 40 40 38 40 41 41 39 39 40 43 44 45 44 43 43 42 42 42 42 41 40 39 40 39 38 34 32 34 34 37 36 41 48
31 32 37 38 42 43 46 44 42 39 39 43 37 40 36 33 34 37 37 37 44 44 43 43 43 43 42 41 42 40 43 41 38 40 38 39 37 34 32 35 36 36 36
34 34 34 36 41 42 46 45 44 42 41 42 42 39 39 38 39 40 40 40 40 40 39 40 42 42 42 42 41 41 41 41 40 39 39 38 37 37 35 32 32 35 35
35 34 36 37 37 43 44 46 45 41 42 42 43 43 40 41 40 40 39 39 39 40 41 38 39 39 39 38 38 38 37 38 38 37 36 35 34 33 32 31 31 31 32
36 37 36 36 39 41 43 45 43 41 42 44 44 42 43 42 41 41 40 38 36 35 36 36 36 36 35 36 35 35 35 35 34 33 32 32 32 33 31 29 27 27 28
38 36 38 40 40 42 42 42 39 39 40 41 42 43 43 41 41 40 38 36 34 34 34 33 34 34 34 35 35 34 33 34 34 32 33 33 32 32 30 29 29 28 28
37 37 38 41 41 42 42 43 42 40 40 42 44 43 42 41 39 38 37 35 35 30 34 34 34 34 35 34 34 33 32 32 33 33 34 33 33 35 34 32 31 29 28
37 37 38 39 40 41 42 44 45 40 38 39 41 38 38 38 36 36 34 33 33 32 33 33 33 32 32 32 32 31 31 32 32 31 32 32 32 32 32 31 32 33 32
37 37 38 39 40 41 40 40 38 37 37 37 38 38 36 36 34 32 32 31 33 32 32 31 30 29 28 29 29 29 29 29 28 29 29 29 30 30 30 31 31 31 31
35 35 36 37 39 40 41 41 38 36 36 36 36 35 34 33 32 32 32 33 32 32 32 30 28 27 27 27 27 27 26 26 26 26 27 27 25 27 29 29 29 30 30
34 36 36 38 39 40 41 42 35 35 34 31 33 32 32 32 31 33 33 32 32 31 29 28 28 27 27 26 26 25 25 25 25 25 26 26 27 27 28 28 29 29 28
35 35 36 38 39 41 41 38 32 34 32 29 29 32 30 32 33 33 32 32 31 30 29 28 27 27 25 23 23 22 23 24 24 27 28 28 28 28 28 27 28 28 29
36 39 39 38 39 40 40 35 32 32 31 29 29 32 36 36 33 32 32 31 31 28 28 25 25 26 24 21 23 24 25 25 25 26 26 26 27 29 29 27 27 27 27
39 40 38 38 39 40 39 31 30 30 31 32 38 39 36 33 31 31 31 31 29 27 25 25 25 25 21 27 30 30 26 25 25 26 26 25 27 27 28 28 29 28 27
40 39 39 40 40 39 35 32 33 39 39 39 37 35 35 30 30 29 27 28 26 26 25 24 24 24 24 29 30 29 26 26 25 25 25 25 24 27 26 28 29 29 30
40 40 40 39 39 36 36 40 40 38 36 36 36 34 29 28 27 28 26 25 24 24 23 24 24 24 24 28 28 28 26 26 27 27 26 26 26 27 27 27 28 30 30
40 39 38 39 37 37 40 40 40 39 38 32 27 25 26 26 27 25 23 24 23 22 23 23 25 24 25 28 28 27 27 29 28 28 28 27 27 28 29 29 30 29 29
38 36 38 38 38 39 39 37 36 34 27 27 25 24 26 25 23 23 23 22 23 20 25 24 26 27 25 27 29 29 30 30 29 28 30 30 31 31 30 29 29 28 28
35 37 37 37 37 37 36 32 26 26 25 24 24 24 24 22 22 23 22 20 21 24 25 26 26 26 26 27 29 29 29 29 28 28 27 27 28 29 31 32 30 29 28
36 36 37 36 36 35 36 28 21 19 22 23 24 24 23 22 20 22 20 21 22 24 23 24 24 25 25 27 26 28 29 30 28 28 29 29 30 30 31 31 31 31 31
37 36 36 36 36 33 24 21 23 20 23 24 24 24 24 23 20 19 21 22 21 23 23 25 22 23 25 25 25 26 28 30 28 28 29 30 30 29 29 30 30 28 28
36 37 36 33 30 27 21 21 23 25 22 24 25 24 24 23 21 20 21 21 22 23 24 22 22 23 24 23 24 26 29 30 29 29 29 28 28 29 29 30 31 30 30
36 37 33 32 27 23 22 21 22 25 23 25 25 25 25 23 21 22 22 23 24 24 23 23 25 25 23 24 28 30 29 29 29 29 27 27 26 25 26 27 31 28 28
36 34 32 25 23 20 21 22 24 26 26 25 26 26 24 23 23 22 22 24 25 25 26 25 27 26 26 28 30 30 32 30 29 27 25 23 23 25 25 26 29 28 27

GFSMW_sfc_dewp_009.txt.gz
Dewpoint
30 33 34 34 36 37 34 34 35 36 36 35 36 36 39 40 40 39 43 43 42 40 38 39 41 42 40 40 39 40 38 37 39 38 38 37 37 36 37 43 46 51 46
28 32 35 35 33 35 36 35 34 36 36 36 36 36 37 38 39 40 41 42 42 41 40 40 38 38 38 37 38 41 39 40 38 38 36 34 35 36 37 36 41 41 49
26 28 30 34 36 36 36 37 36 35 37 36 35 36 38 37 35 37 39 40 41 42 41 40 41 39 39 38 40 38 37 36 39 37 37 34 32 35 35 36 37 38 41
29 30 29 29 35 37 39 38 38 37 37 38 35 34 33 33 34 35 36 38 42 42 42 42 41 41 41 39 40 41 40 39 37 39 39 38 38 35 33 35 35 36 36
30 30 31 33 33 37 40 41 40 40 39 38 38 36 35 38 37 38 37 38 41 42 41 40 40 40 41 39 37 36 37 39 39 38 38 37 37 37 34 31 32 34 35
31 33 34 34 34 37 38 41 40 40 41 40 40 40 37 36 37 37 38 38 40 38 37 36 36 36 35 34 34 33 33 32 34 36 36 35 32 31 31 31 30 30 31
33 32 32 34 36 40 36 39 40 40 41 41 41 41 40 38 36 38 38 35 36 35 33 33 34 33 34 34 34 33 33 33 33 33 33 34 33 32 30 28 27 25 26
33 34 36 36 37 37 37 38 39 40 40 41 42 42 42 41 38 39 39 36 34 35 34 34 35 34 34 35 36 34 32 33 33 32 33 33 33 32 32 30 29 27 27
35 35 36 38 38 39 39 41 41 41 41 40 39 40 42 40 38 35 34 35 34 32 34 35 34 36 37 37 34 35 33 33 33 33 34 34 33 34 33 33 31 30 27
36 36 36 38 38 39 40 41 40 39 38 36 37 36 37 34 35 35 33 33 33 34 35 37 38 37 35 33 32 31 32 32 32 32 32 32 32 33 34 33 33 33 31
35 35 36 37 39 40 41 41 41 41 35 35 36 35 34 32 32 32 32 32 33 34 36 36 35 33 31 30 30 30 30 30 30 30 29 29 30 30 31 31 30 30 29
36 36 37 38 39 40 41 41 41 41 34 34 34 34 32 30 30 30 31 32 32 33 32 33 31 30 31 30 30 29 28 27 26 27 28 27 25 26 27 28 27 28 28
36 39 40 39 39 40 41 41 40 35 33 32 31 31 30 29 30 31 31 31 32 33 32 30 31 31 31 29 29 27 26 25 26 26 26 25 26 25 26 27 27 28 27
39 40 40 39 38 38 39 40 37 34 31 29 30 30 29 29 31 31 31 31 31 31 30 30 31 31 28 25 25 24 24 25 25 27 28 27 27 27 26 26 26 27 27
40 40 40 39 38 39 40 39 31 33 30 29 31 36 35 34 34 33 31 31 30 30 30 29 27 27 26 21 24 25 26 26 26 27 26 26 27 29 29 26 25 25 25
40 39 40 39 40 39 38 33 36 39 40 39 38 38 37 36 33 30 30 30 29 29 26 25 26 26 22 28 31 29 26 26 26 25 25 25 26 27 29 29 29 27 25
41 40 40 39 39 39 35 36 39 39 39 39 38 38 38 38 37 31 28 27 27 25 24 24 24 24 25 29 29 28 25 25 25 24 25 25 24 27 25 27 28 28 29
41 41 39 38 38 36 38 40 40 41 39 38 38 38 38 35 27 27 27 24 23 22 22 23 24 24 23 28 29 28 26 26 26 26 26 26 26 26 26 26 25 26 26
41 40 39 38 37 38 38 39 39 40 39 38 37 32 27 26 26 24 22 22 21 21 22 23 23 24 26 28 29 28 27 27 27 28 28 28 29 29 30 28 29 27 27
40 39 37 37 37 37 39 38 36 38 37 27 25 25 25 24 22 21 21 21 21 20 24 24 26 27 25 27 27 27 28 27 26 26 26 27 27 29 30 30 29 27 27
38 37 36 37 37 36 36 35 30 24 24 25 25 25 24 22 22 22 21 19 20 23 20 20 23 24 25 24 26 26 27 27 27 26 27 26 28 29 30 31 30 29 29
37 36 36 36 36 36 35 33 19 21 24 24 24 24 24 23 22 19 19 20 21 20 14 16 20 22 22 25 26 26 26 27 27 27 27 28 29 30 30 31 31 31 30
36 36 36 36 35 35 23 23 24 24 25 25 25 24 24 24 21 20 20 21 21 18 17 20 20 21 24 26 26 25 26 28 29 29 30 30 30 30 29 29 30 29 29
35 35 36 34 33 31 23 22 25 26 23 24 25 25 24 23 21 21 22 20 19 18 21 20 21 23 24 23 24 26 28 30 29 28 28 26 26 27 26 26 28 30 30
34 36 35 34 32 24 23 22 25 26 26 26 26 26 25 22 22 23 22 22 22 19 23 23 25 24 22 23 28 28 29 29 28 26 24 23 22 22 24 25 26 26 24
35 36 33 27 23 23 25 27 27 27 26 26 25 24 22 21 21 21 21 23 24 26 25 26 27 25 25 28 28 28 29 29 29 25 20 20 21 21 23 23 25 27 24

GFSMW_sfc_dewp_012.txt.gz
Dewpoint
33 34 34 36 35 35 35 36 34 34 38 36 36 36 38 39 40 42 46 46 44 43 40 41 43 42 40 40 39 39 38 37 38 37 37 36 36 36 35 38 41 43 43
32 33 33 33 34 34 33 33 33 35 36 35 35 35 35 37 38 40 41 45 44 42 40 40 41 41 41 39 40 40 39 39 39 37 36 33 34 35 36 37 38 39 41
29 32 33 32 33 34 34 35 34 34 36 36 35 36 37 37 37 37 39 41 43 43 41 40 41 39 40 39 37 38 37 36 39 37 36 33 31 35 35 36 37 37 39
29 28 29 31 35 35 36 37 37 36 36 37 35 34 33 33 34 35 36 39 41 41 42 41 41 40 41 39 40 39 39 38 36 38 39 38 37 34 30 35 36 37 36
30 30 31 33 32 35 37 39 39 39 39 39 38 37 34 35 36 37 35 36 39 41 42 42 42 42 41 38 34 33 31 35 34 34 35 34 35 35 32 26 25 29 33
31 32 33 34 36 36 37 39 39 39 40 41 40 39 38 37 37 37 38 38 39 39 40 38 37 36 36 35 34 33 32 32 33 32 32 33 31 28 30 28 27 26 27
32 32 32 33 35 36 37 38 39 39 41 41 41 41 41 40 39 37 37 39 38 36 34 34 35 35 36 37 37 38 37 36 34 32 31 31 32 32 32 30 29 29 29
32 34 36 36 37 38 39 39 40 41 40 41 41 41 42 43 42 41 39 38 36 36 35 36 38 38 39 39 40 39 38 37 34 32 32 32 32 32 31 30 30 29 28
36 35 37 38 38 39 40 40 40 40 40 41 41 39 39 41 41 37 36 36 35 35 37 38 40 41 41 40 39 37 35 35 34 32 32 32 33 34 34 33 32 30 28
36 36 37 38 39 40 40 42 41 40 41 41 37 36 36 36 35 34 33 34 36 38 39 41 41 41 39 37 35 35 34 33 32 32 32 32 32 32 32 32 32 31 29
36 37 38 39 39 40 41 41 41 41 41 38 35 35 32 33 32 32 33 33 36 38 39 40 38 37 36 35 34 32 32 31 30 30 30 29 30 29 30 31 30 30 30
38 39 39 40 40 39 40 40 41 41 38 34 34 34 32 31 30 31 32 33 34 35 36 36 34 34 34 32 31 30 29 29 27 27 27 27 25 26 27 28 27 27 27
40 40 40 39 40 39 39 40 41 36 33 32 33 31 30 29 29 31 32 32 32 32 32 32 31 32 32 30 30 29 27 27 26 26 26 27 27 27 27 27 28 29 28
40 40 40 40 41 40 40 40 37 34 33 30 30 30 30 29 31 32 32 31 31 31 30 30 30 31 30 27 27 26 26 26 26 27 27 26 26 25 25 25 25 25 25
40 39 40 40 41 40 40 38 35 38 38 37 38 37 36 34 33 32 32 33 31 30 30 29 27 27 26 23 26 27 27 26 26 26 25 25 26 28 28 26 26 25 25
40 39 40 41 41 39 39 36 37 39 39 38 38 38 39 38 38 37 36 33 32 29 26 25 25 25 22 28 30 29 26 24 23 24 24 24 26 25 27 29 29 28 26
40 39 41 41 40 38 36 37 39 40 39 39 39 39 40 38 37 37 34 31 27 24 23 22 23 23 24 27 28 29 26 26 25 25 25 25 24 26 25 27 28 28 29
39 39 41 40 38 37 37 38 39 39 38 38 38 38 37 37 34 29 25 23 22 21 21 22 23 23 23 27 28 29 26 26 26 26 26 26 26 26 26 26 27 26 26
41 41 41 38 37 36 37 38 37 37 39 39 36 29 27 25 24 22 21 21 21 21 20 22 23 24 25 27 27 27 25 25 27 27 26 26 27 28 28 27 28 28 27
42 41 37 37 36 36 37 36 32 29 28 25 25 25 25 23 22 22 21 21 19 20 23 24 24 24 24 26 26 25 26 25 25 25 25 27 27 28 29 28 28 27 27
37 37 36 36 36 36 36 34 22 23 25 26 26 25 24 23 23 21 20 19 20 22 18 18 21 23 24 23 25 26 27 26 25 25 25 26 28 29 30 30 29 28 28
36 36 35 36 36 35 35 24 20 22 25 25 25 25 25 23 20 20 20 20 21 19 13 13 17 20 21 24 26 25 25 26 27 27 27 29 30 27 29 29 31 30 30
35 35 35 37 36 34 29 22 23 24 25 25 25 25 25 23 21 20 21 21 20 18 16 18 19 20 23 24 26 25 26 28 28 29 28 27 26 25 25 27 28 28 28
33 33 36 36 34 33 23 23 26 25 25 25 25 26 25 23 22 22 22 20 18 17 21 20 20 21 22 22 23 26 27 28 29 26 25 23 23 21 25 26 27 28 29
34 36 35 33 26 24 24 26 26 26 25 25 26 25 24 22 22 22 22 22 21 19 18 19 25 21 19 22 28 26 27 28 27 27 22 20 20 21 22 23 25 27 27
34 33 28 26 25 25 26 27 27 26 25 25 24 23 22 21 20 20 21 24 24 23 23 25 24 22 24 27 26 27 28 26 27 23 21 16 20 20 21 21 22 23 26

GFSMW_sfc_dewp_015.txt.gz
Dewpoint
33 33 33 35 36 39 38 37 33 40 39 38 37 37 38 39 40 41 45 47 47 46 43 43 44 42 41 40 40 38 37 38 38 36 36 36 36 35 35 37 39 40 41
32 34 35 34 34 35 35 36 34 33 36 36 35 35 36 37 39 40 41 45 46 46 43 41 42 43 41 40 40 39 39 38 39 35 35 32 34 33 35 36 37 38 40
31 32 32 33 33 33 33 34 34 34 36 36 35 35 36 36 37 37 38 40 45 46 44 41 40 41 42 40 39 39 38 37 38 37 35 32 30 34 34 34 36 37 37
29 30 32 33 33 33 34 35 36 36 36 37 36 34 33 33 35 36 36 37 41 43 44 42 40 39 41 40 39 39 38 38 36 36 39 36 36 28 25 31 30 29 32
29 30 30 30 32 34 35 37 39 40 40 40 39 38 37 37 37 38 37 37 38 42 42 43 41 41 42 41 38 35 32 34 32 32 31 32 33 34 32 21 21 27 29
29 31 33 33 34 36 37 38 39 39 40 41 41 41 40 40 39 39 39 39 39 39 41 41 41 38 36 35 35 35 34 34 35 35 35 34 30 28 28 28 25 26 28
30 32 33 33 36 37 39 39 40 40 41 41 41 41 41 41 41 41 41 39 38 36 35 36 36 37 38 39 40 40 39 38 37 36 36 36 35 33 32 31 29 28 27
32 36 36 37 38 39 40 40 40 41 41 41 41 42 41 40 41 42 41 40 36 35 37 38 39 40 40 40 41 40 40 41 40 38 37 33 33 33 32 30 29 27 27
35 36 37 38 39 39 39 40 41 41 41 41 42 40 37 37 39 37 37 36 36 37 38 40 41 41 41 42 42 40 38 38 37 35 34 32 32 33 33 33 32 29 26
37 38 38 39 39 39 40 41 41 40 41 41 39 34 35 36 36 34 34 35 36 38 40 40 41 41 41 41 40 37 35 35 34 33 32 32 32 32 33 32 32 31 29
37 39 39 40 40 40 40 40 40 40 41 39 34 35 36 33 32 32 34 35 37 38 39 37 38 39 38 37 35 35 33 32 31 30 30 30 30 30 30 30 30 29 29
39 40 40 41 40 40 40 40 40 41 37 33 33 34 34 31 31 32 32 34 35 36 34 35 36 36 35 34 32 31 30 29 28 28 28 27 25 27 28 29 28 28 27
39 40 41 40 41 41 41 40 41 36 35 32 32 32 31 29 29 31 33 33 33 32 32 32 33 32 32 30 30 29 28 28 27 27 27 27 27 27 27 27 27 27 27
39 40 40 40 40 41 41 40 39 36 36 32 31 30 30 29 30 32 32 32 32 31 30 31 31 31 28 26 26 25 26 26 26 27 26 26 25 25 25 24 24 24 24
39 40 40 39 41 41 40 39 36 37 39 38 36 36 36 35 36 37 37 36 36 35 31 28 26 25 24 22 26 27 26 26 25 25 25 25 25 27 26 24 25 25 25
40 41 40 39 41 41 39 37 37 38 40 39 38 39 40 40 39 39 36 36 35 30 26 24 24 24 22 28 29 28 26 26 25 24 24 25 26 26 27 27 28 28 26
39 36 38 39 41 41 38 37 37 39 39 38 38 40 40 38 37 37 36 33 27 23 22 22 23 23 23 26 27 29 26 26 25 25 25 25 25 26 25 26 27 28 28
33 34 36 41 41 38 37 37 38 38 38 38 37 37 37 37 33 27 24 22 22 21 21 21 23 23 23 26 26 27 26 25 25 26 26 26 26 26 25 25 26 26 25
34 37 40 37 37 36 37 37 36 32 36 34 27 26 27 25 23 21 21 21 20 20 20 22 24 23 23 25 25 25 23 23 24 25 26 25 25 27 28 27 27 26 26
38 37 36 36 36 36 36 35 29 25 25 25 25 25 24 23 22 22 20 20 20 20 24 23 23 23 22 24 25 25 24 24 25 25 25 25 25 27 28 28 27 26 25
36 36 35 35 36 36 37 37 27 24 24 26 25 25 25 24 22 21 20 20 21 22 19 17 19 21 22 21 25 25 26 25 25 24 25 27 28 28 29 30 28 27 29
35 34 34 34 36 36 34 33 25 23 25 25 25 25 25 22 21 21 21 21 21 19 13 12 16 20 19 24 25 25 25 26 26 26 28 27 26 25 25 25 26 28 28
34 34 33 37 37 34 31 23 23 24 25 25 24 25 25 23 21 21 21 21 19 18 15 17 18 19 22 22 23 24 26 26 27 29 28 29 24 24 24 25 27 27 27
32 35 33 32 29 26 24 25 27 27 25 25 26 26 24 23 22 22 22 21 19 18 21 20 19 19 19 20 22 26 25 27 28 26 26 24 22 22 24 25 26 27 28
35 34 34 29 30 30 27 26 26 26 25 25 25 24 24 23 21 21 21 23 22 18 16 16 21 20 19 21 26 26 26 27 26 24 22 20 19 19 20 21 21 22 23
33 32 30 29 27 25 26 27 27 26 25 24 23 22 21 21 20 19 20 23 22 23 23 24 23 21 23 25 25 25 26 26 24 22 19 16 15 17 19 19 18 19 21

GFSMW_sfc_dewp_018.txt.gz
Dewpoint
32 34 33 34 35 39 42 43 41 43 44 41 39 38 39 39 40 41 42 45 47 47 47 45 45 45 42 42 41 39 37 38 39 37 35 36 37 37 37 37 38 39 40
32 34 34 36 37 38 40 40 37 35 41 38 36 36 36 37 39 40 40 42 46 47 46 45 43 44 43 41 40 39 38 38 39 36 35 32 34 34 36 36 37 37 40
31 33 33 34 34 35 36 36 36 35 35 36 36 35 35 36 36 36 37 38 41 43 46 45 44 42 43 42 40 39 38 37 38 38 35 33 31 33 34 35 34 37 35
30 32 32 32 32 33 34 34 36 37 37 37 36 36 34 34 36 37 37 36 39 41 43 45 44 42 42 42 41 40 39 37 37 38 39 35 35 25 22 28 33 28 30
28 28 29 30 33 35 36 38 39 40 41 40 40 40 39 40 41 40 40 40 40 39 40 42 44 43 41 42 41 39 38 36 36 31 32 32 33 33 27 25 25 28 30
30 31 33 34 35 38 39 40 40 40 41 41 41 41 40 41 40 39 41 41 41 40 39 40 41 40 37 36 35 36 36 36 37 37 36 35 33 30 30 29 28 27 28
31 35 36 37 39 39 40 40 40 40 41 42 42 42 41 39 38 38 39 40 40 36 36 37 38 39 39 39 39 39 39 40 40 40 39 39 38 38 36 34 30 28 28
36 37 38 38 39 39 39 40 41 41 41 41 42 41 38 37 37 38 39 39 37 36 38 39 39 39 40 40 41 41 41 42 41 39 38 36 37 37 35 32 30 26 26
37 37 38 39 39 39 40 40 40 41 41 41 41 39 36 36 35 36 36 36 36 38 39 39 39 39 41 41 41 40 39 39 38 38 38 37 36 36 35 34 32 30 24
37 38 39 40 40 40 40 41 40 40 40 41 38 34 35 35 35 35 35 35 36 38 38 38 38 38 39 40 40 39 39 37 37 36 34 33 33 33 33 33 32 32 29
37 39 39 40 41 41 41 41 40 40 41 38 34 34 34 35 33 33 34 35 37 38 38 38 37 37 36 38 38 37 35 33 32 31 30 30 30 30 31 32 31 30 29
38 39 40 41 41 41 41 41 41 41 39 35 34 33 34 33 31 32 33 35 35 36 34 35 35 35 34 34 32 31 30 29 28 28 27 27 25 27 29 29 28 29 28
39 39 40 41 41 41 41 41 41 40 36 37 35 34 33 30 29 31 33 33 33 34 35 34 33 32 32 30 29 28 27 27 27 27 27 27 27 26 26 26 26 26 25
39 39 40 41 41 40 41 41 40 37 37 38 38 35 33 32 34 35 37 37 37 36 36 34 32 30 26 25 25 25 25 26 26 26 26 25 25 24 23 23 23 23 23
39 40 40 37 37 39 41 41 39 37 38 39 38 36 36 39 39 38 37 37 37 35 31 27 26 25 24 21 26 26 26 25 24 26 25 24 25 26 25 24 25 25 25
40 35 33 30 32 38 41 39 37 37 39 38 37 38 40 39 37 37 37 36 36 35 26 24 24 23 22 27 28 29 27 26 26 25 24 24 25 26 27 27 28 28 26
35 33 32 35 40 40 38 37 37 37 38 37 38 39 39 37 38 38 36 34 26 23 22 22 23 23 24 26 26 26 25 26 26 25 25 24 24 26 24 25 25 26 28
35 34 38 37 36 36 35 36 37 35 34 36 34 34 33 34 30 25 23 22 22 21 20 21 23 24 22 24 25 25 25 24 25 25 25 25 25 24 24 25 27 27 26
35 37 35 35 34 35 35 35 33 30 30 30 27 26 26 24 23 23 22 21 20 20 21 23 24 23 22 24 25 25 24 23 23 24 25 26 26 25 26 26 26 26 26
37 36 35 35 34 35 35 37 35 25 26 25 25 25 24 24 23 21 21 20 20 21 24 23 22 22 21 23 25 25 23 22 25 23 24 25 26 27 28 28 28 26 27
35 35 34 33 34 35 37 36 35 26 25 25 25 25 25 23 21 21 21 21 21 22 19 16 19 21 22 21 25 24 25 25 25 25 24 26 28 27 25 25 25 24 25
32 33 33 32 35 35 32 28 27 23 25 25 25 25 25 24 21 21 21 21 20 19 13 11 15 19 18 24 23 24 25 26 26 25 26 28 29 24 24 25 26 28 28
32 33 32 33 31 25 25 26 26 26 25 25 25 26 25 23 22 21 21 21 20 18 15 16 18 19 21 21 22 24 25 26 26 28 27 26 24 23 23 24 26 26 26
31 34 33 31 30 29 30 27 26 26 24 24 25 25 24 23 22 21 21 21 19 17 20 19 18 19 19 19 21 25 25 26 27 27 25 23 21 19 21 23 23 24 24
33 34 32 31 30 29 27 25 26 25 25 24 24 23 24 23 23 21 21 22 21 18 18 16 17 19 18 20 25 25 24 25 25 25 22 19 16 16 17 19 20 20 21
33 32 31 30 28 25 25 26 26 25 25 25 24 22 21 20 19 18 20 22 21 22 21 22 21 21 21 23 24 24 25 25 23 21 18 16 14 13 15 15 17 18 19

GFSMW_sfc_dewp_021.txt.gz
Dewpoint
33 35 37 37 40 44 46 48 48 50 49 48 47 46 44 43 43 43 45 46 46 49 51 50 51 51 50 50 51 49 47 43 43 40 39 40 42 42 39 40 39 37 37
33 35 36 38 40 40 44 45 45 42 41 43 42 42 41 40 40 42 44 44 45 47 47 49 48 49 48 50 49 48 44 43 43 38 38 35 36 38 39 38 37 41 37
33 34 36 39 40 40 41 38 39 40 41 42 40 41 42 42 41 41 41 42 44 45 45 46 47 48 48 47 49 48 46 43 42 43 38 36 33 35 37 40 37 38 38
31 32 34 36 39 41 43 43 43 43 43 44 43 44 41 40 41 42 41 42 45 45 45 45 46 47 46 46 46 46 46 45 42 41 40 41 38 34 33 33 35 35 30
34 33 35 38 41 43 44 44 43 43 43 44 44 43 41 41 41 42 42 42 43 44 44 44 44 45 45 46 46 46 45 43 41 40 40 40 36 35 31 30 30 28 29
35 38 39 41 41 44 44 44 43 42 43 44 45 44 42 41 40 41 39 40 40 42 43 41 43 44 43 43 42 41 41 40 39 38 37 36 34 32 31 30 31 32 34
39 39 39 39 41 42 43 42 43 41 43 44 44 44 41 41 40 40 39 39 39 40 40 41 42 41 41 41 42 42 42 42 41 40 39 39 39 38 36 36 35 33 31
39 39 40 41 41 42 43 43 42 41 42 43 44 43 41 39 39 39 39 39 38 39 41 41 41 42 42 42 43 42 42 40 38 37 37 35 36 37 38 36 35 32 30
39 39 41 42 42 42 43 44 43 41 42 43 44 40 40 40 39 39 39 38 39 39 41 41 41 41 41 41 41 40 39 39 39 38 38 37 38 38 38 36 34 31 26
39 39 40 42 43 43 43 44 44 42 42 42 42 37 39 39 39 38 37 37 39 41 41 41 40 39 39 39 39 39 38 37 37 37 37 37 36 35 34 32 31 28 24
39 39 40 41 43 43 43 43 43 43 42 42 38 40 39 39 36 34 36 37 39 41 39 37 36 36 37 37 37 37 36 35 34 33 32 31 31 28 27 27 26 25 25
40 41 41 42 42 41 39 40 43 43 42 39 40 39 39 36 33 34 35 37 36 37 38 39 38 38 36 34 32 31 30 28 27 26 27 25 22 26 27 27 27 26 26
40 41 41 40 37 36 38 40 43 43 40 39 39 39 37 33 34 37 38 39 39 38 38 37 35 34 33 28 26 25 25 25 25 26 26 26 26 25 24 24 23 23 20
40 41 39 37 35 35 39 41 41 41 39 39 39 39 36 37 38 38 37 37 37 36 35 35 30 28 25 23 23 24 25 25 25 26 25 24 24 23 22 21 21 21 22
40 39 35 32 35 39 38 36 37 38 38 39 39 38 38 39 38 37 38 37 36 36 37 34 27 26 23 20 25 24 25 24 24 24 24 24 24 26 25 23 23 23 23
38 35 33 37 36 32 33 35 36 38 39 37 38 39 40 40 39 39 38 37 38 36 27 25 24 24 20 26 26 26 23 22 22 22 22 22 25 24 25 26 26 26 25
35 34 36 34 32 34 35 36 37 37 35 36 37 37 36 35 35 32 26 25 25 25 24 23 23 23 24 24 24 25 23 23 23 23 22 21 20 25 24 25 26 27 27
34 36 34 32 33 34 35 37 37 34 33 32 33 29 28 26 26 25 25 25 23 23 22 23 23 22 20 23 24 25 25 25 24 23 23 23 25 25 25 25 26 25 26
36 35 33 34 34 33 36 36 37 33 28 28 26 25 25 25 25 23 23 23 22 22 22 22 22 21 22 22 24 26 26 25 25 24 24 23 24 26 28 28 29 27 25
35 32 33 34 33 33 35 35 35 34 28 27 27 26 26 25 23 23 23 22 22 21 23 21 21 23 24 23 25 25 26 26 24 25 24 25 26 27 28 30 28 26 24
32 32 33 33 33 33 32 30 29 32 25 28 26 25 25 25 24 22 22 21 21 23 26 25 25 24 23 25 24 23 26 24 25 24 24 26 28 30 29 25 26 26 27
31 31 33 33 33 27 26 25 25 26 27 25 25 25 25 23 21 21 20 20 22 24 25 25 25 23 25 23 22 23 24 24 26 25 26 29 26 23 23 24 25 25 26
31 31 33 34 32 30 28 29 29 28 26 25 25 24 24 22 22 21 21 21 21 22 23 23 22 22 22 22 21 24 24 23 26 28 27 26 23 21 22 22 23 24 25
30 31 33 34 32 32 30 30 27 26 25 24 24 24 24 24 24 23 21 22 23 22 21 21 21 21 19 20 22 23 23 23 26 26 26 24 20 19 20 21 23 25 25
31 32 34 34 32 32 29 26 26 27 25 25 24 24 24 24 25 22 23 23 24 23 22 21 21 21 20 21 24 24 24 25 24 25 23 21 18 18 18 19 20 22 23
32 32 34 33 32 29 26 26 26 26 26 24 24 25 25 25 23 22 22 23 23 23 21 20 21 21 20 22 23 22 23 23 22 20 19 18 18 17 17 18 18 20 21

GFSMW_sfc_dewp_027.txt.gz
Dewpoint
40 41 43 44 43 47 46 51 52 54 51 50 47 45 44 44 43 42 46 48 48 48 50 47 47 50 48 51 53 53 53 52 52 51 49 48 48 48 44 45 43 42 42
36 39 42 44 45 45 46 46 46 46 44 42 44 46 46 44 45 46 46 46 47 47 45 46 45 45 45 49 51 52 50 51 52 49 49 45 45 45 45 44 45 47 42
34 38 41 45 46 46 45 44 44 45 46 46 43 44 43 44 42 43 44 45 46 45 45 44 44 46 47 45 49 49 49 46 48 51 48 45 42 43 44 47 45 47 46
35 38 41 43 46 46 46 45 44 44 44 47 45 47 44 43 44 45 44 44 45 42 40 40 42 44 45 47 47 43 48 48 45 46 44 47 48 45 44 44 46 45 44
39 39 40 42 44 47 47 46 44 43 44 46 47 46 45 44 42 42 42 41 39 39 37 39 42 44 44 46 47 47 46 44 44 43 45 45 44 45 43 43 44 45 44
39 39 40 41 42 46 47 46 44 42 43 44 44 44 44 42 39 39 38 37 38 37 39 37 41 43 43 44 44 46 45 44 44 43 43 41 40 39 38 38 40 41 47
39 39 39 40 42 43 45 45 43 42 42 43 43 43 42 41 40 40 39 40 38 36 37 39 41 41 43 44 43 43 42 42 41 41 40 39 38 38 37 36 37 35 40
39 38 38 40 41 43 44 45 43 41 40 41 42 42 43 40 41 42 41 39 37 36 39 40 43 44 43 43 44 44 42 41 41 39 39 40 39 39 38 37 37 36 37
37 37 39 40 41 41 42 44 43 40 40 41 43 43 43 42 42 42 41 38 38 36 41 43 41 41 41 41 41 42 42 42 40 41 41 40 39 39 39 38 37 36 31
37 38 38 39 40 40 40 42 39 38 40 41 42 40 40 40 40 40 38 37 38 41 41 40 40 40 39 39 39 40 40 39 40 41 40 38 37 37 36 34 34 35 34
38 37 37 39 39 39 39 38 39 39 37 35 35 36 37 37 38 36 36 37 39 38 39 39 39 38 37 36 37 37 35 34 33 33 33 32 32 29 28 28 31 31 30
36 36 37 38 38 37 35 36 36 31 30 30 31 33 35 35 35 37 37 38 37 38 38 39 38 36 35 32 31 31 29 28 28 30 29 25 19 25 26 25 24 25 24
35 35 37 37 37 35 35 32 28 28 30 31 33 34 34 37 37 38 38 37 37 37 37 37 37 34 31 30 29 28 26 25 25 25 24 23 24 24 24 24 24 23 19
34 35 37 37 36 34 31 27 27 30 32 32 32 32 35 38 38 40 39 40 38 36 37 35 31 29 25 24 24 23 25 24 23 24 24 24 24 24 24 23 23 21 22
35 36 37 36 33 31 29 28 28 30 32 32 31 32 36 36 38 38 37 36 35 28 27 26 25 25 23 19 25 24 24 22 22 23 21 23 26 27 26 21 22 22 22
37 38 34 32 32 28 28 27 28 30 32 31 30 31 32 31 32 32 31 29 28 28 25 24 24 24 19 27 25 25 23 21 21 22 22 22 26 25 29 29 29 27 22
37 32 31 32 32 29 29 26 26 28 29 30 28 29 30 30 30 29 28 27 27 24 24 24 23 23 23 25 24 25 23 22 22 23 23 21 18 25 22 26 28 28 29
33 32 34 33 29 29 29 27 25 25 27 27 27 28 30 30 28 25 24 24 23 24 23 24 23 23 21 27 25 25 23 23 23 24 23 22 23 24 25 25 25 26 26
33 34 33 30 30 29 28 26 25 23 23 24 25 26 29 25 24 23 23 23 23 23 22 22 25 25 26 28 26 24 25 24 23 21 24 25 26 27 28 30 30 26 27
33 28 27 27 28 28 28 27 25 23 22 22 23 25 25 24 23 23 22 23 22 21 23 26 25 26 25 27 25 24 26 26 25 24 23 25 25 27 29 30 28 26 25
25 22 22 25 26 28 27 26 25 23 22 23 25 26 25 23 22 22 22 21 21 24 31 33 29 26 28 29 25 24 27 25 26 24 25 26 30 28 26 26 26 26 27
21 22 23 23 23 24 24 23 25 23 24 27 27 26 24 22 19 22 22 21 22 25 33 32 31 29 30 25 24 24 23 25 25 25 26 29 25 26 26 25 25 27 25
15 17 19 20 21 22 22 22 27 30 32 28 27 26 25 22 20 22 21 21 21 24 28 27 26 27 25 24 23 21 23 23 25 26 26 24 28 26 26 28 26 25 27
15 16 18 19 21 21 19 21 25 31 31 27 28 27 25 23 23 21 21 22 24 25 23 23 23 24 21 22 22 23 24 23 23 24 25 28 27 27 28 28 28 29 30
14 16 19 21 20 21 21 22 22 29 28 29 31 27 24 23 26 24 23 23 24 25 23 21 22 22 21 20 20 22 23 23 22 23 26 24 23 23 24 25 25 27 25
18 19 19 21 21 22 23 25 31 28 30 32 30 26 26 26 26 25 24 27 25 23 22 20 21 21 19 18 19 20 20 21 21 22 22 22 21 21 22 23 23 24 23

GFSMW_sfc_dewp_033.txt.gz
Dewpoint
44 46 47 47 47 50 49 47 46 52 51 50 47 47 46 46 47 48 47 47 48 49 48 48 47 47 47 46 46 47 47 46 48 46 46 47 48 48 49 49 48 46 47
44 46 48 50 50 49 47 47 45 46 46 46 46 46 47 46 46 49 49 49 48 48 46 46 45 45 46 46 46 45 44 45 45 45 44 41 42 44 45 47 47 48 49
43 44 46 47 46 46 44 44 45 45 47 47 48 48 48 47 45 45 46 44 45 44 43 43 44 43 45 45 44 44 45 44 44 45 44 41 40 41 43 43 46 47 49
42 44 45 46 46 46 45 45 44 44 46 46 46 45 45 44 45 44 43 43 44 43 42 41 42 43 44 43 45 45 44 43 41 43 40 41 42 38 36 41 40 41 43
41 43 44 45 46 46 45 45 45 45 45 45 45 45 44 44 43 43 43 43 43 42 41 40 42 44 45 44 43 43 43 43 41 40 39 38 36 37 35 33 35 37 39
39 41 44 45 46 46 46 45 44 43 44 44 45 44 43 43 43 43 43 43 42 41 41 43 44 43 43 43 42 42 42 40 40 39 38 38 36 35 35 35 34 34 37
39 39 39 41 43 43 44 43 43 41 42 43 45 45 44 43 42 42 42 40 39 40 43 42 42 42 41 41 41 41 40 40 39 38 37 38 36 38 37 36 36 33 34
37 38 39 41 40 41 41 41 41 40 42 44 43 42 43 43 43 42 41 40 39 41 41 41 41 40 40 40 39 39 40 38 39 37 40 39 39 40 38 36 35 31 32
37 38 40 39 39 39 41 41 39 40 39 38 36 35 37 38 38 39 40 40 40 39 41 40 39 39 39 39 38 38 37 37 37 37 37 37 37 39 39 39 38 34 29
37 38 38 39 40 40 41 39 39 36 33 32 34 34 36 36 39 39 38 38 38 38 38 39 38 37 37 39 38 37 36 36 37 37 36 36 36 37 38 36 37 37 34
36 36 37 40 39 39 37 38 32 30 30 31 33 35 35 37 38 38 38 39 39 37 37 39 39 39 40 39 37 37 36 36 35 34 32 31 31 31 32 32 31 33 34
37 38 38 39 39 38 36 31 30 29 30 31 33 34 34 37 39 39 39 39 39 39 39 40 39 38 38 37 36 33 31 29 27 26 26 27 24 26 27 28 27 27 27
37 38 38 38 37 36 34 30 30 30 30 31 32 32 35 35 37 38 38 38 39 39 38 38 38 36 35 31 28 28 28 27 26 26 25 25 24 24 25 25 26 27 24
39 39 38 36 34 35 35 31 30 30 30 31 31 32 35 34 35 36 37 37 38 38 37 32 32 30 28 27 26 25 26 25 25 26 25 24 24 24 25 26 25 23 23
39 37 35 34 34 34 35 34 31 30 30 29 30 33 34 34 34 33 34 34 33 31 31 29 28 28 26 24 25 24 24 24 24 25 23 23 25 28 29 26 27 24 22
36 35 34 34 34 35 35 31 30 31 31 30 30 32 34 34 34 33 32 32 30 30 27 27 27 27 23 29 28 26 24 24 23 22 23 24 25 25 27 29 28 28 26
36 35 34 34 35 35 35 31 30 32 31 31 31 31 33 34 33 32 32 29 28 25 26 25 27 26 26 29 28 28 25 23 22 22 23 20 18 24 25 26 28 28 29
36 35 35 34 34 34 32 31 28 31 32 31 30 31 33 32 33 34 30 27 24 23 24 26 26 25 24 29 29 30 25 24 23 23 22 21 23 24 24 23 25 26 27
36 35 35 35 31 25 23 23 23 23 23 33 34 34 35 35 35 32 28 24 23 23 25 27 26 26 26 29 30 29 25 25 25 25 24 22 22 24 26 27 25 25 26
35 34 23 19 19 20 21 22 20 20 26 28 34 35 36 36 35 34 29 24 24 27 28 27 28 29 26 28 29 27 21 21 24 23 22 23 22 25 28 26 26 23 23
20 18 16 16 18 20 21 19 19 21 28 31 33 35 36 34 35 28 23 24 25 27 28 26 27 27 27 25 25 27 25 23 23 21 21 22 23 24 26 28 27 25 26
16 16 16 17 17 18 20 20 19 25 30 30 33 36 36 34 28 25 24 24 26 25 19 15 18 23 24 24 24 22 20 20 19 20 21 23 25 28 27 27 28 29 28
18 19 18 19 21 21 21 22 24 27 31 33 34 33 33 32 28 24 24 24 24 21 20 19 17 17 23 21 22 20 20 21 20 21 23 25 26 23 25 26 26 27 27
18 19 20 21 23 24 24 25 28 32 31 34 33 32 31 30 28 26 25 23 21 19 24 20 15 12 20 19 19 19 19 22 21 22 22 24 23 22 23 24 24 25 25
21 23 23 25 25 26 26 27 29 32 31 31 30 31 30 28 26 25 24 25 23 22 18 18 17 9 7 17 20 19 19 20 22 22 22 20 19 19 20 21 22 23 23
24 24 25 26 26 27 28 30 32 32 31 29 28 29 29 27 25 23 24 27 26 26 27 27 19 16 20 21 21 20 20 19 23 19 18 16 17 17 18 18 19 20 21

GFSMW_sfc_dewp_039.txt.gz
Dewpoint
46 48 48 49 51 53 54 55 55 55 53 52 51 49 48 49 48 43 45 44 44 43 43 43 43 43 42 42 43 43 42 42 44 43 41 43 42 43 39 41 43 46 43
45 46 48 50 51 52 52 50 49 47 49 47 47 48 46 44 44 43 43 43 42 41 40 41 42 43 43 43 43 43 43 43 43 41 40 38 37 39 35 38 39 40 42
44 46 48 49 49 47 44 44 44 45 45 46 46 46 46 44 42 42 41 42 41 41 41 42 43 43 43 43 42 41 40 40 41 40 39 34 33 34 35 33 37 37 37
45 46 46 44 43 44 44 44 45 45 45 45 44 43 42 41 42 42 42 41 41 41 43 43 43 43 42 41 41 42 40 40 39 39 39 38 37 32 32 33 34 35 35
44 43 43 43 43 44 43 44 44 44 44 44 44 43 43 43 43 44 43 41 41 43 43 43 42 41 41 41 40 39 39 39 38 37 36 35 35 34 33 30 30 32 35
44 44 44 44 44 45 43 41 41 42 44 44 43 43 42 42 41 42 41 41 40 42 41 41 40 40 40 39 39 38 37 37 37 37 35 35 32 32 33 32 31 32 32
43 43 44 44 45 44 43 41 41 43 43 42 41 41 41 40 40 41 40 39 38 40 40 40 39 39 39 38 38 37 36 36 35 34 35 35 35 37 37 36 34 33 32
41 43 44 44 43 42 41 40 42 41 37 35 35 36 37 37 38 39 39 39 40 40 40 39 39 38 38 37 37 36 36 36 35 34 35 36 37 36 37 35 35 31 31
40 39 41 40 40 40 40 40 37 34 33 34 34 34 35 36 38 38 38 38 39 40 39 39 38 38 38 38 37 35 35 35 35 35 35 36 35 36 35 35 36 32 27
39 39 40 39 39 39 38 35 31 30 31 31 33 33 34 38 38 38 37 37 37 37 37 37 37 37 37 37 37 35 34 34 34 34 33 31 31 30 30 30 31 30 28
38 37 37 37 37 36 30 30 29 29 28 30 32 33 33 37 38 37 37 38 37 37 37 37 38 37 35 35 34 33 30 28 26 26 26 26 26 26 26 26 27 26 27
37 37 36 35 35 35 31 29 29 29 29 29 31 32 33 34 37 37 38 38 37 36 36 36 37 36 33 31 28 28 27 25 24 24 25 25 22 24 24 24 24 24 25
37 36 35 35 35 35 36 35 33 31 29 29 30 31 31 32 35 36 37 37 36 36 36 37 37 33 30 28 26 26 24 24 24 24 24 23 23 23 23 23 24 25 26
36 35 35 34 34 35 35 36 36 34 32 31 31 31 31 31 33 35 36 36 36 37 36 35 33 30 27 26 25 24 24 24 24 25 24 23 23 23 23 23 26 26 27
35 35 34 34 34 34 35 35 34 32 32 31 31 32 33 33 34 34 35 35 37 35 35 36 31 29 26 24 25 24 24 24 23 24 23 23 24 25 23 20 22 23 25
35 35 34 34 33 34 34 30 28 28 29 28 32 33 33 33 34 34 34 34 35 35 37 32 29 28 23 29 29 28 25 25 24 23 23 23 25 23 23 23 24 24 23
35 35 34 34 33 31 28 22 23 25 25 29 32 33 33 33 32 32 35 34 34 34 32 28 28 25 25 29 29 30 28 26 25 24 24 23 21 22 21 23 24 24 26
34 34 34 30 28 22 19 22 21 23 25 30 32 34 34 34 34 34 33 31 31 30 30 26 25 24 24 29 29 28 25 24 24 23 23 23 21 22 21 23 24 24 25
34 34 31 24 18 18 19 21 22 21 28 29 31 31 33 34 34 35 35 35 34 32 26 26 25 25 25 26 26 25 22 22 21 21 21 20 19 21 24 24 23 23 23
29 19 17 17 18 19 21 22 21 21 26 29 30 32 35 35 34 34 35 32 25 27 27 26 26 26 22 23 23 22 20 13 20 20 19 20 21 23 27 25 24 22 22
18 18 19 19 20 22 24 24 23 24 25 30 32 34 34 33 33 32 26 27 26 27 26 24 24 25 23 22 21 20 18 18 20 19 19 21 23 23 22 24 25 25 26
19 20 21 21 23 25 26 25 25 26 27 31 33 32 32 32 31 30 26 27 27 24 19 12 17 21 22 21 21 21 21 21 17 20 21 23 21 21 22 23 24 25 24
20 21 22 23 26 26 27 26 27 29 30 33 32 32 31 30 29 24 24 25 24 21 19 17 15 15 22 20 22 22 23 21 19 22 20 20 19 20 21 21 23 23 22
22 23 23 25 26 27 27 27 29 33 33 32 33 31 29 30 30 30 27 25 21 18 22 18 15 11 18 19 19 20 20 19 20 18 18 17 19 19 19 19 21 21 21
23 24 25 26 27 28 26 27 30 33 31 31 32 31 29 31 28 26 24 25 23 22 18 18 16 7 6 16 21 22 19 13 19 10 9 12 14 15 16 16 18 19 19
24 25 26 26 28 27 27 28 29 29 32 30 30 30 28 28 26 26 26 26 26 27 28 28 21 15 21 24 23 20 18 16 15 11 5 1 2 11 14 14 14 15 15

GFSMW_sfc_dewp_042.txt.gz
Dewpoint
46 48 49 52 55 55 57 59 58 58 57 55 52 48 47 47 44 43 43 43 42 43 42 42 41 42 42 43 44 43 42 42 43 42 40 41 42 40 37 40 42 40 40
46 47 48 50 51 53 54 54 52 51 49 47 48 45 44 43 42 42 42 41 40 40 40 41 42 42 42 42 42 41 41 41 42 39 38 35 35 37 36 36 38 37 38
45 47 48 49 50 47 44 44 45 45 46 46 46 45 44 43 41 41 41 41 41 41 41 42 42 42 42 41 40 40 39 38 39 40 38 34 32 35 35 35 36 36 37
46 46 46 43 43 43 44 44 44 44 44 44 42 41 41 40 42 42 41 40 41 42 43 43 42 41 41 39 39 40 39 38 37 38 39 37 37 33 32 33 34 34 34
43 43 43 43 43 44 43 44 44 44 44 44 44 43 42 43 43 43 42 41 41 43 42 41 40 39 40 40 39 39 38 38 37 37 37 35 34 34 34 30 28 33 35
43 43 43 43 43 43 42 42 42 43 44 43 43 42 42 41 40 41 41 40 40 41 41 40 39 39 39 38 38 37 37 36 36 37 36 35 32 31 33 31 32 32 33
43 43 43 44 44 44 41 40 42 43 42 41 40 40 40 39 37 38 38 39 38 39 40 39 38 38 38 37 37 36 35 35 35 34 34 35 35 35 36 35 32 31 32
42 43 44 44 44 42 41 40 43 39 35 35 35 35 35 35 36 37 39 39 39 39 39 39 38 38 37 37 36 36 35 35 35 34 34 34 35 37 37 35 34 30 29
40 41 41 40 40 40 40 40 36 33 33 33 34 33 34 35 36 37 38 37 38 39 39 38 37 37 37 37 36 35 35 34 34 34 33 34 35 36 35 34 34 30 25
39 39 39 38 39 38 37 33 31 30 30 31 32 33 33 35 37 37 37 37 37 37 37 37 36 37 37 37 36 36 34 33 33 31 27 27 28 27 29 28 30 30 29
37 36 36 36 35 31 30 29 29 28 28 28 31 32 33 34 37 37 37 37 37 37 36 36 37 37 36 35 34 33 30 27 26 25 25 25 26 26 25 26 26 25 26
36 35 35 35 35 35 35 32 32 32 30 30 30 31 32 32 33 35 37 37 37 37 35 36 36 36 35 33 30 28 26 25 24 24 24 25 22 22 23 23 23 23 24
35 35 35 34 34 35 36 36 35 35 32 31 31 31 31 31 31 32 34 36 36 36 35 36 35 35 33 28 27 26 24 24 24 24 24 24 22 21 23 23 23 24 25
35 34 34 34 34 34 35 35 32 31 30 29 29 30 31 31 31 33 34 34 35 35 35 34 34 35 30 26 25 25 24 23 24 25 25 24 23 22 22 22 21 22 23
34 34 33 33 33 33 33 30 28 28 28 27 29 31 32 31 32 32 33 34 35 34 34 35 36 32 26 23 25 24 24 24 24 25 25 24 25 27 25 23 23 21 21
34 34 33 33 32 31 29 24 23 24 26 25 30 32 32 32 32 32 32 34 34 34 35 35 33 28 25 29 30 30 28 27 26 25 25 24 24 24 24 23 23 22 21
33 34 33 32 30 27 24 20 22 23 25 26 30 33 33 33 33 33 34 33 31 32 30 28 28 25 25 29 29 29 25 24 23 21 21 20 19 21 21 22 23 23 24
33 33 32 27 24 19 19 21 22 23 24 28 30 32 31 32 33 33 33 32 33 33 32 27 25 23 25 28 28 26 23 21 21 20 20 20 20 21 20 21 23 23 23
34 33 30 22 18 19 21 22 23 23 23 26 29 29 31 33 33 32 32 33 34 33 29 26 24 25 24 25 25 23 22 20 19 19 20 20 20 22 25 26 24 22 22
30 19 17 18 20 21 23 24 24 25 26 27 28 30 33 33 32 32 32 31 27 26 26 25 25 26 22 23 22 22 20 12 19 20 20 21 21 23 22 23 23 21 22
17 19 20 20 21 23 25 25 25 25 27 29 29 32 33 32 32 31 28 27 26 28 27 25 24 25 23 21 22 21 19 19 21 20 20 21 22 21 22 23 23 24 25
19 20 21 22 24 26 27 25 25 27 31 31 32 32 33 32 30 29 29 27 29 25 19 16 18 21 23 22 22 22 23 22 18 20 21 21 20 19 20 21 23 23 23
20 22 22 23 25 27 27 25 26 29 31 31 30 29 32 31 28 26 25 25 26 23 21 17 15 16 21 21 22 22 23 21 18 21 18 18 18 18 20 19 21 21 21
22 23 23 24 25 27 27 26 27 30 31 29 29 29 32 29 30 30 29 26 22 19 21 18 15 12 18 19 19 20 21 19 19 17 16 15 18 15 17 17 18 19 19
23 24 25 26 26 28 27 27 28 28 27 30 30 29 29 27 28 28 25 27 25 23 20 19 16 8 11 16 19 22 18 12 16 9 8 11 10 12 14 15 15 16 14
24 25 26 26 27 28 27 28 27 26 27 28 28 28 27 25 24 23 25 27 27 26 28 29 22 16 22 24 25 21 19 16 15 10 4 -2 -3 4 11 13 12 13 10

GFSMW_sfc_dewp_048.txt.gz
Dewpoint
51 54 56 57 58 59 60 61 61 60 61 59 56 52 49 47 47 45 47 47 46 46 48 46 46 46 45 44 43 40 38 35 37 36 31 31 34 42 39 38 36 37 36
52 54 56 58 58 59 59 60 59 59 59 57 52 49 48 45 44 45 47 47 47 47 46 47 46 44 40 41 41 40 36 34 35 36 35 27 27 29 37 37 36 38 36
51 53 55 57 59 59 59 57 58 58 55 51 49 48 48 46 44 45 44 46 46 46 47 46 44 42 39 36 39 38 38 34 34 36 35 31 27 31 30 32 32 35 33
48 48 46 48 51 53 53 52 53 52 51 51 47 46 43 42 45 47 46 45 47 46 44 42 41 41 40 39 37 34 39 36 33 32 31 35 34 32 28 29 28 29 28
47 42 42 44 44 49 49 49 47 47 48 48 47 47 46 46 46 46 45 45 44 43 40 40 41 40 38 39 40 39 38 36 34 32 32 33 32 32 30 29 27 27 28
44 41 42 43 45 50 50 49 47 46 47 48 48 48 46 42 40 39 37 36 36 36 38 38 40 41 40 40 39 39 39 38 37 34 35 34 33 32 32 34 33 30 28
42 42 43 43 45 46 48 48 46 45 46 46 45 42 40 37 36 36 35 34 32 33 35 37 40 39 40 41 40 39 39 38 37 37 35 35 33 32 32 32 29 28 27
43 43 43 44 45 46 47 46 45 43 42 41 39 39 37 37 36 36 36 35 35 35 38 40 41 41 41 41 40 39 38 39 39 37 36 33 32 32 32 32 32 29 23
43 44 44 46 46 47 47 47 43 40 38 38 37 37 38 37 37 38 39 38 40 37 39 40 41 41 40 40 40 39 38 38 39 38 37 34 29 29 27 26 25 26 24
43 44 45 47 46 46 46 44 39 35 34 34 36 34 36 36 37 39 38 37 37 36 37 37 37 37 38 38 38 37 35 36 36 33 31 29 26 25 25 22 22 22 21
43 43 43 43 43 41 39 37 34 34 35 34 35 37 35 32 32 32 31 31 32 29 30 30 33 34 35 37 37 37 35 34 33 31 29 27 27 25 24 24 22 21 20
41 40 39 37 37 36 36 36 38 36 36 36 31 28 29 29 28 28 29 31 30 31 31 32 34 34 35 37 37 35 36 33 30 28 27 26 21 25 25 22 22 21 21
38 38 37 37 37 37 36 34 34 30 26 24 25 26 26 27 27 28 29 30 31 32 32 33 34 34 36 35 36 34 35 31 28 27 27 26 25 24 23 23 21 21 18
37 37 36 35 34 34 32 31 28 25 24 23 23 23 27 28 29 29 30 32 32 33 34 34 35 36 36 35 35 32 30 29 27 28 28 26 24 24 23 21 20 18 17
37 35 34 33 32 30 28 25 23 25 25 22 21 24 29 30 30 30 32 32 34 33 33 34 34 35 33 30 31 29 28 28 27 26 23 22 21 21 21 19 19 19 18
35 34 32 31 29 26 23 21 23 25 25 22 23 24 28 29 31 32 32 33 32 32 33 32 32 31 28 29 29 29 26 25 23 20 20 18 19 18 21 21 21 21 19
34 32 31 29 27 24 21 22 23 25 24 23 21 22 25 27 30 30 31 32 33 33 33 33 32 31 30 29 30 26 24 23 21 20 18 16 13 20 18 20 21 23 26
34 32 32 28 24 22 22 25 23 23 22 22 22 23 25 27 28 31 31 31 32 33 32 33 33 31 27 28 27 25 24 23 22 21 20 19 18 19 21 18 22 20 20
34 33 30 25 21 22 23 23 21 20 20 21 23 25 28 28 30 30 31 31 30 30 29 32 32 29 27 25 26 24 25 24 23 21 20 19 19 20 21 22 23 21 20
33 29 23 21 23 23 24 21 18 19 21 23 26 27 28 30 30 31 31 30 29 28 29 28 29 28 28 24 23 23 27 28 25 22 19 22 19 19 19 21 23 22 20
27 20 20 21 22 24 23 21 20 20 22 26 28 28 28 28 28 29 31 29 27 30 33 33 32 28 28 28 23 23 28 26 23 22 19 19 19 18 19 19 21 22 20
20 21 21 20 22 22 22 19 19 21 25 27 28 28 28 26 25 28 29 28 28 30 33 33 32 30 29 27 25 24 24 23 26 23 21 21 18 17 17 19 17 17 19
21 21 21 21 22 22 21 22 23 25 27 28 27 28 28 27 26 28 28 27 27 28 31 31 29 28 27 26 26 25 25 23 26 24 21 19 16 16 17 16 16 17 19
22 23 21 19 20 22 23 25 27 28 27 26 26 27 29 29 27 27 26 26 26 26 25 27 27 28 26 26 26 27 26 25 25 23 21 19 18 17 16 17 17 19 17
26 22 22 22 21 24 25 26 27 28 26 26 26 26 26 28 28 26 26 25 25 26 26 24 28 29 28 27 26 26 26 27 23 22 23 20 18 15 14 16 16 16 14
24 22 22 23 23 24 24 25 25 26 26 26 25 27 28 27 27 26 26 28 28 28 29 28 29 31 29 28 27 26 25 23 19 20 22 23 22 19 15 16 16 16 13

GFSMW_sfc_dewp_051.txt.gz
Dewpoint
49 51 53 54 53 56 58 61 60 61 61 60 57 54 53 52 49 46 47 47 47 47 49 46 46 47 43 44 43 40 39 36 35 33 33 34 37 38 36 37 37 37 36
51 53 55 57 57 58 59 60 59 59 58 54 54 53 50 46 44 46 48 47 48 47 45 48 45 44 42 40 40 40 37 35 34 32 31 30 29 29 33 36 35 39 34
51 53 55 57 58 58 58 59 57 57 54 51 49 49 47 47 44 46 46 47 47 46 46 45 44 42 39 36 39 39 37 34 33 35 31 28 26 28 29 32 31 37 32
50 52 53 55 56 56 55 52 52 51 49 49 46 47 41 42 46 46 46 46 47 45 42 41 40 41 40 40 39 35 39 37 32 32 29 33 32 28 28 31 30 31 29
48 46 47 48 49 51 51 51 50 48 49 47 47 46 46 47 46 46 45 44 44 42 40 38 39 40 39 39 40 40 38 36 34 32 32 33 33 33 32 29 30 31 30
45 41 42 43 47 50 50 49 47 46 48 48 48 48 47 45 43 41 40 38 36 35 36 35 39 39 39 39 38 43 41 39 38 36 37 35 34 33 35 35 31 30 28
42 40 41 42 46 48 49 48 46 45 48 49 48 46 44 41 40 39 37 36 33 33 35 37 38 36 37 38 40 41 41 38 38 39 37 36 34 33 31 33 31 27 26
41 41 42 43 45 47 48 47 46 45 46 45 43 42 39 39 38 37 36 36 36 36 38 38 37 37 37 40 38 42 41 39 41 39 38 36 35 33 31 29 29 28 23
41 41 42 44 46 47 48 48 46 44 43 41 39 39 39 40 39 38 39 37 38 33 34 36 36 35 35 35 38 39 39 40 39 38 39 35 34 31 27 26 26 26 25
42 42 43 46 46 47 47 49 46 41 37 37 38 36 39 37 37 37 35 34 33 31 30 31 30 30 32 33 33 38 37 38 39 35 34 32 30 28 27 25 25 24 22
42 43 44 46 47 47 47 44 40 37 36 35 37 39 36 33 32 31 30 29 30 29 29 29 30 31 31 31 33 37 36 33 34 33 33 31 29 28 26 26 26 22 23
42 43 44 45 45 44 42 39 38 37 37 37 39 30 30 30 29 27 27 30 30 31 31 31 30 31 30 31 32 32 33 32 32 32 32 30 25 28 26 24 22 22 22
42 42 42 41 40 40 38 39 37 36 35 31 25 26 26 25 26 26 28 29 30 31 31 31 31 31 34 36 35 34 34 34 33 31 29 28 28 25 22 23 22 22 17
41 40 40 39 39 39 38 34 34 32 27 23 22 23 24 27 28 29 29 31 31 32 31 31 31 34 34 33 32 32 31 31 30 30 29 26 23 22 23 19 19 18 18
39 39 39 38 37 36 33 32 31 27 25 23 21 22 26 27 28 29 31 31 32 31 30 31 31 32 32 30 29 30 30 28 28 27 22 22 22 21 20 17 19 19 17
38 38 37 37 35 33 30 30 26 24 25 21 20 21 23 24 26 29 31 31 30 30 31 32 33 33 30 30 30 29 27 26 23 21 21 21 23 22 24 25 24 21 17
38 38 36 35 33 30 28 24 24 24 23 21 19 20 22 23 25 25 26 29 31 30 32 33 32 34 34 31 30 26 25 25 23 22 21 19 15 22 20 22 22 22 25
38 37 35 33 30 27 23 25 22 21 21 19 19 20 22 24 25 27 29 30 30 30 31 32 33 33 35 30 28 26 25 24 23 23 22 21 20 21 21 19 18 19 20
38 36 34 31 27 23 24 22 21 18 17 17 19 21 24 25 27 28 30 30 29 29 29 30 31 32 34 28 27 25 26 24 24 23 22 21 19 21 21 19 20 19 19
37 34 32 26 23 23 23 21 17 16 18 19 21 24 26 27 28 29 30 30 29 27 29 29 30 30 31 27 26 24 27 32 25 23 21 24 20 19 19 20 21 20 19
34 30 24 22 23 26 23 20 17 17 18 21 24 25 26 26 27 27 28 28 28 30 32 34 31 31 32 31 26 24 26 27 25 23 22 22 21 20 18 18 20 22 18
23 22 22 24 25 24 22 16 14 15 21 24 25 26 27 26 25 27 27 28 28 29 35 34 32 31 31 30 28 26 25 25 26 24 23 24 22 20 17 18 18 18 19
20 24 27 29 26 22 18 18 21 22 24 26 26 26 27 28 27 27 27 27 26 29 31 32 32 31 31 30 29 27 26 26 25 25 24 22 21 19 19 17 17 19 20
27 32 31 26 20 20 22 22 24 25 25 26 26 26 26 27 27 27 26 26 28 28 28 28 29 30 28 29 28 31 29 27 26 27 26 23 22 22 21 20 19 20 20
35 31 24 22 19 21 23 22 23 25 25 26 26 27 27 28 28 28 28 28 28 28 27 27 27 31 30 28 28 27 26 28 27 24 24 23 22 20 19 18 17 18 17
32 27 24 24 22 20 20 21 22 23 25 27 27 29 28 29 28 27 28 30 30 29 27 27 28 30 29 29 28 27 26 26 25 23 22 24 26 23 21 19 18 18 16

GFSMW_sfc_dewp_054.txt.gz
Dewpoint
47 50 52 55 53 57 61 62 60 59 60 59 58 55 55 54 52 51 51 51 50 50 51 51 50 49 47 46 43 42 41 40 40 37 34 35 34 34 34 36 34 35 37
48 51 54 57 57 60 61 61 60 59 59 59 58 56 54 52 50 51 51 51 50 49 48 49 47 47 45 43 43 42 41 39 40 35 35 31 31 33 32 35 34 36 34
49 52 55 58 60 61 61 59 59 59 59 57 54 54 53 51 49 50 50 50 49 48 47 47 46 44 43 42 42 41 40 38 38 38 34 30 28 31 33 33 35 35 34
50 52 56 57 59 58 60 59 59 58 56 53 52 51 47 47 49 50 50 49 50 46 45 43 43 43 43 42 42 39 40 39 37 37 36 36 35 32 31 33 34 35 32
50 51 55 56 57 59 59 57 54 52 52 51 51 51 50 51 50 49 48 47 47 46 44 42 43 42 43 43 43 43 42 40 38 36 36 35 36 35 34 32 32 33 33
49 49 51 52 52 56 56 56 51 49 51 51 52 50 51 48 47 46 44 44 42 41 40 39 42 43 42 42 42 40 41 41 40 39 38 37 36 35 35 33 31 31 30
47 45 45 46 48 50 52 51 48 48 50 51 51 51 48 45 43 43 43 41 40 40 41 42 41 41 40 41 41 41 41 41 40 39 39 39 38 37 35 34 32 29 28
45 43 43 46 48 50 50 49 47 47 49 50 48 47 44 45 43 43 40 42 41 41 42 41 40 40 40 40 40 41 41 41 41 39 39 39 39 36 34 32 29 26 25
43 41 43 46 48 49 50 51 48 47 48 47 46 44 44 42 41 41 42 42 41 34 37 37 36 36 37 37 38 37 39 38 39 39 39 38 38 36 33 30 28 27 24
43 42 43 46 47 48 49 52 50 45 42 42 43 41 40 40 43 40 39 38 36 35 35 35 35 35 35 36 36 35 37 37 38 37 36 35 35 32 31 28 28 27 25
42 42 43 46 48 50 49 50 48 41 40 40 41 41 42 40 36 35 35 33 34 34 34 34 34 34 34 35 35 36 34 35 35 34 34 34 33 31 30 30 28 26 26
42 43 44 47 48 48 48 47 44 41 39 40 41 43 41 35 34 34 32 34 33 35 34 35 34 34 34 37 36 35 35 34 33 34 33 32 29 30 29 28 26 25 23
41 43 45 46 46 47 46 43 41 39 39 37 39 35 32 31 31 32 33 33 33 34 34 34 35 34 35 34 34 34 33 33 34 32 32 30 29 28 26 24 22 21 19
40 43 44 44 44 44 41 41 39 39 36 35 28 29 28 30 33 34 33 34 34 34 34 34 34 35 33 34 33 30 32 32 31 32 31 30 27 23 21 19 19 18 19
41 42 42 42 41 41 41 38 37 35 32 28 27 28 31 31 32 33 35 35 35 34 34 34 34 35 34 32 32 31 30 31 30 30 27 24 25 26 22 16 19 20 20
40 40 40 40 40 39 37 35 34 32 30 28 25 27 28 28 31 33 34 34 34 33 34 34 34 34 32 32 31 29 28 28 27 25 24 23 25 26 25 27 25 24 20
39 39 40 40 39 38 35 33 30 30 27 26 23 25 27 27 30 29 29 32 34 34 34 33 33 33 33 32 31 27 25 26 26 25 24 21 18 26 22 23 23 21 22
38 40 40 39 37 34 30 30 25 25 25 24 22 23 26 26 28 30 31 33 34 33 32 31 32 34 33 34 32 28 25 26 26 25 24 23 22 22 21 20 20 18 19
40 40 38 36 32 28 27 25 23 24 21 22 22 23 27 26 28 28 32 32 31 31 31 30 30 31 34 32 30 26 26 26 26 25 25 24 22 21 22 21 20 19 19
39 37 35 32 28 26 26 25 25 22 21 22 24 25 27 28 28 30 31 31 31 29 32 31 31 32 32 31 29 27 27 26 27 25 24 24 21 21 20 19 18 18 19
36 34 28 25 25 27 27 27 24 19 20 24 26 25 27 27 29 30 30 29 30 31 31 31 31 31 31 33 29 28 26 27 27 27 25 25 22 21 21 19 19 19 20
25 24 24 25 27 28 28 22 18 19 23 25 26 26 28 27 27 29 30 30 29 29 31 30 32 30 31 32 32 30 28 27 25 25 25 26 24 23 21 19 19 20 21
22 25 29 30 30 27 24 23 25 23 26 26 26 27 27 28 27 27 28 29 28 28 29 31 29 30 31 30 32 31 29 28 26 26 26 26 24 25 23 22 22 20 20
32 33 33 31 27 24 23 24 25 26 24 26 27 28 28 28 28 27 27 28 29 29 29 28 28 29 28 28 29 28 29 28 27 26 26 26 23 21 21 21 22 22 21
35 32 29 28 26 24 25 26 23 26 24 26 27 29 29 30 28 28 28 29 29 30 28 28 28 25 24 27 28 29 29 29 29 24 23 22 22 23 22 22 21 21 21
34 31 27 27 26 23 20 21 22 23 26 29 29 31 31 31 29 27 28 30 30 30 30 30 27 27 28 29 29 30 29 27 26 23 21 19 20 24 21 19 19 19 18

GFSMW_sfc_dewp_057.txt.gz
Dewpoint
45 45 49 49 55 60 60 59 57 58 58 57 56 56 54 54 52 51 51 50 49 49 49 48 47 45 43 42 41 40 38 38 39 35 33 34 34 31 33 35 35 34 32
48 50 51 53 59 60 60 58 57 58 58 57 57 54 53 51 49 49 49 49 48 48 48 46 44 42 40 41 40 39 38 37 38 34 35 31 31 33 33 34 35 35 35
49 52 54 59 60 60 59 58 58 58 58 58 58 53 51 49 48 48 47 47 48 46 45 43 43 41 40 39 38 38 37 36 37 36 33 32 30 32 33 33 35 34 34
51 53 57 58 59 60 60 59 59 58 59 59 53 51 46 45 46 48 48 47 47 45 43 41 40 40 41 39 40 39 38 38 36 36 36 34 34 32 31 34 34 34 33
51 54 56 57 58 59 59 58 58 58 56 51 50 47 47 48 49 49 48 48 47 45 43 41 39 40 41 41 41 41 38 38 36 36 35 35 35 34 33 31 32 33 32
52 56 56 57 57 57 58 58 54 49 48 49 49 48 47 45 43 42 42 42 40 40 40 40 40 39 38 38 39 39 39 39 39 38 37 37 36 35 34 32 31 31 31
50 53 54 53 52 51 51 48 48 47 48 49 47 43 42 40 40 40 41 39 39 40 40 39 38 38 38 38 39 38 39 40 39 38 38 38 38 38 37 36 33 30 29
46 47 47 48 48 48 47 46 47 47 49 46 44 42 43 42 41 40 41 40 40 40 36 34 34 34 34 35 35 36 37 39 39 37 37 38 38 39 38 34 34 27 25
43 44 46 47 48 48 48 47 46 48 48 44 42 41 40 39 39 40 41 42 37 32 33 33 32 33 33 34 34 35 34 37 37 36 37 37 38 38 36 32 29 28 23
42 42 45 47 48 48 49 49 47 45 41 41 41 39 38 38 41 40 39 35 32 32 32 32 32 32 33 34 35 36 36 36 36 35 34 34 35 33 31 29 29 28 26
42 42 43 47 47 48 48 47 41 40 39 37 38 38 38 40 37 35 33 30 31 31 32 32 32 33 34 36 36 35 34 34 33 33 33 33 31 31 30 30 30 27 24
42 42 43 46 47 48 48 41 39 38 38 38 40 41 42 38 33 31 30 31 30 32 32 33 33 34 36 34 34 33 33 33 31 32 32 32 30 29 29 26 22 21 20
42 42 45 47 47 47 44 40 38 38 41 43 39 40 40 30 29 30 31 31 31 31 32 33 33 34 34 32 33 33 33 31 31 32 30 30 29 26 22 20 19 19 18
41 43 45 46 46 45 40 39 41 40 38 36 37 33 29 31 31 31 31 32 32 32 33 33 34 34 33 33 33 31 30 31 31 31 31 30 25 20 18 18 17 18 20
42 43 43 43 44 41 40 38 38 36 36 32 27 31 30 29 29 30 32 33 34 33 33 34 34 34 33 32 32 32 31 29 28 28 27 25 24 27 21 17 19 20 19
42 42 43 42 40 39 36 36 36 35 29 27 27 29 29 27 29 30 31 32 32 32 33 33 33 33 32 32 31 29 28 31 28 25 25 22 25 25 26 25 24 23 19
40 40 40 40 39 37 35 33 31 29 27 26 27 27 28 28 29 29 30 31 32 33 33 31 31 32 33 33 32 32 28 27 27 25 23 22 23 24 21 21 21 20 20
39 40 39 37 34 31 29 26 25 26 26 25 24 26 27 27 29 30 31 32 32 31 31 31 30 31 33 34 33 31 29 25 25 24 23 23 22 22 21 20 20 19 19
39 37 33 28 26 25 25 24 23 22 24 24 23 25 28 29 29 30 30 30 30 29 30 30 30 31 33 34 33 31 24 25 26 25 24 25 22 22 21 20 19 18 19
34 31 26 25 25 26 26 25 24 25 25 23 25 27 29 30 30 30 30 30 29 29 31 30 30 31 30 34 33 30 25 24 26 25 25 24 21 21 21 19 16 16 17
25 25 26 26 27 28 26 24 23 23 26 26 28 28 29 28 29 30 30 30 29 29 29 30 29 29 29 30 33 30 27 25 25 26 25 24 23 22 22 22 19 17 19
27 28 28 28 27 27 24 24 26 26 26 27 28 28 29 28 27 27 28 29 29 27 29 29 30 28 29 31 33 33 31 27 24 25 25 25 26 25 24 23 23 22 22
30 30 29 29 28 26 25 26 26 27 27 28 28 28 29 28 27 27 27 27 27 25 26 26 25 26 29 28 32 33 32 30 26 26 26 26 27 25 26 26 26 23 20
33 32 31 29 28 27 26 25 28 28 26 26 27 28 28 28 27 27 27 26 24 24 27 29 29 28 29 27 26 27 29 31 28 27 26 24 25 23 22 22 23 21 19
33 31 30 30 29 27 26 26 26 28 25 26 27 28 28 28 28 27 27 27 27 28 28 26 27 26 26 27 27 26 29 30 28 27 24 23 21 21 22 22 22 21 20
34 33 31 27 26 26 25 24 23 23 26 28 28 28 28 28 27 26 27 30 30 29 31 31 30 28 28 28 30 30 30 30 30 25 15 13 11 15 20 22 20 19 17

GFSMW_sfc_dewp_060.txt.gz
Dewpoint
50 53 53 52 53 57 58 58 57 57 57 56 55 54 53 54 52 51 51 49 49 49 47 47 44 43 41 41 39 39 37 36 37 33 34 34 33 33 33 35 35 34 34
43 46 49 54 58 58 58 58 57 57 56 56 56 55 54 53 51 50 49 48 48 48 46 44 42 41 40 39 38 38 37 37 37 34 33 31 32 33 33 33 35 33 34
47 49 52 58 59 58 58 57 57 57 56 56 56 53 50 49 48 48 47 47 47 46 45 43 42 40 40 39 38 38 36 35 36 36 34 31 30 32 33 33 34 34 33
49 55 58 59 59 58 58 57 57 57 56 58 56 52 48 46 47 47 47 47 46 44 43 42 41 40 41 39 40 39 38 37 36 36 36 35 34 31 31 33 34 34 33
50 56 58 58 59 59 58 58 58 58 58 58 55 51 47 46 48 48 47 47 46 45 43 41 40 40 41 39 38 39 37 38 36 36 36 34 34 34 32 32 32 33 32
52 56 58 59 59 59 58 58 57 58 57 55 51 49 47 47 47 46 44 43 41 42 41 39 39 38 38 38 38 38 38 38 38 38 37 36 35 34 33 33 32 31 32
55 56 56 57 57 57 57 56 54 49 49 48 47 46 43 42 41 41 41 40 40 41 39 39 36 36 35 34 34 34 34 36 38 37 37 38 37 37 37 36 36 34 30
54 55 56 55 55 54 54 51 48 48 46 43 42 42 41 41 41 41 42 41 41 39 39 35 33 32 33 33 34 34 34 35 37 36 36 37 37 38 38 37 35 33 26
53 53 52 51 49 47 47 47 47 48 44 42 41 41 41 40 41 42 42 43 41 36 34 32 32 32 32 34 35 35 35 35 35 35 35 36 36 36 37 36 34 31 24
48 49 50 48 48 47 47 47 47 46 42 41 40 40 39 41 41 42 42 38 35 33 32 31 31 31 34 36 35 34 34 34 33 33 33 33 34 33 31 30 30 30 32
45 47 48 48 48 48 47 47 45 42 40 39 39 39 40 41 40 37 36 33 32 32 31 32 31 32 35 36 34 34 34 33 32 32 32 33 32 31 31 32 32 27 23
43 44 47 47 48 48 46 44 42 39 37 38 40 41 41 41 39 33 32 33 31 32 32 32 32 33 36 35 33 32 33 32 31 30 32 32 31 29 27 24 21 20 19
42 42 45 46 47 47 42 40 39 37 39 42 41 44 44 32 31 32 31 31 30 31 31 32 33 34 36 33 32 33 33 33 31 31 31 30 29 27 23 20 19 19 18
42 42 45 46 47 42 39 38 40 43 44 42 42 37 33 32 31 32 31 32 32 32 33 34 34 35 34 33 33 33 31 30 31 32 31 30 29 24 20 18 17 18 19
42 45 46 47 41 39 40 42 42 43 40 34 30 32 31 31 30 29 29 30 33 33 34 34 34 34 34 33 33 32 32 29 28 30 29 26 24 25 22 18 19 20 18
44 45 46 44 43 43 42 41 38 33 28 27 28 30 30 28 30 29 30 31 31 33 33 33 33 33 32 33 33 30 28 31 32 32 30 26 25 27 27 26 24 22 18
43 44 44 43 42 41 40 35 28 27 26 26 28 29 30 28 28 28 30 30 32 32 31 31 31 31 32 34 32 32 30 30 27 27 25 22 23 26 24 24 22 20 20
41 41 40 38 36 33 29 26 24 25 26 26 26 26 27 28 29 29 30 30 32 30 29 30 31 30 31 34 34 33 27 28 27 25 24 23 23 22 22 20 20 19 18
36 33 30 28 26 24 24 24 23 24 24 24 25 26 30 29 29 29 30 30 30 30 29 29 30 30 30 34 34 32 29 25 25 26 25 24 24 24 24 22 20 19 18
26 25 25 25 25 25 24 24 25 26 25 26 31 29 29 29 30 30 29 29 29 29 30 29 30 30 29 32 34 33 26 26 26 26 25 27 22 24 23 21 19 17 17
26 27 27 26 26 25 24 23 24 25 28 29 29 28 29 28 29 29 28 28 28 27 27 29 29 29 30 29 32 34 27 27 27 25 25 25 25 24 24 24 21 18 19
27 26 25 24 25 26 29 30 31 26 27 27 28 29 29 28 27 27 27 27 26 26 24 23 26 29 28 30 31 33 33 30 27 26 26 26 26 26 26 26 25 25 24
27 27 27 28 29 28 28 26 27 26 27 28 27 28 28 28 28 27 27 26 26 24 24 25 25 26 27 27 30 32 33 33 28 27 26 26 27 27 27 27 27 24 22
31 30 29 29 29 28 25 25 27 28 27 27 27 27 27 27 28 27 27 26 25 24 25 25 25 26 27 27 28 28 28 31 31 27 27 26 26 21 22 22 23 22 20
31 31 31 29 27 26 26 25 26 28 27 27 26 27 28 28 27 28 27 27 27 27 26 26 26 23 23 25 28 28 27 25 27 28 27 25 24 24 22 21 22 22 21
32 31 30 27 25 24 23 25 27 27 26 26 27 28 28 28 27 27 28 30 29 29 30 30 29 28 29 30 30 30 31 30 31 27 21 21 19 19 19 18 19 20 19

GFSMW_sfc_dewp_063.txt.gz
Dewpoint
49 52 56 55 53 53 57 58 57 56 56 55 54 53 52 52 50 50 50 50 50 49 47 45 43 42 41 39 38 38 36 36 36 33 34 33 33 33 33 35 34 33 33
49 51 54 52 54 56 57 57 57 56 56 55 55 55 53 52 50 50 49 49 48 47 45 43 42 40 41 39 38 37 37 37 37 34 33 31 32 33 33 33 34 33 33
48 49 52 52 56 56 57 57 57 56 56 56 54 52 51 49 49 48 47 47 48 46 45 43 42 40 40 38 37 37 36 35 36 36 34 31 30 32 33 33 34 33 33
47 47 49 55 56 56 57 57 57 57 57 56 55 53 49 47 48 47 47 47 47 46 44 42 41 40 40 39 39 39 37 37 36 36 36 35 33 31 31 33 33 34 33
44 45 49 55 57 57 57 57 57 57 57 57 56 52 48 47 47 47 46 47 45 44 42 40 40 40 40 38 37 37 37 38 36 35 35 34 34 33 32 29 31 33 34
49 51 52 57 58 58 57 57 57 57 57 57 55 52 48 47 47 47 46 43 42 42 40 39 39 39 39 37 36 35 35 36 37 37 37 36 34 33 32 30 31 31 33
53 56 56 57 58 58 57 57 57 56 56 56 53 51 48 47 47 45 42 40 40 40 39 40 40 37 33 33 33 33 33 33 34 35 36 36 36 36 35 34 33 34 34
53 55 57 57 57 57 57 57 56 51 51 50 49 46 44 44 43 41 41 42 41 39 41 41 36 33 32 33 33 33 34 35 35 34 34 35 36 36 36 35 32 31 31
54 55 56 56 57 56 56 53 50 47 44 44 43 41 42 42 41 42 43 44 44 42 39 35 33 32 33 34 34 34 34 33 34 33 33 34 35 35 35 36 35 34 28
54 55 55 55 55 55 54 49 48 44 42 41 41 40 41 41 42 45 45 44 42 37 35 33 33 32 33 35 35 34 34 33 32 33 32 32 33 32 31 31 31 32 31
53 53 53 53 52 50 49 48 47 43 41 41 40 40 41 42 43 42 42 41 37 34 33 33 32 32 34 35 34 33 33 31 32 31 31 31 33 31 31 33 33 33 29
50 51 52 50 47 47 47 47 46 42 40 40 38 41 42 41 43 44 42 35 32 33 33 32 32 32 33 35 33 31 32 31 31 31 30 31 31 30 28 26 23 21 20
47 49 50 49 47 47 46 43 40 38 38 40 42 44 45 43 39 35 35 31 31 31 31 32 32 32 33 35 33 32 32 32 32 31 30 30 30 29 26 22 21 20 18
44 45 47 48 48 46 42 38 39 41 42 43 45 43 40 38 33 32 32 32 32 31 32 33 34 34 34 34 33 33 33 31 31 31 31 31 30 29 27 21 19 18 18
42 42 46 47 44 42 40 40 42 45 45 44 40 38 37 32 31 31 29 29 32 31 32 33 33 34 34 33 33 33 32 31 29 28 30 30 28 28 26 20 19 19 19
42 45 47 45 42 42 43 42 43 44 40 37 34 33 31 30 30 30 29 31 30 32 31 31 32 32 32 33 35 33 30 29 29 29 30 31 30 28 30 28 24 22 18
45 46 45 42 42 42 42 42 39 37 31 32 30 31 31 29 29 30 29 29 30 31 30 30 29 30 31 33 35 33 29 29 29 29 28 26 22 25 25 28 27 25 22
44 44 44 42 41 39 33 30 28 30 28 28 27 28 29 30 30 29 29 29 31 31 30 29 29 30 30 33 34 33 30 28 28 29 26 24 22 24 23 21 20 20 19
34 33 33 31 29 25 24 24 24 24 25 26 26 28 31 29 29 29 30 29 29 29 29 29 29 29 29 32 33 33 29 28 28 26 26 25 24 25 27 23 21 20 20
26 26 25 24 23 23 23 24 25 24 25 29 32 31 29 28 29 29 29 29 28 28 28 28 29 30 29 31 33 33 29 29 27 25 26 29 27 26 26 22 19 18 19
25 25 24 23 24 24 24 24 26 26 28 30 30 28 28 28 28 28 29 28 27 26 26 27 28 28 29 29 31 32 32 30 27 26 27 26 28 27 26 26 21 19 20
24 23 23 23 26 29 31 31 26 27 29 28 28 28 28 27 27 28 28 27 27 26 24 21 24 26 27 29 30 31 32 32 28 27 27 27 28 28 27 26 26 26 24
24 26 28 30 29 27 28 26 27 26 27 27 27 27 28 27 27 27 27 27 26 25 25 25 25 25 26 27 29 31 32 32 32 29 29 29 29 31 28 28 28 26 22
29 28 29 28 28 27 26 26 27 28 27 27 27 27 26 26 26 27 27 27 26 26 26 26 26 26 25 26 27 28 28 31 31 31 31 29 28 28 27 24 26 24 20
30 30 29 28 26 26 26 28 29 29 28 28 27 27 27 27 28 28 27 28 28 28 27 27 27 26 25 25 26 27 26 25 27 26 28 27 26 25 24 24 24 23 20
31 30 26 26 26 27 30 31 31 30 29 27 27 28 28 28 28 28 28 30 30 30 31 31 30 30 29 30 30 31 31 31 30 27 26 25 24 23 23 22 22 21 19

GFSMW_sfc_dewp_066.txt.gz
Dewpoint
53 54 56 56 54 54 57 57 56 55 55 55 53 52 52 52 52 50 50 50 49 48 47 45 43 42 40 38 38 38 36 37 36 34 35 34 34 34 34 35 35 35 35
50 52 55 55 53 53 56 57 56 55 55 54 54 53 52 52 50 50 50 50 49 48 45 43 41 41 39 39 38 37 37 37 37 34 33 32 33 33 34 34 35 34 34
50 49 53 55 53 54 56 57 56 56 55 55 55 53 53 50 49 49 48 48 48 47 44 43 41 40 39 38 37 37 37 35 36 36 34 31 29 32 34 34 34 35 35
50 49 51 54 53 54 56 57 57 56 56 55 54 53 52 49 49 48 47 47 47 46 44 42 41 40 40 39 39 39 37 37 35 37 36 35 34 32 31 33 34 35 35
50 49 49 53 54 55 55 56 56 56 56 56 55 55 53 49 48 47 46 46 44 43 42 41 41 41 41 39 38 38 37 37 36 35 35 35 34 33 32 30 32 34 35
47 47 48 53 55 55 55 55 56 57 57 56 56 55 52 48 47 46 46 44 43 41 41 41 41 39 39 38 35 35 34 35 36 37 36 35 34 33 32 31 31 31 33
46 47 51 55 55 56 56 56 57 56 57 56 57 55 51 47 47 46 44 41 41 40 40 40 41 38 36 35 34 33 32 33 33 34 35 36 36 36 35 34 33 33 32
47 50 52 55 56 57 57 57 57 56 56 56 56 53 50 49 47 45 41 41 41 40 43 43 42 36 34 33 34 33 34 35 35 35 35 35 35 36 36 35 34 33 32
48 52 54 55 56 56 57 57 57 55 54 54 52 49 49 46 44 42 42 44 42 43 44 43 40 34 33 34 34 34 34 34 34 33 34 34 34 35 36 36 36 35 30
48 53 55 55 56 57 57 57 55 53 49 48 48 46 43 42 42 43 44 44 44 43 44 39 35 34 34 34 34 34 34 34 34 33 32 32 33 33 32 32 33 33 31
51 53 55 55 56 57 55 54 51 46 44 44 43 43 41 42 44 44 44 44 44 44 38 35 34 34 33 35 35 34 34 33 32 32 32 31 32 32 31 31 32 31 32
52 53 54 54 54 53 53 51 49 44 41 40 42 42 41 41 43 43 44 44 41 38 34 34 34 34 33 34 35 34 33 32 31 31 31 30 31 31 31 29 29 28 28
50 51 52 52 51 50 50 48 44 40 39 42 42 41 42 44 43 44 43 40 34 32 33 33 34 33 34 34 34 34 32 32 32 32 31 30 30 29 29 27 24 22 19
48 50 50 50 48 48 46 43 45 43 43 43 44 44 44 43 40 36 33 32 33 32 32 33 33 34 34 34 34 33 32 32 32 31 31 30 30 30 29 28 24 21 19
45 47 48 48 46 44 44 44 44 44 44 44 44 44 40 35 34 33 32 32 32 31 32 32 32 33 34 33 33 32 32 31 31 30 29 29 29 30 28 23 22 20 18
45 43 47 46 46 44 44 45 45 45 45 44 41 37 35 31 31 31 31 32 31 32 32 31 31 31 31 34 35 34 31 30 29 29 29 30 32 32 32 32 29 21 19
43 44 46 44 44 45 44 44 44 43 40 35 33 30 31 31 30 31 30 29 30 32 31 30 30 29 30 33 35 34 32 29 29 28 29 29 27 27 24 26 28 27 25
45 44 43 42 43 42 39 37 34 32 30 30 28 30 31 31 30 29 29 29 30 30 30 29 29 29 29 32 33 34 31 29 29 29 28 28 26 24 24 23 24 22 21
34 34 35 34 30 28 28 27 27 25 26 28 28 29 31 29 29 28 29 30 29 29 28 28 28 27 28 31 32 32 30 30 29 29 29 27 25 26 28 26 23 21 20
26 26 25 25 24 23 23 23 24 27 28 30 31 31 30 30 29 29 30 29 28 27 28 26 27 29 29 30 32 32 28 30 30 30 28 29 27 28 29 26 23 20 20
24 24 24 24 25 25 25 25 27 27 30 31 30 29 29 28 28 28 28 28 27 27 27 27 27 27 28 28 31 32 30 30 29 28 28 27 28 30 30 28 24 22 21
22 23 23 26 29 30 29 27 26 28 29 28 28 28 28 27 26 27 27 27 27 26 26 24 25 26 27 29 29 31 32 31 30 28 28 28 29 30 30 29 28 26 24
25 29 28 26 27 27 28 27 27 26 28 28 28 28 27 27 26 26 26 26 26 26 26 26 26 27 27 26 29 30 31 31 29 31 30 30 30 32 31 31 30 28 26
28 28 27 26 26 27 28 29 30 29 28 28 28 28 27 28 27 28 28 26 25 26 27 27 27 27 28 28 26 26 28 29 30 30 30 30 29 28 28 29 30 29 27
29 28 26 26 27 30 29 29 28 27 26 26 26 26 26 26 26 27 27 27 27 27 27 27 28 28 28 27 30 29 29 29 28 25 24 28 27 26 25 25 26 26 25
25 26 27 28 29 26 23 24 25 24 23 22 23 24 24 23 23 22 22 25 26 27 28 27 26 25 27 28 30 32 32 33 31 27 25 26 26 25 24 24 24 24 24

GFSMW_sfc_dewp_069.txt.gz
Dewpoint
52 53 55 56 56 57 57 59 59 59 58 58 59 59 59 58 58 57 53 52 51 52 52 48 48 46 44 43 44 42 42 41 42 38 38 37 37 38 37 38 37 36 36
53 53 55 57 57 56 57 59 58 58 58 57 57 57 57 56 56 53 52 51 51 51 50 48 46 46 43 44 44 43 41 41 41 39 37 32 32 35 36 37 37 39 37
52 53 54 56 57 57 57 58 58 58 58 58 56 55 55 53 52 52 50 50 50 49 48 47 46 45 44 42 44 43 42 39 41 41 36 29 25 31 36 38 37 39 37
53 52 53 54 56 56 58 58 58 58 57 57 57 55 54 52 52 50 50 50 51 49 47 46 46 45 44 44 44 43 42 41 38 40 38 40 37 26 25 35 36 37 37
53 52 51 53 55 57 57 59 58 57 57 57 57 56 55 55 53 50 50 50 49 48 46 46 46 45 44 45 44 44 43 41 36 34 35 37 36 38 34 28 30 34 35
52 52 52 52 54 57 58 59 58 57 57 57 57 56 55 54 51 49 49 48 47 46 46 43 45 44 43 42 42 41 40 38 38 37 37 34 32 31 34 33 30 30 33
51 52 50 51 54 56 57 57 57 57 58 58 57 57 56 54 52 50 49 48 46 44 44 44 43 42 41 41 39 38 38 38 36 37 36 38 37 36 33 33 31 31 30
48 49 50 52 54 56 57 57 56 57 58 58 57 57 56 54 52 50 49 48 46 44 44 44 44 42 42 39 37 37 37 38 40 40 40 38 35 35 33 32 33 32 28
45 46 49 52 54 56 57 57 57 57 57 57 58 57 55 54 52 51 50 48 46 43 45 47 44 44 39 37 38 36 37 39 40 40 40 36 34 34 33 33 34 33 28
44 47 49 53 55 56 57 58 58 57 57 57 58 57 55 55 52 50 47 45 44 44 47 45 44 40 37 37 38 37 37 38 39 36 36 35 34 33 33 32 32 32 30
46 48 52 53 55 56 57 57 57 57 56 56 56 55 53 52 49 48 46 45 47 45 46 45 41 36 36 36 37 37 37 37 37 36 35 35 34 32 32 32 32 31 32
48 51 53 55 55 56 57 57 56 55 54 52 51 49 47 47 48 46 46 46 45 47 43 40 36 35 34 35 36 36 35 36 36 35 35 34 30 33 33 32 32 31 31
49 52 54 55 55 56 56 56 53 49 46 46 46 47 46 45 45 45 46 46 44 42 38 36 35 34 35 35 36 36 36 36 35 35 35 34 33 32 31 31 30 30 28
47 51 53 53 54 55 54 52 49 46 45 45 45 45 44 45 45 44 43 39 37 35 34 34 35 36 35 34 35 35 36 36 35 35 35 34 33 32 31 31 31 29 27
44 49 51 52 51 50 50 49 46 46 46 46 45 45 44 42 40 38 36 37 36 33 32 33 34 35 34 32 34 34 35 35 35 35 34 34 34 34 32 29 29 29 27
37 46 50 49 48 47 47 46 46 46 46 45 43 42 40 37 35 34 35 36 32 32 33 33 34 33 29 32 35 34 33 33 33 33 33 32 33 33 34 34 34 32 27
43 44 48 48 46 46 45 46 45 45 44 43 39 35 32 31 34 34 31 31 33 34 33 34 33 32 33 33 34 34 32 32 32 32 32 30 29 32 30 30 29 30 28
44 45 45 45 45 45 45 44 41 38 35 32 30 31 33 32 32 31 32 33 32 32 32 33 33 33 30 32 32 33 32 32 33 33 32 31 30 30 30 26 25 24 25
40 41 41 40 40 39 38 36 33 29 27 27 30 32 33 30 33 34 31 31 32 32 32 31 31 31 30 31 32 32 31 31 31 31 32 31 30 30 30 27 27 26 24
33 32 32 32 33 33 33 30 26 26 28 30 31 32 32 31 30 30 30 31 31 30 30 29 31 31 30 32 32 32 33 35 31 31 30 31 31 30 29 30 31 29 26
28 29 29 29 28 28 28 28 31 31 32 33 31 29 29 28 29 29 30 30 30 31 32 32 31 31 31 31 32 32 32 33 31 29 28 29 30 30 30 30 31 31 28
26 26 26 25 26 28 29 28 28 29 28 28 28 28 29 27 28 29 30 29 30 30 34 33 32 30 30 30 30 31 31 31 32 32 30 30 30 30 30 31 30 30 28
26 28 28 29 29 28 27 26 27 27 28 28 28 27 26 24 24 23 23 23 22 24 27 28 28 30 29 29 30 30 30 30 32 33 33 32 30 31 30 31 32 31 32
27 26 26 27 28 29 29 28 29 28 25 24 23 23 21 21 21 19 19 22 24 25 24 25 26 28 25 26 26 29 30 29 31 30 32 32 31 32 31 30 30 32 32
26 25 27 28 27 26 25 23 23 23 21 20 18 19 20 21 21 20 22 23 23 25 24 24 25 27 27 27 29 30 31 32 31 32 32 32 30 28 29 28 28 29 28
26 28 28 25 22 22 22 20 20 17 16 16 17 21 21 21 21 20 21 22 22 22 23 25 25 25 25 25 27 27 29 32 32 31 30 30 30 29 28 28 26 27 27

GFSMW_sfc_dewp_072.txt.gz
Dewpoint
50 51 53 53 53 54 54 57 59 62 62 59 56 57 60 61 62 62 61 59 54 55 55 51 50 48 46 44 46 45 44 43 44 40 40 39 39 39 36 36 34 34 34
48 50 51 53 54 54 56 57 58 61 60 55 55 58 60 61 61 59 58 56 55 54 52 51 49 48 46 46 46 45 44 44 44 40 38 34 33 36 35 35 34 37 35
50 49 51 52 54 53 55 55 57 58 59 58 55 58 59 59 59 58 55 53 53 52 50 51 49 49 45 44 46 45 45 43 43 42 36 28 25 26 31 35 35 37 36
46 49 50 51 54 55 55 55 55 57 59 60 57 57 55 56 57 57 54 50 51 51 50 49 50 49 45 46 45 45 45 44 40 40 36 37 34 24 22 27 31 34 35
49 47 49 51 52 55 56 58 58 59 60 61 60 58 57 57 57 55 53 51 51 51 49 49 49 48 45 46 47 46 45 42 38 32 31 32 32 33 31 30 29 29 29
49 50 49 50 51 57 58 59 58 58 59 60 60 60 59 57 55 54 53 52 51 51 50 48 49 48 46 46 46 46 45 41 36 33 32 30 28 28 29 28 27 26 26
48 50 50 51 51 54 58 58 58 57 59 59 60 60 59 58 55 54 53 51 49 49 50 49 48 46 46 45 44 43 40 38 36 35 31 33 33 32 31 30 28 25 25
44 48 50 52 52 54 57 57 57 57 58 59 59 59 59 58 56 55 52 51 50 49 50 49 47 46 43 44 43 41 38 39 38 38 36 33 33 32 31 29 28 28 26
41 45 49 52 53 55 56 57 56 56 57 58 59 59 59 58 57 56 56 53 52 49 49 48 47 46 45 45 40 38 39 38 39 39 39 36 33 34 33 31 29 28 27
41 43 45 50 53 54 55 57 56 55 57 58 58 57 58 58 57 57 55 53 51 48 48 48 47 45 44 40 39 38 38 37 37 36 37 36 34 34 33 31 30 28 27
43 43 45 48 51 54 55 56 55 54 56 58 57 57 58 58 57 55 53 51 48 47 47 47 47 48 41 38 39 38 36 36 36 36 36 35 35 34 33 32 30 29 28
44 46 47 49 51 53 55 55 56 56 56 57 57 58 56 54 51 51 49 49 48 48 49 48 45 39 36 37 36 35 33 35 35 35 35 35 31 34 34 31 31 29 28
42 47 50 51 52 53 54 54 56 56 56 56 55 51 50 50 50 49 49 48 48 48 45 42 38 36 35 34 35 34 34 35 35 35 34 34 34 33 32 31 29 28 24
37 44 49 52 53 54 55 55 56 55 53 52 51 50 49 48 47 47 46 45 43 41 39 39 36 35 34 33 34 32 33 33 32 34 34 34 33 33 32 29 29 27 26
32 39 46 51 53 55 56 55 53 51 50 49 47 47 47 46 44 43 43 42 39 39 39 35 33 35 34 30 32 30 31 31 31 32 32 34 34 36 34 28 28 28 26
33 36 44 51 52 53 54 51 50 49 48 48 47 46 44 42 41 40 39 39 38 36 33 35 37 35 28 33 34 33 30 29 28 30 30 30 33 33 34 34 33 32 28
42 43 46 50 51 52 50 50 48 48 47 45 44 42 39 37 36 34 33 34 35 37 39 36 34 32 32 34 34 34 29 28 28 28 28 26 23 30 30 31 33 33 33
45 46 48 49 50 50 50 50 48 46 45 42 38 34 33 34 34 33 33 37 39 36 34 33 32 32 28 32 33 33 30 29 28 29 29 30 30 30 30 29 28 27 26
45 46 47 48 48 47 46 44 42 40 38 34 30 31 33 33 35 38 39 35 33 32 30 29 30 30 30 32 33 32 31 30 30 29 30 29 30 30 33 31 30 28 26
40 41 43 43 43 43 41 38 36 33 30 29 32 33 34 35 36 34 32 31 30 28 28 28 30 31 32 32 34 33 34 34 34 32 32 31 30 30 31 33 33 32 27
37 39 40 40 40 40 37 33 30 28 32 34 32 32 32 31 30 29 30 30 30 31 34 34 33 31 31 30 32 32 30 30 30 28 29 32 31 31 32 32 32 32 30
35 36 36 35 35 34 33 31 31 31 31 31 30 29 29 25 27 30 31 29 28 27 29 35 31 29 29 28 28 30 30 28 30 27 28 29 31 32 32 33 31 31 31
32 32 32 32 32 31 31 30 30 29 29 29 29 27 25 24 22 24 22 21 20 23 26 27 27 27 27 25 27 28 28 29 31 31 31 29 30 31 32 32 31 31 33
31 31 31 29 29 29 28 28 29 30 27 25 25 23 20 19 17 15 17 21 24 24 22 24 26 27 24 25 25 26 28 28 31 31 32 32 30 30 32 33 33 34 34
29 29 30 29 28 27 26 26 25 25 22 20 18 18 19 20 20 19 22 23 23 24 24 25 25 26 26 23 23 23 24 27 28 31 33 32 31 30 30 32 33 33 31
28 29 28 27 25 23 21 19 18 17 16 15 17 22 21 21 20 19 22 22 21 21 22 21 23 23 21 20 21 21 21 22 23 28 30 32 34 32 30 32 32 31 31

GFSMW_sfc_dewp_075.txt.gz
Dewpoint
50 52 52 52 51 53 52 53 55 59 61 61 56 54 54 61 63 62 62 61 59 59 58 54 54 51 48 46 48 47 47 45 46 43 42 41 42 41 38 37 36 35 35
47 50 52 53 50 51 51 52 54 59 60 56 53 52 54 60 62 62 61 60 58 57 57 55 52 50 47 48 49 48 45 46 46 43 41 37 37 38 38 37 36 38 36
46 47 50 52 52 51 52 52 55 58 60 55 51 52 59 58 60 60 59 58 57 57 55 54 52 50 49 47 49 48 47 45 45 45 42 35 32 32 32 34 35 38 37
45 46 49 51 52 53 55 55 55 58 59 61 54 55 58 56 57 59 58 56 56 55 53 52 51 51 48 48 48 47 48 47 43 46 39 40 38 33 31 32 32 33 35
45 46 47 48 51 53 54 55 55 55 57 59 60 55 55 55 59 59 57 56 55 54 52 51 51 51 48 49 49 49 48 45 44 41 36 36 33 34 32 30 32 32 29
44 44 47 47 49 56 57 57 55 54 56 61 61 59 57 56 57 57 55 55 54 52 53 50 51 51 50 49 48 49 47 44 43 38 36 32 30 30 30 30 31 28 27
45 45 43 46 48 51 55 57 55 55 56 60 61 61 60 59 58 57 55 55 53 52 52 51 52 50 49 48 48 46 45 44 43 39 36 32 33 34 33 31 29 27 26
42 45 46 46 47 52 55 56 55 56 56 58 60 60 60 59 58 57 56 56 54 54 53 53 52 50 48 47 46 45 44 45 45 40 38 35 34 34 32 30 29 29 26
37 40 45 49 49 51 53 57 56 55 56 57 60 61 60 59 59 58 58 56 55 52 53 53 51 49 47 47 45 43 44 41 41 41 40 38 36 35 33 32 31 30 28
38 39 41 46 50 52 52 57 56 54 55 56 59 60 59 59 59 59 58 57 56 55 53 52 49 48 46 46 45 43 40 40 40 37 38 37 36 34 33 32 31 30 29
38 40 42 44 48 52 53 55 55 53 53 56 58 59 59 59 59 58 57 57 55 51 50 48 47 47 48 48 43 40 40 37 38 38 37 37 36 34 33 32 31 30 30
35 40 42 44 46 50 52 55 56 54 53 56 58 59 59 57 54 52 52 52 50 50 48 48 48 50 47 43 41 40 37 36 35 36 37 35 30 34 34 34 33 32 31
33 39 43 45 47 50 52 54 55 54 53 57 58 56 52 52 50 50 50 50 49 49 49 48 46 44 43 40 37 36 36 36 36 35 34 33 33 34 34 34 32 32 26
31 37 42 45 48 50 53 53 55 55 56 56 55 53 52 50 49 49 49 48 47 46 45 46 45 44 39 35 34 35 35 34 32 32 32 32 32 32 34 32 34 30 30
26 32 37 45 49 52 53 53 56 57 56 54 52 51 50 49 49 48 47 46 44 44 43 42 42 39 33 33 36 33 31 29 29 30 28 31 32 36 35 31 33 33 30
29 31 35 42 50 53 55 55 54 53 52 50 48 49 49 48 45 44 44 43 41 40 41 40 35 36 35 34 33 31 29 27 27 26 27 26 31 30 34 34 33 32 31
38 39 39 46 52 54 53 51 51 51 50 49 48 47 46 44 42 39 39 38 38 37 38 36 39 37 34 35 34 34 29 27 26 26 27 25 22 30 28 31 33 32 33
42 44 47 50 52 52 51 50 49 48 47 45 44 43 42 39 37 36 35 36 37 39 39 37 34 33 30 35 34 34 30 29 29 30 30 31 32 32 32 31 32 31 31
46 47 49 50 51 50 50 48 46 46 44 43 41 39 37 35 34 36 37 40 39 36 35 32 29 29 30 33 33 32 32 32 32 31 30 30 31 31 33 33 33 32 33
44 46 48 49 49 48 48 46 44 42 40 37 35 34 33 35 36 38 38 35 33 29 27 26 29 31 31 34 33 30 31 30 30 27 25 28 27 29 32 33 33 34 31
42 44 44 45 45 44 43 40 39 37 35 33 33 35 35 35 35 33 32 29 28 29 34 35 34 29 28 29 30 30 26 27 28 26 27 28 28 29 31 32 32 33 32
40 41 42 42 42 41 40 37 35 34 34 34 33 32 32 29 29 30 29 28 28 30 29 35 31 30 29 29 29 28 28 28 28 27 29 30 30 31 30 30 30 31 32
38 39 38 38 37 36 35 34 34 34 33 32 31 31 29 26 25 26 25 24 20 24 27 28 27 28 27 26 28 25 26 26 26 28 29 30 31 32 31 31 31 31 33
36 36 36 35 35 34 33 33 32 32 30 30 29 26 24 21 18 14 17 22 25 25 23 24 26 28 24 23 24 23 24 24 25 26 27 27 28 30 31 32 33 33 33
35 34 35 34 32 31 30 30 30 30 28 25 22 21 19 21 20 19 23 24 24 25 25 26 25 26 25 23 21 21 21 23 23 25 28 29 29 29 29 31 31 32 34
33 33 32 31 29 28 27 26 25 23 21 19 19 24 24 22 20 19 25 22 24 23 22 21 21 23 19 19 19 19 19 20 21 22 25 25 26 25 25 28 28 32 33

GFSMW_sfc_dewp_078.txt.gz
Dewpoint
53 54 54 55 55 55 55 54 54 55 55 58 55 55 55 60 61 61 60 62 62 61 60 58 56 56 52 49 50 49 47 46 47 45 46 47 45 42 40 41 39 38 36
49 52 53 54 54 54 55 56 56 57 58 58 56 54 56 59 61 61 62 62 61 61 59 58 56 55 52 51 50 49 49 48 48 45 44 41 42 42 42 41 40 39 37
49 50 51 53 53 54 54 55 56 58 58 59 58 55 58 60 60 61 61 60 60 59 59 58 56 54 52 51 51 49 48 47 48 45 43 39 36 37 39 42 39 37 38
48 50 51 52 51 52 53 53 53 58 59 60 54 53 53 56 58 60 60 59 59 58 58 57 55 53 53 51 51 51 50 47 46 47 45 43 39 36 34 36 36 40 38
46 47 49 52 52 52 52 53 54 57 58 60 60 55 58 58 60 60 59 57 57 57 58 56 55 54 53 53 51 51 48 48 45 42 39 40 40 40 36 31 33 35 35
45 46 48 50 51 54 54 55 56 57 58 60 60 60 58 57 57 58 58 57 57 56 56 55 54 54 53 52 51 50 49 45 42 43 41 38 35 33 33 33 33 32 31
45 46 46 48 51 53 55 56 56 55 57 60 60 60 59 58 58 58 57 55 55 55 54 54 53 53 52 51 50 48 46 44 43 42 41 39 36 36 36 35 33 31 31
45 45 47 47 48 52 55 55 55 54 54 60 60 60 60 58 59 58 58 56 55 54 53 54 53 53 51 49 48 47 46 44 44 41 40 39 39 38 36 34 33 31 31
41 45 45 48 49 50 54 56 55 55 55 58 61 61 60 60 59 59 58 57 56 55 55 54 53 52 48 47 47 44 43 45 45 45 42 41 40 40 38 36 34 32 30
41 41 44 48 49 51 52 56 56 55 56 57 59 60 60 61 60 59 58 58 57 56 54 53 50 48 48 46 45 45 45 46 45 42 41 40 40 39 38 35 35 35 33
40 42 43 45 50 51 53 55 56 56 56 56 58 60 60 60 60 59 58 57 55 52 49 49 48 47 47 47 46 47 46 43 42 41 40 39 40 38 37 37 36 35 33
37 40 43 45 47 52 52 54 56 56 56 56 58 60 60 59 59 56 54 52 50 49 49 49 48 48 49 50 47 44 42 41 40 40 39 39 36 36 37 37 35 34 33
33 38 42 44 45 49 54 54 56 56 56 55 59 59 58 56 55 53 52 51 50 49 49 48 48 48 47 46 45 43 42 40 40 38 37 36 35 35 35 35 35 34 32
29 33 40 44 47 50 52 54 57 57 58 59 58 56 54 53 51 50 49 49 49 48 48 47 47 46 46 45 43 40 39 37 35 36 35 34 34 34 34 33 33 32 32
28 29 33 44 47 50 54 55 58 57 57 55 54 51 50 50 49 49 49 48 47 46 46 46 46 45 43 41 39 37 34 31 30 32 32 32 35 36 34 29 30 31 30
30 33 33 41 49 52 54 56 56 54 53 51 49 50 50 49 49 47 47 45 44 44 44 44 44 42 39 34 34 33 30 30 30 30 29 30 32 30 33 34 34 32 29
34 38 40 40 53 55 54 52 51 51 49 49 49 49 47 46 45 44 44 43 42 41 41 41 41 40 39 36 35 32 31 30 30 30 30 28 26 32 31 32 32 32 33
40 43 45 52 53 52 51 51 50 49 48 48 47 46 45 44 42 41 40 39 39 38 39 41 39 36 34 36 35 34 31 31 31 32 32 32 31 31 31 29 29 30 31
44 46 49 52 52 50 50 48 47 47 46 45 44 43 42 40 39 38 38 38 40 41 38 37 35 32 33 34 33 32 33 33 31 30 29 28 27 29 30 26 27 27 28
46 48 50 51 50 49 47 46 45 44 43 43 43 42 39 37 36 38 40 42 40 38 34 31 36 33 32 32 31 28 31 28 27 27 27 28 28 29 30 27 27 27 27
45 48 49 49 50 48 47 45 44 42 42 40 38 36 35 36 38 40 38 35 33 36 35 34 31 29 30 30 31 30 28 27 27 26 26 27 29 31 31 31 29 28 29
44 45 46 46 46 45 45 42 40 38 36 35 35 36 37 34 34 35 31 31 34 34 33 31 31 31 29 29 27 26 25 25 25 24 25 26 28 29 29 29 30 31 30
42 43 43 43 43 42 41 38 36 35 36 36 35 33 31 31 30 31 31 29 27 29 31 31 30 31 28 27 27 24 24 25 24 24 25 27 27 27 28 30 31 30 30
40 40 40 38 38 38 37 36 36 36 33 33 32 31 28 25 23 20 24 28 29 30 29 29 28 28 26 25 23 22 22 22 22 22 22 23 24 26 27 26 27 28 31
38 38 38 37 35 36 35 34 34 34 32 31 27 24 25 26 26 23 26 27 25 27 28 27 27 26 24 21 20 20 20 20 20 20 21 22 24 23 22 22 24 24 26
36 37 36 34 32 31 31 31 31 29 27 23 25 29 29 27 26 24 24 27 25 24 23 21 23 24 20 18 18 19 19 19 20 20 19 19 16 17 19 20 21 21 21

GFSMW_sfc_dewp_081.txt.gz
Dewpoint
53 54 53 54 54 54 54 54 54 54 53 51 49 48 49 57 57 58 59 59 59 60 60 57 57 53 50 48 47 46 44 44 45 43 44 45 44 40 39 39 38 37 37
52 52 53 53 53 53 53 54 54 54 52 52 48 51 53 56 57 59 59 59 60 60 60 56 55 54 50 48 47 46 46 47 45 44 42 40 41 42 41 40 39 38 37
52 52 53 54 53 53 53 52 53 53 52 54 53 55 56 57 58 59 59 60 61 60 60 56 55 54 51 48 47 47 47 45 46 44 42 38 36 36 38 41 40 38 38
51 52 52 53 53 52 53 51 52 52 54 56 56 56 53 55 57 58 59 60 59 58 58 58 55 53 51 48 49 49 48 46 45 45 44 41 39 35 33 35 35 36 38
49 50 52 53 53 51 52 52 54 56 56 57 57 56 54 56 58 59 58 58 58 57 57 57 55 52 50 49 50 49 48 47 44 41 39 39 40 38 34 33 32 35 35
49 49 50 51 52 51 52 53 53 55 57 58 58 57 53 56 57 58 58 57 56 56 56 57 55 52 51 50 50 49 46 44 43 41 41 38 35 33 32 33 32 32 32
48 49 49 49 50 50 51 52 51 52 57 58 58 58 56 56 57 57 57 56 55 55 56 56 54 53 52 51 50 49 46 43 41 41 40 40 37 36 35 34 34 32 32
46 48 49 50 51 50 50 50 50 51 55 58 58 59 58 57 57 58 58 57 56 55 55 54 53 53 51 50 49 47 45 44 43 41 41 40 40 39 37 35 34 30 31
44 46 47 49 50 51 52 50 50 52 54 57 58 58 59 57 58 58 58 57 56 55 54 54 53 51 49 49 48 47 45 45 45 43 44 44 42 41 39 37 34 33 29
43 45 46 48 50 51 51 54 54 54 54 54 58 58 59 59 59 58 57 56 56 55 55 53 50 48 48 47 47 46 46 45 45 46 46 42 41 40 40 37 36 34 32
36 40 46 47 48 51 52 53 54 54 54 54 59 59 60 59 59 58 57 57 56 55 53 49 48 47 48 48 47 46 46 46 46 45 44 41 39 39 38 37 36 34 34
38 37 38 44 47 50 50 51 55 55 55 56 58 60 60 59 59 58 57 55 52 50 49 48 48 49 48 48 47 47 47 46 44 42 41 39 38 38 38 37 35 34 34
32 37 39 40 49 50 51 52 55 56 56 57 57 58 59 58 57 55 54 53 51 50 50 49 48 48 48 49 48 46 45 44 42 40 38 38 36 34 34 34 34 35 34
29 34 40 41 42 51 52 54 56 56 57 57 57 57 56 56 54 52 52 51 50 49 49 49 48 48 48 47 46 45 43 42 40 38 35 33 32 32 32 32 32 32 32
30 29 40 42 45 48 54 56 57 57 56 56 55 53 52 52 51 51 50 49 50 49 48 47 47 47 46 45 44 43 38 31 29 31 30 29 32 36 34 30 29 29 29
30 32 34 43 48 54 56 56 55 53 53 52 50 50 50 50 49 49 48 48 47 47 46 47 47 45 43 39 37 34 30 29 28 27 28 29 31 30 32 34 33 32 29
36 37 42 52 54 54 53 51 50 51 50 50 50 50 49 47 47 46 45 45 45 45 45 45 44 43 41 35 34 33 30 28 28 27 28 29 30 33 31 31 30 30 32
40 43 53 52 51 51 50 50 49 49 49 48 48 47 46 45 45 45 45 44 43 42 42 41 41 40 33 35 34 32 30 30 31 32 30 29 28 28 29 27 25 26 27
43 50 52 51 50 49 49 48 48 48 48 47 46 45 44 43 43 42 42 40 39 39 39 40 37 33 33 33 33 32 31 29 28 29 29 28 27 29 31 28 27 27 27
48 51 50 50 49 48 48 47 46 46 45 45 44 43 43 42 41 40 39 39 40 39 35 33 33 32 29 31 30 29 28 27 27 27 27 28 28 30 31 28 27 25 25
49 50 50 49 47 47 46 45 44 44 44 44 43 42 40 38 38 39 41 39 35 34 32 30 30 30 29 30 30 29 26 26 25 25 25 26 27 29 28 28 26 27 28
47 49 49 48 47 47 45 44 43 43 43 41 37 35 36 36 38 36 34 34 34 32 30 30 30 29 28 29 27 25 25 25 25 23 24 25 24 24 26 28 30 31 29
44 46 45 47 46 45 44 42 37 36 36 36 36 36 34 33 32 32 30 31 32 31 30 30 29 28 27 26 24 23 22 22 23 23 22 22 23 25 26 27 26 25 26
42 43 42 41 41 40 37 36 36 37 35 33 32 30 26 25 25 26 29 29 29 29 28 29 29 28 26 23 21 21 23 20 21 21 21 21 23 24 24 23 22 24 23
40 38 37 35 35 35 35 35 35 34 31 27 25 26 26 25 24 26 27 26 27 28 26 26 27 25 23 21 20 20 21 21 21 20 20 21 21 22 20 20 20 20 20
37 36 34 29 21 21 23 26 28 27 26 25 25 27 27 28 26 25 25 27 27 26 26 26 25 24 22 18 17 19 19 19 19 19 18 15 12 14 17 17 17 16 16

GFSMW_sfc_dewp_084.txt.gz
Dewpoint
53 54 55 55 55 54 54 53 54 55 54 53 52 52 51 52 56 57 57 57 56 59 59 59 56 53 50 48 45 44 44 44 44 43 43 44 44 40 37 37 36 37 38
51 53 53 54 54 54 53 53 53 53 51 51 49 48 48 53 55 57 57 58 58 59 60 58 56 53 50 47 47 45 45 44 45 43 42 39 40 41 39 39 38 37 38
50 52 52 52 53 52 53 53 52 52 51 50 48 52 53 55 55 56 56 57 58 59 60 57 57 53 50 47 47 45 45 45 45 44 42 38 36 36 37 39 40 39 39
51 51 52 52 52 52 53 53 52 52 51 51 49 49 48 50 55 55 56 58 59 59 60 58 55 54 52 49 47 47 46 46 44 44 43 40 39 35 33 35 35 36 37
51 51 51 52 52 52 52 53 53 52 51 52 51 50 54 54 56 56 56 57 58 59 59 58 56 55 52 49 48 48 48 46 45 44 43 40 39 37 34 32 33 34 34
50 51 52 53 53 52 52 52 51 52 51 52 53 53 53 54 56 56 57 57 58 58 57 58 56 54 52 51 49 48 48 46 44 42 41 38 36 35 35 34 33 32 33
49 50 52 52 53 52 51 51 50 51 51 52 53 55 56 55 55 56 57 57 57 56 57 57 55 53 52 50 50 50 48 45 43 42 41 39 37 37 36 34 33 32 33
49 49 51 52 52 50 49 49 50 51 53 55 55 56 57 55 56 56 58 57 57 57 57 56 55 53 52 52 51 48 47 47 47 46 45 43 41 39 38 35 34 31 30
48 48 49 51 52 52 48 49 50 52 53 55 56 57 58 57 55 57 58 58 58 57 55 56 54 52 51 49 48 48 47 47 46 46 46 45 45 44 41 38 35 33 29
46 49 49 49 50 52 52 51 52 52 52 53 57 57 58 58 57 57 58 57 57 56 55 55 52 49 48 48 48 47 47 47 47 46 45 46 45 43 43 39 37 35 33
44 46 48 50 50 51 53 53 53 52 52 50 55 57 58 59 58 58 57 57 56 55 55 53 51 49 48 48 48 48 47 46 45 46 46 45 44 43 40 39 37 35 34
43 45 46 47 48 51 53 52 53 52 52 54 54 56 58 59 58 57 57 57 56 55 53 52 50 48 48 48 48 46 46 45 45 46 45 44 42 40 38 37 36 35 35
38 41 44 46 46 48 51 52 53 54 55 55 56 57 58 58 57 58 57 56 54 52 52 50 50 48 48 48 47 47 47 46 45 44 43 41 39 37 35 34 34 34 34
30 36 39 44 46 47 49 51 52 54 55 55 56 56 58 58 58 57 57 56 53 51 50 51 49 49 48 48 48 47 46 46 44 43 40 38 35 32 31 31 31 31 31
30 30 38 42 48 49 50 51 52 55 55 55 56 55 55 56 55 54 54 52 51 51 50 49 49 49 48 48 47 46 45 42 38 35 31 30 32 35 32 29 28 28 27
29 30 36 41 46 51 52 55 54 54 55 55 53 52 51 52 52 51 50 50 50 49 49 48 47 47 47 42 43 42 40 35 30 28 28 28 31 34 34 33 32 29 26
31 35 40 46 53 54 54 54 52 52 52 51 50 50 50 48 48 48 48 47 47 47 47 47 46 46 44 40 39 35 31 29 28 27 29 30 28 30 28 29 29 28 30
41 52 52 51 50 50 51 51 51 51 50 50 49 48 48 47 47 46 46 46 46 46 45 45 44 44 39 36 35 33 30 32 32 30 29 28 26 27 29 28 27 27 27
44 51 50 50 49 49 49 50 50 50 49 48 48 48 47 46 46 45 44 45 45 44 44 43 40 36 35 34 34 33 31 28 28 28 28 27 26 29 30 28 27 26 25
51 50 49 48 48 47 48 48 48 48 47 47 46 45 45 45 44 43 43 42 41 38 36 34 34 32 31 33 32 29 28 27 25 25 26 27 27 28 29 26 26 25 26
50 50 49 47 47 47 47 45 45 45 46 45 44 44 44 43 43 43 42 40 36 33 32 31 31 30 30 31 30 28 26 26 25 24 24 25 25 24 24 26 27 28 28
49 49 48 46 46 46 45 44 43 44 44 43 42 42 40 38 39 38 37 35 33 31 30 30 29 29 28 28 27 26 26 24 24 22 23 24 22 23 25 27 25 23 26
48 49 47 46 46 45 44 43 43 41 39 37 37 37 35 33 34 35 34 34 32 30 30 29 28 26 26 25 24 23 22 22 22 21 21 21 22 23 25 22 20 24 22
44 46 45 43 40 38 36 36 37 36 33 29 27 27 28 28 28 28 29 30 30 30 30 30 28 26 24 23 23 22 23 20 20 22 21 22 23 24 23 22 22 23 21
38 37 31 27 27 29 33 34 30 28 26 26 25 25 26 27 26 25 26 26 28 29 28 27 28 24 23 23 21 21 21 22 22 21 21 21 21 19 18 19 19 18 17
26 24 23 24 23 24 25 26 26 25 24 25 26 28 28 26 26 26 26 28 28 27 27 27 26 25 24 19 19 20 20 19 19 21 19 16 14 15 17 16 16 15 15

GFSMW_sfc_dewp_087.txt.gz
Dewpoint
53 54 55 55 55 55 54 55 55 55 55 55 53 53 54 55 56 56 57 57 58 59 57 56 55 53 51 49 45 44 43 43 43 42 42 43 42 39 38 38 38 38 41
52 53 54 54 54 54 53 54 54 55 54 53 49 50 52 54 55 57 56 57 56 58 58 57 56 52 50 47 45 44 44 44 44 42 41 39 41 42 40 38 37 36 38
50 51 52 54 54 53 53 53 53 53 52 52 50 49 52 54 53 55 56 56 57 57 59 58 57 55 52 48 46 45 44 44 45 44 42 38 37 37 37 39 40 39 38
50 50 50 51 52 53 53 52 53 52 51 50 49 48 47 47 48 52 55 55 57 57 58 58 57 54 52 49 47 46 45 45 43 44 43 40 39 35 34 35 35 38 39
50 50 51 52 52 52 52 52 52 52 51 50 50 48 48 48 53 54 55 55 57 58 58 58 56 55 52 50 49 47 46 46 45 44 44 41 39 36 34 32 33 34 35
50 51 51 52 52 52 52 52 52 51 51 50 50 49 49 51 53 54 54 55 56 57 57 58 56 55 54 51 50 50 50 48 47 44 43 41 39 38 36 34 34 32 33
50 51 50 51 52 52 52 52 52 51 51 50 50 50 50 52 52 52 54 55 55 55 56 56 56 55 54 52 52 51 49 48 46 44 43 43 42 40 40 38 35 32 34
49 50 50 51 52 52 51 51 51 51 51 51 50 50 51 51 53 54 55 56 55 55 56 56 57 55 53 52 50 50 48 48 47 46 46 45 45 44 43 39 36 33 32
47 48 49 51 52 53 52 51 51 50 50 51 50 50 52 52 53 55 56 56 57 57 56 57 56 54 53 52 50 48 48 47 48 47 46 46 46 45 43 41 38 36 32
48 48 48 50 52 53 53 52 51 50 50 50 51 51 52 53 54 55 55 56 57 57 56 55 55 53 51 50 49 49 48 48 47 47 46 46 46 45 45 42 40 37 35
46 48 49 49 51 52 52 51 51 50 50 50 52 53 55 56 57 57 56 56 57 56 55 55 55 52 51 50 49 48 48 47 47 47 46 45 45 44 43 42 40 37 35
44 46 49 49 49 51 52 50 50 50 51 52 53 53 56 57 57 57 57 57 56 56 55 54 53 52 51 50 49 48 47 48 46 46 45 44 45 43 43 41 39 37 35
43 45 46 48 49 50 51 52 52 50 51 53 54 53 54 56 57 57 56 56 56 55 54 54 53 51 51 50 49 48 48 47 46 45 45 45 44 42 40 38 37 35 34
38 43 45 46 48 49 50 51 52 53 53 53 53 53 53 56 57 57 56 56 56 56 55 53 52 51 50 50 48 48 47 47 46 46 45 44 42 41 37 33 32 31 30
29 37 41 44 46 47 49 51 53 53 53 53 53 53 54 56 56 56 56 57 57 56 53 52 51 51 49 49 48 47 47 46 45 43 41 40 38 36 32 29 27 28 27
30 31 36 39 44 47 48 49 51 52 54 54 54 53 53 55 55 54 54 52 51 52 52 51 50 49 49 43 43 45 45 44 41 37 33 32 35 34 33 33 32 28 25
30 30 31 38 41 48 51 51 51 52 52 53 52 51 51 50 50 50 50 50 49 50 49 49 49 48 48 44 42 39 40 37 35 33 31 29 28 30 28 29 28 28 29
31 44 50 50 50 52 52 52 52 51 51 50 50 50 50 49 49 48 48 48 48 48 47 47 47 45 44 40 38 36 35 34 32 31 30 28 27 30 30 28 27 27 28
42 49 49 49 50 50 50 50 50 50 50 49 49 49 48 47 47 46 46 46 46 45 45 45 43 41 38 35 35 33 32 29 28 28 28 27 27 27 27 26 25 25 25
49 48 48 49 49 49 50 50 49 49 48 48 47 47 46 46 45 45 45 45 44 42 40 37 36 35 34 34 33 32 30 28 26 25 25 26 25 26 25 25 26 25 25
48 48 47 47 48 48 48 47 47 46 46 46 45 44 45 44 44 43 42 38 36 34 32 31 31 31 31 31 31 29 28 27 26 24 23 24 22 22 23 25 27 26 25
48 47 46 46 45 45 45 45 44 44 44 44 44 42 41 41 40 38 36 34 33 31 30 29 28 29 30 30 30 29 25 24 25 21 22 22 21 22 25 26 21 22 24
48 47 46 45 44 44 44 43 43 42 39 34 32 31 31 32 34 35 34 32 32 31 30 28 27 26 27 27 27 24 22 21 21 21 20 21 21 23 26 20 20 22 22
47 46 40 36 36 37 37 37 34 30 30 29 29 29 28 28 28 29 30 30 31 31 30 29 27 26 25 25 24 22 23 22 22 22 21 22 23 24 23 21 21 20 19
32 32 30 29 29 29 28 28 28 28 26 26 26 26 24 25 26 26 27 28 30 31 30 29 28 25 24 24 24 23 23 23 22 23 22 21 20 18 18 17 16 16 14
27 26 26 26 25 25 25 25 26 26 26 27 27 27 28 29 28 27 27 30 29 29 28 28 26 27 26 25 25 25 24 22 20 21 19 17 16 16 16 16 15 14 13

GFSMW_sfc_dewp_090.txt.gz
Dewpoint
51 54 55 55 56 55 55 55 55 55 55 56 56 56 55 56 56 57 57 58 58 57 56 55 55 53 52 50 46 44 43 43 43 41 41 42 41 39 38 43 44 43 43
52 53 54 55 54 54 54 54 55 55 53 55 55 55 55 54 56 57 57 58 59 58 57 55 54 53 52 50 47 45 44 44 44 41 41 39 41 43 41 39 40 41 39
50 50 54 54 54 54 53 53 54 55 53 53 53 53 53 54 53 55 56 56 57 58 58 56 55 54 52 50 47 46 45 43 44 44 42 39 38 39 40 41 39 39 39
50 50 50 53 53 53 53 53 53 54 53 52 51 52 52 49 47 52 54 55 57 56 58 58 56 55 53 50 49 48 48 46 43 44 44 41 41 38 36 37 38 41 40
50 50 50 51 53 53 53 53 53 52 52 51 50 49 49 49 51 52 53 54 55 56 56 57 56 55 54 53 50 49 47 48 46 44 44 42 40 38 36 34 35 36 36
49 50 51 51 50 52 53 52 52 52 51 50 49 49 47 48 49 50 52 53 53 55 56 57 57 57 55 53 52 51 49 48 48 46 45 43 41 39 37 36 35 34 36
50 50 50 51 50 51 51 52 52 51 51 50 49 49 48 48 48 48 50 52 53 53 54 55 55 55 55 54 52 51 51 50 48 48 46 44 43 43 43 42 40 41 39
48 50 50 51 51 51 51 51 51 51 51 51 50 50 49 49 50 50 51 52 53 53 54 55 56 56 55 54 53 52 52 50 50 47 46 45 45 44 44 43 40 36 35
47 48 50 50 51 52 52 51 52 52 51 51 51 50 50 50 49 51 53 54 54 55 54 55 55 55 55 54 53 52 51 50 49 48 47 46 45 45 45 43 40 39 35
47 47 48 50 51 52 52 52 52 51 51 51 51 50 50 50 51 51 53 54 55 55 55 55 55 55 53 52 52 51 50 49 49 48 47 47 46 46 45 43 39 39 38
46 47 47 48 50 52 53 52 52 51 50 50 50 50 50 51 51 52 52 54 55 55 55 55 55 54 52 52 51 50 50 50 49 48 48 47 47 46 45 43 42 38 38
44 47 48 48 49 51 52 52 52 51 51 51 50 51 51 52 52 53 53 54 55 55 55 55 55 55 53 52 52 51 51 49 48 48 48 47 46 45 44 43 41 40 38
44 44 48 48 49 50 51 52 51 51 51 51 50 51 52 53 53 54 55 56 56 56 55 56 56 55 54 53 53 53 52 50 49 48 48 47 45 44 44 43 41 39 37
39 44 45 48 49 49 51 52 51 50 50 50 50 51 52 53 54 55 56 56 56 56 56 55 55 54 53 53 52 51 50 50 50 49 47 46 45 44 43 41 39 37 35
30 40 44 46 48 49 50 51 52 52 50 50 50 50 51 53 53 54 55 55 56 57 56 56 55 53 52 52 51 50 49 48 47 46 45 44 43 41 40 37 35 33 29
28 29 37 43 46 48 49 50 51 52 53 52 50 51 52 52 52 53 54 56 56 56 56 53 52 51 52 46 44 47 48 47 45 41 39 38 38 36 35 34 32 31 29
29 30 31 37 41 45 47 48 49 51 52 52 51 51 52 52 54 53 54 54 53 52 52 52 51 51 51 43 43 42 46 44 40 36 35 34 33 32 30 30 29 28 29
30 31 38 47 50 51 51 51 52 52 52 51 51 51 51 50 50 51 51 49 49 49 48 47 46 45 42 39 38 38 39 37 36 36 34 31 29 30 29 28 27 27 26
38 48 49 49 50 50 50 51 50 50 50 50 50 50 50 48 48 47 46 46 46 45 44 43 41 39 37 36 36 35 34 32 31 30 29 28 28 29 29 26 25 24 25
48 48 49 48 49 50 50 50 50 49 48 48 47 48 47 47 45 46 45 45 43 40 38 36 36 35 34 34 34 32 30 27 27 28 28 29 28 27 25 25 25 25 25
47 47 47 47 48 49 49 47 47 45 46 46 45 45 44 44 43 41 40 38 35 33 31 30 30 31 31 32 33 32 30 29 28 27 24 23 23 24 25 26 27 25 23
47 47 46 46 47 47 47 45 44 44 42 39 38 38 38 38 37 36 35 34 32 30 30 29 28 28 29 30 30 30 29 29 27 25 23 24 24 25 27 27 23 21 21
46 47 45 44 44 44 44 42 37 35 35 34 33 33 33 33 34 33 33 32 31 30 29 28 26 26 26 27 28 28 26 25 24 24 24 24 24 25 26 22 21 22 20
41 39 39 37 35 36 34 33 33 33 31 30 30 29 28 29 30 30 31 31 31 30 29 28 26 26 25 25 25 25 25 26 25 24 24 23 24 26 23 23 22 20 19
31 30 30 28 27 27 27 28 29 28 26 25 25 26 28 28 28 28 29 28 29 31 29 28 28 26 24 24 26 25 24 24 24 24 23 23 23 22 21 20 20 19 18
28 27 27 26 26 26 27 28 28 28 28 28 29 30 30 29 27 27 27 30 30 30 29 29 27 27 27 27 27 26 26 26 25 22 20 19 18 17 18 17 17 16 15

GFSMW_sfc_dewp_093.txt.gz
Dewpoint
51 52 55 56 56 56 56 56 56 57 57 57 57 57 57 58 59 59 59 59 59 58 58 56 57 55 52 50 49 47 47 44 44 41 41 42 42 43 43 46 46 46 47
50 52 52 55 55 55 56 56 56 56 56 56 57 57 57 57 58 59 59 59 59 58 57 56 56 55 54 52 50 48 48 47 47 41 41 39 41 42 42 41 45 47 44
50 51 53 54 55 54 55 55 55 56 56 56 56 56 56 56 57 57 58 58 58 57 57 57 56 57 55 54 52 50 48 47 46 47 44 42 39 42 44 45 41 44 45
50 50 52 53 53 55 55 54 55 55 55 54 54 55 54 54 54 56 56 57 58 59 58 57 56 56 56 55 54 53 52 50 45 45 45 46 45 41 41 42 44 43 42
50 50 50 52 54 55 54 54 54 54 54 54 54 53 52 54 53 55 56 56 56 57 58 59 58 58 56 57 56 54 52 53 51 48 47 45 43 43 41 40 40 40 41
50 50 50 52 53 54 54 54 54 54 53 53 53 54 53 53 50 52 53 55 55 57 57 57 58 58 58 57 57 57 55 54 54 51 50 47 45 44 44 42 40 40 40
49 50 50 50 51 52 54 53 54 53 52 52 52 52 53 53 52 51 52 53 53 54 55 57 58 57 59 58 58 57 56 55 54 53 50 49 49 48 46 45 45 42 41
49 49 50 50 50 51 52 53 52 52 52 52 52 52 51 50 51 52 52 53 53 53 55 56 56 57 58 58 58 57 57 56 54 52 50 52 50 49 47 46 45 41 41
48 49 50 51 51 52 51 52 51 52 52 53 52 52 52 51 50 52 53 53 53 53 55 56 56 57 57 57 57 58 57 57 56 55 52 53 52 50 48 48 46 46 43
47 48 49 51 51 52 52 52 52 51 52 53 53 52 52 52 52 53 53 53 54 55 55 56 56 56 57 57 57 57 57 56 56 54 52 51 51 50 50 49 46 47 45
45 47 49 50 51 52 53 53 53 53 53 53 53 53 52 52 53 53 53 53 54 54 54 55 56 56 57 57 56 56 55 52 52 51 51 50 50 49 48 48 46 44 44
45 47 48 49 50 51 52 52 53 53 53 53 53 53 54 53 53 54 53 54 54 56 56 55 55 56 56 56 54 53 54 52 52 51 50 50 50 48 48 49 45 45 42
43 47 48 48 49 50 52 52 52 52 53 53 53 53 54 53 53 53 54 54 54 54 54 55 56 56 56 55 56 55 54 52 52 52 50 50 49 48 48 48 48 46 41
39 44 47 48 49 50 51 52 53 53 53 52 52 52 53 53 53 54 54 55 55 54 55 56 56 57 57 56 56 54 54 53 53 54 52 50 50 48 49 47 45 43 40
31 41 44 47 49 50 51 52 53 53 53 52 53 53 53 54 54 55 55 55 56 57 57 58 58 57 57 56 55 54 54 53 52 51 50 49 49 47 46 45 42 40 37
31 32 39 45 48 50 51 52 52 53 53 52 52 52 52 52 54 55 56 56 57 57 58 57 57 56 55 48 45 48 52 51 50 47 42 42 41 39 37 37 37 37 35
33 34 34 40 46 48 50 51 52 54 53 52 51 51 51 51 53 54 55 55 56 57 57 56 55 54 51 44 43 41 47 45 41 38 38 36 35 35 34 33 32 32 32
34 34 36 44 49 50 50 51 52 53 53 53 53 53 53 53 54 54 55 53 51 50 48 46 45 42 38 38 39 38 39 37 36 36 34 33 32 33 32 32 31 31 32
36 43 47 49 50 51 51 52 52 52 52 52 52 52 52 51 49 48 47 47 45 42 41 40 38 36 35 35 35 35 33 31 31 31 31 31 31 31 32 30 29 28 28
48 49 49 50 50 51 51 51 50 48 47 47 48 48 48 47 46 45 43 40 38 36 35 33 33 34 33 34 33 31 30 29 28 28 28 29 28 29 28 27 26 25 26
47 48 48 49 49 49 48 47 46 45 45 45 45 44 44 42 41 40 38 36 34 32 31 30 30 31 31 32 32 31 30 29 27 26 25 26 28 28 27 28 28 28 27
47 48 47 47 47 46 45 43 41 40 39 39 39 38 38 37 37 36 34 33 32 30 29 28 28 29 29 30 30 30 30 30 28 26 26 26 27 27 28 28 26 25 25
44 44 43 41 41 42 41 38 37 36 35 34 32 32 32 32 33 33 32 31 30 29 28 27 26 26 26 27 29 28 27 27 26 26 25 25 26 26 28 27 25 22 23
38 35 32 31 30 32 33 33 32 32 31 31 31 30 30 30 30 29 30 31 31 30 29 28 26 26 25 25 26 26 27 27 26 25 25 25 25 26 26 25 24 24 22
32 31 30 29 28 29 29 29 29 31 30 30 29 29 28 28 28 28 28 27 29 30 29 29 29 28 26 26 27 26 25 25 24 24 23 23 21 22 23 22 21 21 20
29 29 29 29 29 29 29 29 30 31 30 30 29 30 29 28 27 27 27 28 27 27 27 27 27 27 27 26 24 23 22 22 22 21 20 20 20 18 17 18 18 16 15

GFSMW_sfc_dewp_096.txt.gz
Dewpoint
49 51 54 56 57 58 57 57 58 58 59 59 58 59 58 60 61 61 61 61 59 58 58 54 56 54 52 52 52 51 50 48 47 43 43 44 45 46 44 47 50 50 49
49 51 53 55 57 56 57 57 57 58 57 58 58 59 59 59 60 60 60 60 60 58 57 56 56 55 52 53 53 52 49 49 48 45 42 40 41 42 43 43 45 48 44
48 50 52 54 56 56 56 56 56 57 57 58 57 57 58 58 58 59 59 59 60 58 58 55 55 56 54 53 54 52 52 49 48 48 44 42 42 43 42 44 43 46 46
47 49 51 52 55 55 56 56 56 56 57 57 56 56 55 54 56 58 58 59 59 58 58 56 56 57 55 55 54 52 53 51 48 48 47 50 48 44 44 45 44 44 45
47 49 50 52 54 55 56 56 56 56 56 56 56 56 55 54 58 57 57 58 58 58 58 58 57 57 56 57 57 55 55 52 51 49 49 48 47 47 45 45 44 44 43
48 49 50 51 53 56 56 56 55 55 55 55 56 55 55 54 55 56 56 56 57 58 57 57 57 58 56 56 57 58 58 56 55 53 53 51 50 47 47 47 48 50 46
48 49 49 49 52 54 55 55 55 54 55 56 55 55 55 55 54 54 55 53 53 55 56 57 58 57 57 57 58 58 58 58 56 57 55 54 53 52 50 48 49 48 47
48 49 49 49 51 53 54 54 54 54 54 54 54 54 54 54 54 54 53 54 52 52 55 55 55 56 56 58 59 60 58 58 58 58 57 56 57 53 50 49 49 47 46
46 48 49 50 50 53 54 54 54 54 54 54 54 53 53 53 53 54 54 52 53 52 54 56 56 56 56 56 58 57 57 58 59 58 59 57 54 53 53 52 50 49 46
44 47 48 50 50 52 53 55 54 53 54 54 54 53 53 53 53 53 53 53 53 52 52 54 55 55 55 55 56 56 56 56 57 57 57 57 56 55 55 53 50 49 48
43 46 48 50 51 51 52 54 54 52 53 54 55 55 54 54 54 53 53 53 54 53 53 53 54 54 54 54 56 56 55 55 56 57 58 57 56 55 54 52 51 49 49
42 44 47 49 50 51 52 53 53 53 53 53 54 54 55 54 54 54 53 54 53 54 54 54 53 53 53 55 56 56 55 56 56 56 55 54 53 53 53 51 50 49 49
41 43 46 48 49 50 51 52 53 54 54 53 54 54 55 54 54 54 54 54 54 54 54 54 54 54 54 54 55 57 56 55 56 56 55 54 52 51 51 51 49 50 49
38 43 45 46 48 49 51 51 52 53 53 53 53 54 54 54 54 55 55 55 55 54 54 54 54 54 54 53 54 56 56 57 57 57 54 54 53 51 51 50 49 49 48
31 37 43 45 47 48 50 51 52 53 53 53 53 53 54 54 55 55 55 55 54 54 53 54 54 55 55 56 56 57 57 56 55 54 53 54 51 47 47 49 49 47 43
31 32 36 42 46 48 50 51 52 53 54 52 53 53 54 53 54 54 54 54 54 54 55 55 56 56 57 49 46 50 55 53 51 50 43 40 40 38 37 36 35 38 38
32 33 34 37 44 48 50 51 52 54 54 54 53 53 53 53 53 53 54 54 55 56 56 56 54 47 41 39 43 41 46 42 40 38 38 36 35 35 34 34 33 33 33
32 33 36 37 41 46 50 52 52 53 54 53 52 53 53 53 52 53 53 54 52 49 46 43 40 38 36 37 37 36 36 34 34 34 33 32 32 33 33 32 31 31 31
35 36 38 43 48 48 50 51 51 52 53 53 53 53 54 53 51 49 48 45 42 38 37 36 36 34 34 34 34 33 31 30 29 30 30 29 29 31 32 30 30 30 30
46 46 47 49 50 51 52 51 51 50 49 48 48 47 47 46 43 41 39 37 36 34 33 32 33 33 33 33 33 31 30 28 27 27 28 28 28 29 29 30 30 28 29
49 49 50 50 50 51 49 47 46 44 43 42 41 40 40 38 38 36 35 34 32 31 30 29 30 30 31 32 32 31 30 29 28 26 25 26 28 28 28 29 31 30 30
47 48 47 47 47 46 44 41 39 38 37 36 36 36 36 34 34 34 33 31 31 29 29 29 28 28 29 29 30 29 29 29 29 28 29 28 27 26 28 28 27 25 26
40 38 37 38 39 40 39 36 36 35 35 35 34 33 33 32 33 32 32 31 30 29 28 27 26 26 27 27 28 28 27 27 28 27 25 25 25 26 28 26 24 24 26
36 35 34 33 33 34 34 34 35 35 34 33 33 32 31 30 29 29 30 31 30 29 28 27 27 28 27 27 27 27 27 25 25 25 24 25 26 26 25 26 25 24 23
34 33 32 32 32 32 33 35 35 34 32 31 31 30 29 28 27 27 28 27 29 30 30 29 29 27 25 25 24 23 23 24 23 25 24 22 20 20 20 20 22 21 18
32 31 31 31 31 32 32 33 33 33 31 31 30 31 30 29 27 25 25 27 26 26 25 26 25 24 22 21 20 20 18 18 18 20 19 20 20 19 17 18 18 17 17

GFSMW_sfc_dewp_099.txt.gz
Dewpoint
44 50 52 55 56 58 58 58 59 59 60 59 60 60 60 61 62 63 62 61 60 59 58 54 57 56 53 54 55 54 55 51 51 45 45 46 47 47 46 50 51 51 51
44 49 52 54 56 56 58 57 58 59 59 59 59 59 60 61 61 62 61 60 60 59 58 57 57 56 54 55 56 56 52 51 51 47 45 44 43 45 46 46 50 54 50
42 48 51 54 56 56 57 57 57 58 58 58 59 59 59 59 59 60 60 60 59 58 57 57 57 57 56 55 56 56 54 50 50 54 47 43 43 44 45 48 47 50 51
38 47 50 52 55 56 57 57 57 57 58 58 57 58 57 56 58 59 59 59 59 57 57 57 57 58 56 56 57 55 56 54 50 50 48 51 50 47 47 46 47 47 48
39 46 49 51 53 56 56 57 57 56 57 58 58 57 57 57 58 59 59 59 59 58 57 56 58 59 57 58 58 57 57 55 54 50 49 51 50 52 48 47 47 47 46
41 45 49 50 52 56 56 55 56 55 57 57 57 57 56 56 58 57 57 57 59 59 59 57 58 59 58 58 59 59 57 56 56 55 54 51 50 49 50 49 51 51 52
43 46 48 49 51 55 55 56 55 55 56 56 56 56 56 55 56 57 57 55 56 57 57 57 58 57 58 58 59 59 59 59 58 57 56 57 55 55 54 52 50 51 52
43 46 47 49 50 54 55 55 54 54 55 56 56 56 56 54 53 56 57 56 55 57 57 55 55 55 57 57 58 60 58 58 60 60 59 57 57 57 56 53 50 49 51
42 45 47 49 49 53 54 55 54 54 55 56 56 56 55 54 53 55 56 56 57 56 57 57 56 56 56 57 56 56 56 58 59 61 61 59 59 58 58 57 53 51 48
40 44 46 49 50 52 53 55 54 53 54 55 55 54 54 55 54 56 56 57 57 55 56 57 56 56 55 56 56 56 57 58 59 59 59 58 57 56 57 55 54 52 51
38 43 45 48 50 52 52 54 53 52 53 54 55 56 54 54 54 55 56 56 56 55 54 55 55 55 56 56 57 57 57 56 56 57 57 57 57 58 58 57 56 54 52
36 41 45 47 49 50 51 53 54 52 53 54 54 55 55 54 54 55 55 56 56 56 55 54 53 54 54 56 56 56 55 56 56 56 57 57 56 56 56 57 54 54 53
39 42 44 46 48 50 51 51 53 52 52 52 54 54 55 55 54 55 56 56 56 55 55 54 55 54 55 55 56 56 56 56 56 57 57 56 55 55 56 55 53 53 52
34 40 43 45 47 50 51 51 52 53 52 52 52 53 54 55 55 55 55 57 56 54 54 55 55 56 54 53 54 53 55 56 56 57 56 56 56 55 54 54 52 51 50
31 37 41 44 46 48 50 51 52 53 53 52 52 53 54 55 55 55 56 55 55 54 54 54 54 54 53 52 54 53 54 55 56 56 52 41 40 38 38 44 47 48 47
27 30 36 41 44 46 48 50 51 53 54 53 53 53 54 54 55 55 56 55 55 54 54 54 54 55 49 38 41 48 53 47 45 42 38 37 36 35 34 34 34 33 36
28 29 32 36 41 46 48 49 51 52 53 53 52 53 53 53 54 54 54 54 55 55 49 45 43 39 39 38 38 38 38 36 36 35 34 33 34 34 33 32 32 32 32
30 31 33 36 38 44 48 50 51 52 53 52 52 52 53 53 53 53 51 47 44 41 39 37 36 35 35 35 35 34 33 32 32 31 31 31 32 33 32 31 31 31 31
37 36 39 36 39 42 47 49 50 52 53 52 52 52 53 52 49 45 42 39 37 35 35 35 34 33 33 34 33 32 30 29 29 30 30 29 29 30 31 31 30 30 30
43 42 44 47 47 47 49 50 51 52 50 48 47 46 45 42 39 37 36 34 34 33 32 32 32 33 32 33 33 31 30 29 28 28 28 28 28 28 28 30 30 30 30
47 48 48 50 51 51 50 47 45 43 42 41 39 38 37 36 35 34 33 32 31 30 30 29 30 30 30 30 31 31 31 30 28 27 26 26 27 27 28 28 27 27 27
47 48 48 48 47 46 43 40 38 38 38 36 36 35 35 34 33 32 32 31 30 29 28 28 28 28 29 28 28 28 29 30 30 28 27 26 26 27 27 27 25 24 26
40 41 40 40 40 40 38 36 36 36 35 34 33 33 33 32 32 31 31 30 29 29 29 28 28 28 29 30 29 27 27 27 26 26 25 24 25 26 27 24 23 25 24
38 37 36 35 35 36 36 36 36 34 33 32 31 31 30 29 29 29 30 31 30 30 29 29 28 27 25 25 26 25 25 25 24 26 25 25 24 26 26 23 24 26 23
35 34 34 34 35 35 35 35 35 34 32 31 30 29 28 27 27 27 27 26 28 30 28 27 27 25 23 23 21 20 20 21 20 23 21 20 18 17 16 17 17 17 17
34 33 34 34 34 34 34 34 34 33 32 31 30 30 29 27 24 23 24 25 24 23 24 23 23 20 19 18 18 17 16 16 16 18 17 18 17 15 12 12 11 11 10

GFSMW_sfc_dewp_102.txt.gz
Dewpoint
41 52 53 56 57 59 58 58 59 60 60 60 60 60 60 61 63 63 61 61 61 60 58 56 57 57 57 58 57 55 53 52 53 50 49 48 48 50 50 52 52 52 53
43 51 53 55 57 57 57 57 59 59 59 59 59 60 60 60 61 63 61 61 60 59 56 56 56 55 56 56 55 54 53 54 54 50 48 45 46 47 48 49 51 53 52
43 50 52 55 57 56 56 57 57 59 59 59 59 59 60 60 60 61 61 60 59 58 57 57 57 56 55 56 55 55 54 53 52 50 49 46 44 45 47 47 48 49 53
33 49 52 54 56 56 56 56 57 58 59 59 58 58 58 57 59 60 60 60 59 58 58 59 58 57 56 55 56 56 55 53 50 51 51 51 51 48 45 46 47 48 48
34 48 50 53 55 56 56 56 57 58 57 58 58 58 57 58 59 59 58 58 58 57 57 58 57 56 56 57 56 56 55 55 52 50 50 50 50 52 49 47 45 46 46
36 46 50 52 53 57 56 56 56 56 58 58 58 58 57 57 57 57 57 57 57 57 57 56 58 58 58 57 57 57 55 56 55 53 52 51 49 48 49 48 48 48 49
42 45 48 50 52 56 56 56 55 55 57 57 58 57 57 57 57 57 57 57 56 56 56 56 58 58 57 57 58 57 57 56 56 56 56 54 52 53 52 51 50 50 50
44 45 48 50 52 55 55 55 55 54 56 57 57 57 56 57 57 56 57 57 56 56 56 56 57 57 56 57 57 57 58 58 58 56 56 56 56 56 54 52 51 49 50
42 45 48 51 52 55 55 56 55 53 55 56 56 56 56 55 56 56 56 56 57 57 57 56 56 57 57 57 57 56 57 57 56 56 56 56 57 57 57 55 54 52 49
41 45 47 51 52 54 55 56 55 54 54 56 56 56 56 55 54 57 56 56 56 56 57 56 55 54 54 55 56 55 55 56 56 57 56 57 57 57 57 57 56 55 52
39 44 46 50 51 54 55 55 55 54 55 56 56 56 55 55 54 54 56 56 56 56 56 56 56 55 54 55 55 54 54 54 54 56 56 56 56 57 57 57 57 55 54
37 43 46 50 50 52 54 54 55 54 55 56 55 54 55 55 54 55 53 54 56 56 55 56 55 55 54 54 54 55 54 55 55 55 56 55 55 56 56 56 56 56 54
36 40 45 48 49 51 52 54 54 53 54 54 56 55 55 55 55 55 56 56 56 55 54 55 54 54 54 54 55 55 55 54 54 55 54 54 55 55 54 55 55 55 55
34 41 43 47 49 51 52 52 54 53 53 54 54 55 55 55 55 55 55 56 56 56 55 55 55 55 54 54 54 53 54 54 55 54 46 41 40 40 42 47 47 49 50
29 35 42 45 48 50 52 52 54 53 53 52 54 55 56 56 56 56 56 56 56 55 55 55 55 55 55 50 49 54 54 51 45 41 38 38 37 36 35 37 36 38 41
28 27 37 42 46 49 51 52 53 53 53 52 53 54 56 56 56 56 56 56 56 56 56 54 49 43 41 38 41 45 42 41 39 37 36 36 36 34 34 33 33 33 34
28 28 34 38 45 48 50 52 53 54 53 53 53 53 54 54 55 56 56 56 53 46 42 40 39 37 36 36 37 37 36 35 34 34 34 33 33 34 33 33 32 32 33
28 32 38 40 41 47 49 52 52 54 54 54 53 53 54 54 54 53 45 42 40 38 36 35 35 34 34 34 34 33 32 32 32 32 31 30 30 32 33 32 31 30 31
38 42 43 44 42 45 49 50 50 52 53 53 53 53 54 48 43 40 38 37 36 35 34 34 33 32 33 33 33 31 30 29 29 30 30 29 28 29 31 31 30 30 30
47 45 46 47 48 51 51 50 51 52 48 47 46 43 42 40 37 36 35 34 33 32 32 31 32 32 32 33 33 31 30 29 28 28 28 28 27 29 30 27 26 24 25
48 49 50 50 49 47 46 44 43 42 40 39 38 37 36 35 36 34 32 32 31 30 29 29 29 29 29 31 32 32 30 30 29 28 25 26 28 27 27 25 25 25 26
44 46 46 45 45 44 41 39 37 38 37 37 35 34 34 33 32 32 31 30 30 29 28 28 27 28 28 28 28 28 29 28 26 25 25 26 28 26 25 25 25 25 25
39 39 39 38 38 39 38 36 36 36 35 34 35 33 32 32 32 31 30 30 29 29 28 28 27 28 29 27 27 27 27 28 26 26 26 26 25 25 26 25 24 22 21
37 37 36 36 36 36 36 35 34 33 32 31 30 30 30 29 29 30 30 30 29 29 27 26 24 23 22 21 22 23 23 23 25 25 23 21 21 20 20 19 18 18 16
36 36 36 36 35 35 34 33 33 32 29 28 28 27 26 25 24 25 25 25 27 26 24 23 23 21 20 20 19 18 19 20 21 22 19 17 16 14 13 13 12 12 11
35 36 36 35 35 35 34 35 33 31 30 28 27 26 25 24 22 21 22 25 24 23 22 21 19 19 18 17 17 15 15 16 17 16 14 13 12 11 10 10 9 10 9

GFSMW_sfc_dewp_105.txt.gz
Dewpoint
46 50 53 56 58 58 58 58 59 60 58 57 57 57 59 62 62 61 62 62 61 61 61 60 60 61 58 59 57 54 50 49 48 47 47 47 47 49 50 52 52 52 52
48 51 54 56 57 57 57 57 58 59 58 58 58 58 58 59 63 62 62 61 61 60 59 58 58 59 59 58 56 53 52 50 52 47 47 44 44 46 47 49 51 52 52
49 52 54 55 56 56 56 56 58 58 57 59 59 58 58 59 59 61 61 61 60 60 57 57 56 58 59 56 55 52 52 51 52 47 47 45 43 44 46 46 47 50 52
50 52 54 56 56 55 56 56 57 58 59 59 58 58 57 57 59 58 61 60 60 59 57 57 56 56 58 56 55 54 53 51 49 50 50 50 49 45 42 45 46 47 48
50 51 53 55 55 55 56 56 57 58 58 58 58 57 57 58 59 60 60 60 60 59 57 58 57 57 56 56 54 56 56 53 52 50 49 48 49 49 47 43 43 46 47
48 51 53 55 55 55 55 56 57 57 57 57 58 57 57 57 57 59 58 59 59 58 57 58 57 57 57 57 57 56 56 56 54 51 51 49 48 47 48 46 46 45 46
48 50 52 54 54 55 55 56 56 56 57 57 57 56 57 57 57 57 57 57 57 57 57 57 57 58 58 58 57 56 56 56 56 53 52 52 50 50 49 48 47 47 49
48 50 51 53 55 54 55 56 55 55 57 57 57 57 57 57 57 57 56 57 56 57 57 56 57 58 58 57 57 57 57 56 56 56 56 55 54 54 53 51 48 47 47
47 50 50 52 55 54 55 55 54 55 56 56 56 55 56 57 57 57 56 56 56 57 56 55 55 58 58 57 56 56 56 56 56 56 56 56 56 56 56 55 53 52 49
45 48 49 52 55 54 54 54 55 54 55 56 56 56 56 57 57 57 56 56 56 55 56 55 54 56 57 56 56 55 56 55 56 56 55 55 55 55 56 55 55 54 53
43 48 49 51 54 54 54 54 54 53 55 55 56 56 55 55 56 56 56 56 56 55 56 55 54 55 56 56 55 54 54 54 54 55 55 55 55 56 56 56 56 55 55
43 46 49 51 53 54 54 54 54 54 54 55 56 55 55 54 54 56 56 56 55 56 56 56 55 55 54 54 54 54 54 54 53 53 54 54 55 55 55 56 55 55 55
32 44 48 50 53 53 54 54 54 54 54 55 55 55 55 54 52 54 55 55 56 55 56 56 55 55 55 54 54 54 54 54 54 55 54 52 50 52 48 50 51 51 52
35 42 48 49 52 52 54 54 54 54 55 55 54 54 54 55 54 54 53 52 56 56 54 56 56 56 55 54 54 54 54 55 50 45 42 40 39 39 42 41 40 43 44
27 29 43 48 50 51 53 53 54 54 54 55 55 54 55 55 55 54 55 55 55 55 55 55 55 54 52 47 51 54 52 45 40 39 37 37 37 36 36 37 35 37 37
27 26 30 45 49 51 52 53 53 53 54 54 54 55 55 55 55 54 54 55 55 55 52 45 44 41 39 38 41 43 41 39 37 36 36 36 35 34 34 34 33 33 33
46 38 29 30 48 52 51 52 53 53 53 53 54 55 55 55 55 55 55 54 47 42 40 38 37 36 36 36 37 36 36 35 34 34 33 32 33 34 33 33 32 32 31
47 48 47 46 42 51 52 52 53 52 53 53 53 54 55 55 55 51 44 41 39 38 36 35 34 34 34 34 34 34 32 32 31 31 31 30 31 32 32 32 31 30 31
47 49 50 49 48 50 54 56 54 53 53 52 52 53 54 46 43 40 38 37 35 34 33 33 33 32 32 33 32 31 30 29 29 30 30 30 30 30 29 27 25 25 27
46 48 47 46 45 44 52 52 52 51 46 43 43 43 42 40 38 36 34 34 33 32 31 31 32 33 32 33 32 31 30 28 28 28 29 29 27 27 25 25 24 24 25
43 45 43 41 42 42 43 42 41 40 41 41 40 38 37 35 34 34 33 31 30 29 29 29 29 30 31 32 32 31 29 28 26 25 26 27 27 26 27 27 24 22 22
40 40 39 39 39 39 41 40 38 38 39 38 38 36 35 34 33 32 31 30 29 28 28 27 27 28 29 29 29 28 27 26 26 25 26 27 26 25 24 21 20 20 19
38 38 38 37 37 37 38 38 38 38 38 37 36 35 34 33 31 30 30 29 29 28 28 27 25 25 25 25 25 27 28 27 24 22 22 21 21 19 18 17 16 16 14
36 36 36 36 35 35 34 34 34 34 33 32 31 31 31 30 31 31 30 29 28 26 25 23 21 21 21 21 22 22 22 24 21 20 18 17 17 15 14 14 14 13 12
36 36 36 34 34 33 33 33 32 31 29 28 27 26 26 25 25 25 25 23 25 25 23 22 21 20 19 20 20 20 21 20 19 16 14 13 12 11 10 10 10 10 10
30 33 35 34 34 34 32 32 31 30 28 26 25 24 23 22 21 20 22 26 25 25 24 24 22 21 20 18 18 18 19 18 15 12 10 8 8 8 8 8 8 8 8

GFSMW_sfc_dewp_108.txt.gz
Dewpoint
37 51 56 56 57 58 58 58 57 58 58 56 59 61 60 61 61 62 62 63 63 62 61 57 57 56 54 52 55 55 52 50 49 48 47 48 50 52 53 53 53 53 53
49 53 56 56 57 57 57 57 58 58 57 57 57 58 60 61 61 62 62 63 62 62 61 59 57 56 55 56 56 53 51 50 48 47 46 44 44 47 49 52 52 52 52
49 53 56 56 57 56 56 57 58 59 58 57 57 56 58 59 60 61 61 62 61 61 61 60 58 58 57 58 56 53 51 49 50 47 46 43 42 44 46 47 51 52 52
49 52 54 56 56 56 56 57 58 58 58 58 57 56 55 56 58 61 60 62 61 60 60 60 59 59 58 57 56 53 52 50 47 49 49 48 47 45 43 45 46 48 51
48 52 54 55 56 55 55 56 58 58 58 58 58 57 57 57 56 58 60 60 61 60 58 58 59 60 59 58 55 54 55 53 51 48 49 49 49 49 44 42 43 45 47
46 51 53 55 55 55 55 56 57 57 58 58 58 57 57 57 57 58 58 59 60 60 58 58 58 59 59 57 57 57 56 55 54 53 50 49 48 48 48 46 45 44 46
43 51 54 54 54 54 55 56 56 56 57 57 58 57 57 58 58 58 59 58 59 59 58 58 58 58 59 58 58 57 56 56 55 54 53 51 49 50 49 48 46 46 47
42 51 54 54 54 54 55 55 56 56 56 56 57 57 56 57 57 58 58 58 58 58 58 58 58 58 58 58 58 57 56 56 56 55 54 54 52 52 51 49 48 47 48
49 51 53 54 54 54 54 55 55 56 56 57 57 57 57 56 56 57 58 58 58 58 58 58 58 58 57 57 57 56 56 56 56 56 56 55 55 55 55 54 52 50 48
49 51 53 54 54 54 55 55 54 55 56 57 57 56 56 56 56 56 56 57 57 57 57 57 57 57 57 57 57 56 56 56 55 56 55 55 55 56 56 55 55 54 52
42 50 51 54 54 54 54 54 54 54 54 55 56 56 56 56 56 56 56 55 56 57 56 56 56 56 57 57 57 56 55 55 54 53 53 53 54 55 55 55 55 54 53
38 49 49 54 54 54 54 54 53 53 54 54 56 55 55 56 56 56 56 56 55 56 55 55 55 55 55 56 55 55 54 54 54 54 54 54 54 54 55 54 53 54 54
39 44 52 52 53 53 54 53 54 53 54 55 55 55 54 54 55 56 56 56 55 55 55 54 54 54 54 55 55 54 54 54 54 54 53 52 49 52 47 47 47 46 47
39 43 52 53 54 54 54 54 54 53 54 55 56 55 54 54 54 56 55 55 56 56 55 55 54 54 54 54 53 54 54 54 48 43 40 38 38 39 41 39 39 41 42
39 42 49 52 54 55 54 54 54 54 54 54 53 55 54 54 53 54 54 55 55 55 56 56 55 55 54 52 53 53 53 43 39 38 36 36 36 36 35 35 35 36 36
47 48 45 49 53 54 55 55 54 54 54 54 54 54 55 55 54 53 53 53 54 55 51 49 44 41 40 39 42 44 41 39 37 35 34 34 34 34 34 33 33 32 33
46 48 48 47 48 53 54 55 55 55 54 54 54 54 54 54 54 54 54 53 45 42 40 39 38 36 37 37 38 37 36 35 34 33 33 33 33 33 32 32 32 32 32
45 47 47 46 45 45 54 55 56 56 55 54 54 54 54 54 54 51 44 41 40 38 36 35 34 34 34 35 34 33 32 31 31 31 31 31 31 32 32 30 29 30 30
45 46 45 44 43 44 49 55 55 56 55 54 54 54 55 49 44 41 38 37 36 35 34 33 33 32 32 33 32 31 30 29 30 30 29 28 28 29 30 28 26 24 24
42 43 41 41 42 43 45 53 52 54 49 46 47 49 45 42 39 37 35 35 34 33 33 32 32 32 32 32 31 29 28 27 28 28 29 29 29 29 28 25 22 21 22
40 40 40 39 40 42 43 41 42 41 44 43 42 42 40 37 36 34 33 32 31 31 30 30 31 31 32 32 31 29 27 27 27 27 27 28 27 24 23 22 20 18 17
37 38 38 37 38 40 42 40 39 41 41 40 38 36 35 34 33 32 31 31 30 29 28 28 28 29 29 30 30 30 29 28 27 26 27 26 24 21 20 17 16 15 14
36 37 36 36 35 36 38 38 40 39 38 37 36 34 33 32 32 31 31 29 28 27 27 25 24 24 26 29 30 28 27 26 24 24 22 21 19 17 17 15 13 14 12
36 36 35 34 33 34 34 34 35 35 34 33 33 32 32 31 30 30 29 28 26 24 23 22 21 22 23 24 26 24 23 22 20 18 16 16 16 15 13 12 12 12 11
35 35 34 32 32 32 32 31 31 30 29 28 28 27 26 25 24 25 25 24 25 24 22 21 22 21 21 24 25 23 21 18 17 16 15 13 11 10 9 9 9 9 8
31 31 33 33 32 31 30 30 30 28 27 25 24 24 23 22 22 21 22 26 26 26 25 25 23 24 26 26 24 22 19 18 17 12 10 9 9 8 8 7 7 7 7

GFSMW_sfc_dewp_111.txt.gz
Dewpoint
31 34 55 56 57 58 58 58 58 58 59 59 60 59 59 61 61 62 61 61 62 61 58 56 55 53 48 49 52 52 51 51 51 49 49 49 53 53 53 53 53 53 53
31 50 55 56 57 58 58 58 58 58 57 58 59 60 60 61 61 62 62 62 62 61 59 55 55 52 49 50 53 52 51 51 50 48 47 45 46 50 51 53 53 53 53
28 48 55 56 56 57 57 57 58 58 57 56 56 58 60 60 60 61 61 62 62 62 60 56 55 52 51 49 53 53 52 50 49 48 47 44 43 45 47 50 52 52 52
33 48 55 55 56 56 57 57 57 57 56 56 56 57 58 58 59 60 61 62 62 62 61 58 55 53 53 50 53 54 53 51 48 48 47 47 46 44 42 46 48 52 52
38 49 54 55 56 56 56 57 57 57 57 57 56 55 54 56 59 60 60 61 61 61 61 60 57 56 54 56 54 55 54 51 49 48 49 49 49 48 44 42 43 46 47
33 44 52 55 56 55 55 56 56 57 58 58 56 55 54 55 55 58 59 60 61 61 61 61 60 59 58 57 56 55 54 53 51 51 49 49 48 48 47 46 45 45 46
41 38 50 55 55 55 55 56 56 56 57 57 57 56 56 57 56 56 57 58 60 60 60 60 60 60 59 58 56 56 55 54 53 54 52 51 50 50 50 50 48 47 48
42 46 50 54 54 55 55 56 56 56 56 57 57 57 57 57 57 57 57 58 58 60 59 59 59 60 58 57 57 56 56 56 56 55 55 54 53 52 50 49 50 47 47
42 44 52 54 54 54 55 55 55 56 56 56 57 57 57 57 57 58 59 59 60 59 59 58 59 59 58 58 57 57 57 57 56 56 55 55 55 54 54 53 51 50 48
42 42 53 54 54 54 55 55 55 55 55 56 57 56 56 56 57 57 57 58 59 58 58 58 58 58 58 58 58 57 57 56 56 56 55 55 56 56 55 55 54 53 51
45 44 47 54 54 55 55 55 55 55 55 56 57 56 56 56 56 56 57 57 58 58 58 57 57 57 57 57 57 57 56 55 55 55 55 54 55 55 55 55 55 54 54
45 43 43 54 54 55 55 54 54 55 55 56 56 56 56 56 56 55 55 57 56 57 57 57 57 57 56 56 56 55 56 55 55 55 54 54 53 54 54 54 54 53 53
44 42 42 54 55 55 55 54 54 54 54 55 55 56 56 56 56 56 55 55 56 56 56 56 56 56 56 56 56 56 55 55 55 54 53 49 48 49 47 47 47 46 47
45 47 49 54 55 55 55 54 54 53 54 54 54 55 55 56 56 56 55 55 55 55 55 55 55 56 56 56 55 55 54 52 45 42 40 38 39 40 41 40 40 41 41
48 48 48 53 55 55 55 55 54 53 54 54 54 53 55 55 55 55 55 55 55 55 55 54 54 54 54 53 54 53 51 42 39 37 36 36 36 36 36 35 35 36 36
47 47 47 47 48 51 55 55 54 54 54 54 55 53 55 53 54 54 54 55 55 55 54 51 48 46 44 40 44 46 43 39 36 35 34 34 34 33 33 33 32 32 32
46 46 46 45 46 46 48 55 55 55 54 53 54 55 54 53 53 53 53 53 48 45 42 41 40 38 39 39 39 38 37 35 34 33 33 33 33 32 31 32 31 32 31
45 45 44 44 44 44 47 52 56 55 55 54 54 54 54 53 53 51 46 42 41 39 37 36 36 35 35 36 35 34 33 32 32 32 32 32 31 31 30 28 28 28 28
42 43 42 42 42 43 45 53 56 56 55 55 55 54 54 51 46 42 40 38 37 36 34 34 33 33 33 34 33 32 30 29 28 29 29 29 30 31 30 26 25 25 23
39 40 40 40 41 42 47 48 52 54 53 54 54 53 48 45 41 38 37 36 35 33 33 32 32 32 31 33 32 30 28 27 27 28 29 29 28 27 26 24 22 19 17
37 38 38 38 38 41 44 45 45 42 42 43 46 45 44 42 38 36 35 34 33 32 31 31 31 31 31 31 31 30 27 27 26 26 25 26 25 24 22 21 19 17 15
37 37 37 36 36 39 40 41 42 42 40 38 38 37 37 36 35 34 33 32 31 30 29 29 29 29 30 31 31 30 29 29 26 24 24 24 23 20 18 16 16 14 13
36 36 35 35 34 35 37 36 38 40 37 35 34 33 33 33 33 32 31 30 29 28 28 27 26 27 28 29 29 29 28 26 24 24 24 22 20 18 18 17 15 12 11
35 34 33 33 33 32 32 34 34 35 33 33 31 31 30 29 29 29 30 29 27 26 25 24 24 24 24 24 24 24 24 24 21 20 18 17 17 14 13 12 11 10 10
33 33 32 31 31 31 30 30 30 29 27 26 26 25 24 24 24 24 24 24 25 24 23 24 24 23 22 23 23 22 20 20 19 17 15 13 11 10 9 8 7 7 7
31 32 31 30 29 29 29 28 27 27 26 24 23 23 23 24 23 23 23 27 26 27 27 28 26 26 27 26 25 24 22 20 18 13 11 10 9 8 6 6 6 6 6

GFSMW_sfc_dewp_114.txt.gz
Dewpoint
27 30 39 51 56 59 59 59 59 59 59 60 60 60 59 60 61 61 61 61 61 61 61 58 57 55 52 50 51 50 50 51 52 51 50 50 53 52 53 54 54 54 54
27 27 40 54 56 58 58 59 59 59 60 60 60 60 59 61 61 61 61 61 61 60 59 57 56 53 50 50 50 50 50 51 52 50 49 48 49 51 52 53 53 53 54
25 27 35 53 55 57 57 58 58 59 59 59 59 60 60 60 60 61 60 61 61 59 58 57 55 53 49 49 50 50 50 50 50 51 48 45 46 48 49 51 53 53 53
29 29 35 53 54 56 56 57 58 59 57 57 58 59 58 57 59 59 61 60 61 60 58 56 55 52 49 48 50 51 51 50 49 49 48 48 47 46 44 47 50 52 52
40 40 39 53 54 56 55 57 58 58 57 57 58 58 57 58 59 60 60 61 61 61 59 57 56 53 52 49 50 53 53 52 50 49 49 49 49 47 44 43 45 47 51
42 42 42 50 54 55 55 57 57 57 57 56 55 55 54 57 59 59 59 60 61 61 61 58 57 55 53 52 52 54 54 53 52 50 49 49 48 48 47 45 45 46 47
42 42 43 50 55 56 55 56 56 57 57 56 55 54 54 56 57 59 59 59 60 60 61 60 58 57 54 55 53 55 54 53 52 51 51 51 50 51 50 49 48 48 49
42 43 44 46 55 55 55 55 55 56 56 56 56 56 54 55 55 55 57 59 59 60 61 61 59 58 56 57 56 55 55 54 53 53 54 53 53 52 51 50 49 48 48
43 43 44 44 53 55 54 55 55 55 56 56 57 57 57 57 57 56 56 57 58 59 60 61 60 59 58 57 56 55 55 54 54 55 55 55 55 55 54 53 52 50 47
42 43 43 44 45 54 55 55 55 55 56 56 56 56 57 57 57 57 58 57 59 59 59 59 60 60 59 57 57 56 56 55 55 55 55 55 55 55 55 54 54 53 51
45 44 44 44 46 55 55 55 55 55 55 55 56 57 57 57 57 57 57 58 59 59 59 59 59 59 58 57 57 56 56 55 56 56 55 55 55 55 55 55 55 54 54
44 46 48 48 53 54 55 55 55 55 55 54 56 57 57 56 56 56 57 57 57 58 58 58 58 58 58 58 57 56 56 56 55 55 55 55 55 54 55 54 54 54 54
43 44 48 48 54 54 54 55 55 54 54 55 55 56 56 56 56 56 56 57 56 57 57 57 57 57 57 57 57 57 56 56 55 55 55 54 54 53 51 50 50 48 47
44 45 48 48 50 55 55 54 55 55 54 55 55 55 56 56 56 56 55 56 56 56 56 56 56 56 56 56 57 56 55 52 47 44 43 43 45 45 44 42 42 42 40
43 44 48 48 47 50 55 55 55 54 54 54 54 54 56 56 56 55 55 55 55 55 55 55 56 56 56 56 56 54 47 41 38 37 37 37 38 37 37 37 37 37 36
43 45 48 46 46 46 48 55 55 54 54 53 53 53 55 55 55 55 55 55 55 55 55 53 51 49 47 43 45 46 42 39 36 34 34 34 34 33 33 33 32 33 33
45 46 46 45 45 45 46 47 55 54 53 54 54 53 54 54 55 55 55 54 49 48 45 43 44 42 42 40 40 39 39 36 35 33 33 32 32 31 31 30 29 29 28
43 42 43 42 43 44 45 47 49 54 54 54 54 54 54 53 53 53 46 43 42 41 39 37 37 36 37 37 37 35 35 34 33 33 32 31 30 30 29 27 25 24 24
40 39 41 40 41 42 43 47 49 55 54 53 53 54 54 52 48 44 41 39 38 36 35 35 34 33 34 34 34 32 31 30 30 31 31 30 29 30 29 25 22 21 21
38 38 38 38 38 39 42 47 53 55 54 54 53 53 51 48 44 41 39 37 35 34 33 32 33 33 32 33 32 31 30 28 27 28 28 28 28 27 25 23 21 18 17
37 37 37 36 36 38 41 43 43 42 44 46 47 47 47 43 40 38 36 35 33 32 31 30 31 31 31 31 31 31 28 26 25 24 23 25 25 24 23 22 19 18 16
36 36 35 35 34 35 38 39 39 39 39 39 38 38 38 38 36 35 34 33 32 30 29 29 29 30 31 31 30 29 28 26 23 22 23 23 23 22 21 19 19 18 16
35 34 34 33 32 32 34 35 36 36 35 35 34 34 34 34 33 32 31 30 30 29 28 28 27 28 29 29 29 27 26 25 22 23 23 22 21 20 19 17 16 14 12
34 33 32 31 31 30 30 31 33 33 31 30 30 30 31 30 30 31 30 29 29 28 26 24 23 23 24 25 25 25 24 24 21 19 17 17 17 14 14 13 13 11 10
32 32 31 30 30 29 28 29 29 28 27 26 26 26 25 25 25 25 25 25 26 26 24 24 23 22 20 22 23 21 19 18 18 17 15 14 12 10 9 9 8 8 6
29 29 29 28 28 27 27 26 27 28 26 26 26 25 25 24 24 24 25 28 28 28 27 26 24 24 25 25 25 24 23 21 18 13 10 10 9 8 6 5 5 5 4

GFSMW_sfc_dewp_120.txt.gz
Dewpoint
22 26 38 44 48 50 49 52 53 57 61 63 64 63 61 61 61 63 63 62 64 64 63 63 62 61 60 60 59 58 58 55 57 56 55 54 56 56 54 54 52 52 53
25 35 41 45 48 52 54 55 56 59 60 61 62 62 62 62 61 61 62 62 62 64 63 63 62 60 60 59 58 57 56 55 57 53 53 52 53 54 54 54 52 54 52
36 39 43 46 48 51 55 55 56 59 60 60 61 62 62 62 61 61 61 62 62 63 63 62 61 60 60 58 58 57 56 55 56 56 51 50 49 52 54 55 54 55 53
40 41 42 44 47 53 57 57 57 58 60 61 61 61 60 60 61 61 63 63 63 63 62 62 61 60 59 58 58 57 56 57 55 55 51 52 50 49 51 53 54 55 54
42 39 40 43 44 52 58 58 58 60 60 61 62 61 60 59 60 61 62 62 62 61 61 61 59 59 59 58 57 57 59 58 56 55 53 53 53 53 48 49 51 53 54
38 38 40 43 45 50 55 58 58 59 60 61 62 61 61 59 60 61 61 62 60 60 60 58 58 58 58 58 57 57 58 58 57 55 55 52 51 50 49 47 50 51 53
39 39 41 43 46 50 51 55 57 57 59 60 60 60 60 60 60 60 60 60 60 58 58 58 57 57 57 57 57 56 58 58 57 58 55 53 51 49 49 48 49 49 51
39 39 42 46 48 51 54 53 55 57 58 59 60 60 60 59 60 60 59 60 60 60 59 58 57 56 55 56 56 56 57 58 59 58 57 53 52 50 49 48 51 50 49
39 39 40 45 47 50 53 55 53 56 57 58 59 59 60 60 59 60 61 62 61 60 61 60 58 57 55 55 55 56 56 57 59 60 59 55 53 54 53 53 54 52 50
35 38 39 43 43 47 49 52 57 55 57 57 59 60 60 59 60 60 61 62 61 61 61 60 59 58 57 56 55 55 55 56 57 58 58 58 57 58 58 57 56 55 53
31 37 40 41 41 46 48 50 54 56 56 57 58 60 59 59 60 59 59 59 60 60 60 60 60 59 58 58 56 56 56 55 56 57 57 57 57 57 58 58 56 55 55
33 37 39 41 42 45 47 49 50 56 57 57 58 59 59 58 58 58 58 58 57 59 59 59 60 60 57 57 57 55 56 57 55 55 55 55 56 56 56 56 56 55 55
30 35 38 41 44 46 47 48 48 50 57 57 58 58 59 57 57 56 58 58 58 58 59 59 59 59 59 58 57 56 55 55 54 54 54 55 54 54 55 54 54 54 54
26 34 40 43 44 45 47 47 47 48 56 57 57 58 57 56 56 57 58 58 58 58 58 59 59 58 58 59 58 57 56 55 54 54 54 54 54 54 55 54 54 53 50
25 37 42 45 46 46 46 46 46 48 52 56 57 57 56 57 57 58 57 58 58 58 57 58 58 57 57 57 57 57 56 54 49 44 42 41 43 42 44 48 45 45 41
37 42 44 44 44 44 44 44 45 47 48 56 56 56 56 56 57 57 57 57 57 57 57 57 54 51 46 41 43 46 44 40 38 35 35 35 35 33 33 33 33 36 36
42 42 42 42 43 43 43 43 44 46 47 53 56 55 55 55 57 56 56 56 55 52 48 46 45 42 41 39 39 39 38 37 35 34 33 31 31 30 28 28 28 27 28
40 40 40 40 41 42 43 42 43 45 47 49 56 55 55 55 55 56 55 51 49 46 42 40 40 38 37 36 36 35 34 33 33 32 31 30 29 28 27 24 23 22 22
39 39 39 39 39 39 39 40 42 43 44 48 55 55 55 54 55 52 49 45 42 40 39 38 37 36 35 35 34 33 32 31 30 30 30 29 28 28 28 24 22 21 21
37 37 37 37 36 36 36 39 38 39 38 41 50 55 54 55 51 46 42 41 38 36 35 35 35 35 34 34 34 32 31 29 28 28 28 27 26 25 23 21 19 18 17
35 35 35 35 34 33 34 35 35 35 37 39 41 53 53 50 45 41 39 37 35 34 33 33 33 33 33 34 33 32 29 28 26 26 25 26 24 23 21 20 18 17 17
33 33 33 32 31 31 31 31 31 33 36 37 37 45 46 42 40 38 36 35 33 32 31 30 30 31 31 31 31 30 29 28 26 24 25 24 22 22 21 20 20 19 19
31 31 30 29 29 29 29 29 30 31 34 34 35 34 38 38 37 36 34 33 33 31 30 29 27 27 28 28 28 27 26 25 23 23 23 22 22 22 21 20 20 19 19
28 28 28 27 26 27 27 28 29 30 32 32 32 33 32 32 33 33 34 33 32 31 29 28 26 26 26 26 26 25 25 24 23 21 19 19 19 18 18 19 19 19 18
26 26 26 26 25 25 26 27 28 30 29 30 31 31 32 30 29 31 30 30 30 29 27 26 25 23 23 24 24 22 19 18 17 17 19 19 17 15 14 13 12 12 12
25 25 25 25 24 23 24 26 28 28 28 28 28 29 30 29 28 27 27 30 29 29 28 28 25 24 25 25 24 23 22 22 22 21 21 18 17 15 12 12 10 10 9

GFSMW_sfc_dewp_123.txt.gz
Dewpoint
16 21 27 35 41 46 49 49 50 55 51 54 59 63 65 66 64 65 66 67 67 67 66 65 64 63 62 61 61 60 58 57 57 57 55 56 57 57 54 52 49 51 51
20 24 33 40 44 47 50 53 52 54 54 53 58 62 65 62 62 63 65 65 65 65 65 64 63 63 62 60 60 60 58 55 59 55 53 53 55 55 54 53 52 55 49
23 31 37 41 46 48 55 54 53 54 57 57 59 63 63 62 62 62 62 63 63 64 65 64 63 62 61 60 60 60 58 54 57 58 54 51 50 53 54 56 53 55 51
34 35 35 38 43 49 55 57 56 55 57 60 61 62 61 60 60 61 62 62 62 62 62 63 63 61 61 60 60 60 59 56 55 57 55 55 52 51 52 53 54 53 52
36 34 35 38 41 49 52 57 58 57 58 60 61 61 61 61 62 62 62 62 62 62 63 64 63 61 61 60 60 60 59 57 56 55 55 54 53 55 51 51 52 53 51
35 35 37 39 41 51 54 53 56 57 59 61 62 62 62 61 61 60 61 61 63 63 62 62 62 62 60 60 59 60 58 58 57 56 55 53 52 51 52 51 52 52 53
37 36 37 40 43 48 52 53 51 55 58 60 61 62 62 62 61 60 60 62 61 60 60 61 60 60 60 59 59 59 58 57 56 55 55 55 53 53 52 51 51 51 52
37 36 36 40 42 46 48 53 52 52 56 59 60 61 62 62 60 60 60 61 61 60 60 59 59 58 58 59 59 59 59 58 58 57 57 56 55 53 52 50 52 51 53
35 34 35 39 41 41 45 51 55 53 55 57 59 60 61 62 60 59 61 60 62 61 60 59 57 57 57 57 58 58 58 59 59 59 59 55 55 55 53 53 53 52 51
26 30 34 37 38 41 45 50 52 54 55 57 58 59 60 61 60 60 61 62 61 62 60 59 58 56 56 56 57 57 58 58 59 58 57 57 56 55 55 55 55 55 52
14 25 33 37 39 42 45 48 50 52 56 57 58 59 60 61 61 60 61 61 62 61 61 59 58 56 55 55 56 56 57 57 57 57 57 57 57 57 58 59 59 58 56
14 17 31 35 39 43 45 46 49 50 53 57 57 58 59 61 59 59 59 61 60 61 61 60 59 57 56 55 55 55 56 56 56 57 57 57 56 58 59 58 57 56 56
15 13 25 31 37 42 45 46 47 49 51 54 57 58 58 60 59 59 59 59 59 59 59 60 60 59 58 56 56 55 55 55 55 55 56 56 57 58 57 56 56 57 54
15 16 21 32 38 44 46 46 47 49 50 51 57 57 58 59 59 59 58 59 59 58 58 58 59 60 59 58 57 57 57 56 55 55 55 55 56 56 56 54 54 53 53
17 23 30 39 43 44 45 45 46 48 49 48 51 57 58 59 57 58 58 58 58 57 58 58 59 59 59 59 58 57 57 56 55 53 51 52 51 45 46 52 53 52 45
20 30 38 40 42 43 44 44 45 45 48 48 49 55 58 57 57 58 58 58 58 57 57 57 55 52 48 41 44 52 53 50 42 38 37 39 38 36 35 34 33 39 42
37 38 40 41 42 42 42 43 44 45 45 47 48 50 57 57 57 57 57 57 57 55 51 48 47 44 42 39 40 39 39 37 36 35 34 33 34 33 31 30 29 29 30
39 39 40 40 40 41 41 41 42 43 44 44 45 48 56 57 56 57 56 55 52 47 43 41 41 39 37 37 36 35 35 33 33 33 33 32 31 31 28 26 23 23 23
39 39 38 38 38 37 38 39 40 41 41 41 42 43 55 56 55 55 51 47 44 42 40 39 37 37 36 35 35 34 32 31 30 31 31 31 29 30 30 24 22 21 22
36 35 36 36 35 35 35 36 37 37 36 36 38 40 43 55 54 49 45 43 40 38 37 36 36 35 35 35 34 33 31 29 27 28 28 29 28 28 26 22 20 19 19
34 33 34 33 32 32 32 33 33 33 33 36 38 39 42 53 48 44 41 38 36 35 34 33 34 34 34 34 34 32 30 28 26 25 25 25 24 23 22 20 17 16 17
31 31 31 31 30 29 29 29 30 32 33 35 36 36 43 46 43 40 37 36 35 33 32 31 30 31 32 32 32 31 30 29 26 25 24 23 23 22 21 20 20 19 19
28 28 28 29 29 27 26 27 28 30 32 34 34 34 35 40 40 37 35 34 34 32 31 29 28 28 29 30 30 29 28 26 24 24 23 23 23 22 21 21 21 20 21
26 27 27 26 26 26 25 26 28 30 31 32 33 33 33 32 34 35 35 34 32 31 29 28 26 26 25 26 26 26 25 25 23 22 20 20 20 20 22 22 23 23 20
25 26 25 25 25 25 24 24 27 29 30 30 31 32 31 30 29 29 30 31 32 31 28 27 26 24 23 25 26 24 21 19 19 19 19 19 18 19 19 17 15 14 14
24 24 24 24 23 24 23 24 26 29 29 29 29 30 30 29 28 27 27 30 28 28 28 27 25 25 26 25 24 23 23 23 24 21 21 21 21 19 14 15 14 13 13

GFSMW_sfc_dewp_129.txt.gz
Dewpoint
28 29 29 32 38 43 44 47 48 49 54 61 65 65 65 65 65 65 66 68 68 67 66 65 65 63 62 62 61 61 60 60 60 59 59 59 55 53 55 55 55 55 56
22 19 29 39 43 47 53 53 54 54 54 50 58 64 66 66 65 66 65 66 67 67 66 65 65 64 62 62 61 60 60 59 60 58 56 54 55 53 53 53 53 54 55
19 32 40 44 44 52 53 54 55 57 57 55 51 59 62 63 63 65 64 64 66 66 66 65 65 64 63 62 61 60 59 58 59 59 55 52 51 52 54 52 53 53 53
30 36 38 44 49 50 52 54 55 55 57 59 55 59 60 59 61 64 65 65 65 66 66 65 64 64 63 62 61 61 59 59 57 59 57 53 52 51 50 53 52 52 53
34 35 38 46 49 49 50 52 55 55 58 59 60 60 59 59 60 61 62 63 64 65 65 65 63 63 63 62 61 61 60 59 57 58 57 54 52 51 49 48 51 54 51
34 37 37 48 50 51 50 50 51 54 56 58 59 58 60 60 60 60 61 61 62 63 64 64 63 62 62 61 61 61 60 59 58 58 58 53 51 50 50 49 48 49 51
35 37 38 41 45 48 49 49 50 51 56 58 59 59 60 61 61 60 60 60 61 62 62 63 63 62 61 61 61 60 60 59 58 58 58 56 54 52 51 50 49 49 51
36 37 37 39 42 46 49 49 50 51 53 58 58 59 60 61 62 61 61 61 61 61 62 62 62 62 61 61 61 60 60 60 59 58 59 58 57 54 52 51 49 50 50
39 37 36 39 39 47 49 48 49 50 51 53 57 57 59 61 61 62 62 62 62 61 61 62 62 62 61 61 61 60 60 60 60 59 59 58 57 57 54 52 51 49 49
36 32 35 39 41 46 48 50 49 49 50 51 53 54 58 60 61 62 62 62 62 61 60 59 59 59 59 60 60 59 60 59 59 59 58 58 57 57 57 54 53 51 49
27 23 30 34 42 44 46 48 49 49 49 49 51 52 54 58 59 60 61 62 62 60 60 59 58 58 57 57 58 58 58 58 58 58 58 58 58 57 57 57 55 53 51
16 16 15 30 35 43 47 47 48 48 48 49 49 50 52 55 59 59 60 62 61 61 60 59 57 57 57 57 57 57 57 58 57 57 58 58 57 57 57 57 55 55 53
14 17 20 42 45 46 46 47 47 47 48 47 47 48 49 51 56 59 60 61 61 61 60 59 57 56 56 56 57 57 57 57 57 57 58 58 57 56 57 56 56 55 52
14 18 41 42 43 44 45 45 46 46 46 46 46 46 48 49 51 56 59 60 61 61 60 59 58 57 56 56 56 56 56 57 57 57 57 57 57 57 57 55 54 53 50
28 35 40 42 41 42 43 43 43 42 43 44 44 46 47 47 48 52 58 60 60 60 60 59 59 57 57 56 56 55 55 56 56 56 56 56 55 52 53 55 53 51 46
39 39 39 39 40 39 39 39 39 40 41 42 42 43 44 44 45 50 54 59 59 59 58 59 59 58 56 47 46 52 55 54 54 53 52 54 50 49 46 45 46 48 46
35 35 36 36 37 36 36 36 37 38 40 40 39 40 41 40 41 43 46 58 58 57 54 52 51 48 46 40 43 44 51 51 50 51 43 38 41 41 38 36 35 35 37
34 33 34 35 34 33 33 34 35 37 37 37 36 36 36 37 39 41 45 53 54 52 48 45 43 40 38 38 39 37 37 35 34 34 35 36 34 37 35 36 32 31 32
33 33 33 34 32 32 31 31 33 33 34 33 32 33 34 35 37 39 42 46 48 46 42 40 38 37 35 36 36 36 34 33 32 33 33 33 34 35 37 33 31 30 30
32 30 30 31 31 30 30 29 29 30 30 30 31 32 34 35 37 37 40 45 46 41 38 36 36 35 35 35 35 35 33 30 30 30 32 33 32 32 33 32 29 26 26
27 27 28 28 28 28 27 27 26 26 28 29 31 32 33 35 37 38 40 41 39 37 35 34 34 34 34 34 34 33 32 30 28 28 28 30 32 32 32 32 29 25 24
25 25 25 25 26 24 25 24 24 26 26 28 30 32 33 35 35 39 41 39 37 35 33 32 31 32 33 33 33 32 31 30 27 26 26 27 28 28 28 26 26 25 23
24 24 23 23 24 23 24 23 24 25 26 28 30 31 32 32 33 36 36 35 35 34 32 31 29 29 30 31 31 30 28 27 25 26 27 28 27 26 24 24 23 20 19
23 23 22 22 22 23 23 23 24 25 26 27 29 30 30 30 29 31 33 33 33 32 32 30 28 27 27 27 27 27 27 28 26 26 24 23 23 22 21 21 20 20 19
22 21 21 21 21 23 24 25 24 25 25 27 28 28 28 28 27 28 29 31 32 32 32 30 28 26 24 26 27 26 25 23 23 23 23 22 21 19 18 19 19 20 19
23 23 22 21 21 22 24 24 24 25 24 25 26 26 26 26 26 26 26 30 30 30 30 30 29 27 28 28 27 26 25 25 24 21 20 19 19 19 19 19 20 20 18

GFSMW_sfc_dewp_132.txt.gz
Dewpoint
15 17 30 36 41 43 44 47 58 64 64 64 64 64 64 64 64 64 66 66 68 67 66 65 64 64 63 62 62 60 59 59 60 59 59 59 58 56 56 56 56 56 57
14 17 30 39 43 46 51 53 53 52 56 59 64 64 64 64 65 65 64 66 67 67 65 64 64 63 63 62 61 60 59 58 60 58 57 55 56 56 56 56 55 55 56
14 35 42 45 51 52 54 55 56 57 57 54 52 61 63 63 64 63 64 64 65 66 65 64 64 63 63 62 61 61 60 58 60 59 56 53 52 54 55 54 55 55 55
27 40 43 50 51 52 53 53 53 55 59 59 53 58 61 63 64 65 65 64 64 65 65 65 64 64 63 62 61 61 60 59 58 59 57 53 53 50 51 53 54 54 54
35 37 45 49 49 50 52 52 53 53 55 58 59 59 58 58 59 62 64 64 64 65 65 65 64 64 63 63 62 61 60 60 58 58 57 55 53 51 50 50 52 53 53
35 43 47 49 51 50 49 50 52 56 56 57 58 58 59 59 59 60 62 63 62 64 65 65 65 64 63 62 62 61 61 59 59 59 58 55 52 51 49 49 50 51 52
34 44 48 48 48 48 49 49 50 52 55 56 58 58 58 59 60 59 61 61 61 62 64 64 64 63 63 62 62 61 61 60 59 58 58 58 55 53 51 49 50 51 51
37 46 46 46 48 49 49 49 50 50 52 53 55 56 57 58 60 61 60 61 61 61 63 64 63 63 62 62 62 61 61 60 59 58 58 59 57 56 53 50 49 49 50
38 40 42 46 47 48 49 49 48 49 50 52 53 53 54 57 58 60 61 62 62 61 62 63 63 62 62 61 61 60 60 60 60 60 58 59 59 58 56 52 51 48 48
41 42 41 46 47 48 49 49 49 48 49 49 50 50 51 53 56 59 61 61 62 62 61 62 62 62 62 61 60 60 60 60 60 60 59 58 59 58 57 56 54 51 49
40 38 40 46 47 48 48 48 48 48 49 48 49 50 50 51 53 58 59 60 62 62 61 61 61 61 60 61 60 60 60 59 59 60 59 58 59 58 57 56 54 52 50
39 40 45 45 46 46 46 46 47 47 47 46 47 48 49 50 50 51 55 60 61 62 61 60 59 58 58 58 58 58 58 58 58 58 58 58 59 58 58 56 55 54 52
38 38 44 44 45 46 46 45 45 44 44 46 46 46 47 47 48 48 50 54 59 61 61 60 58 58 57 57 57 57 57 57 57 58 58 58 58 58 57 57 56 55 53
37 42 41 41 42 42 42 42 42 42 42 44 44 44 45 45 46 46 47 51 56 59 60 59 58 57 56 56 56 57 57 56 57 57 57 57 58 57 57 56 56 56 51
36 37 38 39 37 37 37 37 38 39 41 41 41 41 42 43 42 43 44 45 50 57 60 60 58 57 56 56 55 55 56 56 56 56 56 56 55 51 53 56 55 53 49
34 34 34 34 34 33 34 34 35 37 39 38 38 38 38 38 39 40 41 43 47 52 59 59 58 57 56 48 46 52 55 55 55 54 54 54 49 49 46 46 46 49 47
33 32 33 33 32 32 31 31 33 34 35 36 35 34 35 35 36 37 39 41 44 47 55 58 58 57 55 45 45 45 54 53 53 53 49 46 44 47 41 42 42 41 42
31 30 30 32 31 30 30 30 30 30 33 32 31 32 33 33 35 37 38 39 41 45 53 53 51 49 42 40 42 41 42 38 37 37 36 39 35 38 39 36 37 36 37
27 27 28 29 27 27 28 28 28 28 28 28 28 30 31 33 34 36 37 38 39 42 46 46 44 42 37 37 37 39 36 34 33 33 33 34 34 37 39 36 33 32 32
25 25 26 26 26 25 26 26 26 26 25 26 27 29 31 33 34 35 36 38 39 42 40 37 40 38 35 36 37 37 35 32 31 32 32 33 33 35 35 35 34 31 31
24 24 24 24 24 24 24 24 24 24 25 26 27 29 30 32 34 35 36 37 40 38 35 34 34 35 35 35 36 36 34 32 30 30 30 32 33 33 34 34 33 29 28
23 23 22 22 22 23 23 22 22 24 25 26 27 28 30 31 31 31 34 38 37 35 33 32 32 33 33 34 34 33 32 31 29 28 29 30 32 31 30 29 29 28 27
23 22 20 21 21 21 23 23 22 23 25 25 26 28 28 29 30 30 31 34 35 33 32 32 31 30 31 32 32 31 30 29 27 28 29 29 29 28 27 27 27 26 25
21 24 20 20 20 21 22 24 23 23 23 24 25 26 26 26 28 28 29 31 33 33 33 32 31 29 29 28 29 28 28 29 28 27 25 24 24 24 23 23 23 23 23
21 24 21 20 20 21 22 24 22 23 22 23 23 23 24 26 26 27 28 29 31 33 33 32 30 28 27 27 28 28 27 26 24 23 23 22 21 20 19 19 19 20 19
21 21 21 21 21 21 22 24 23 23 22 22 22 23 22 24 23 22 24 27 30 31 31 30 29 29 29 30 30 29 27 26 25 23 21 20 20 19 19 19 19 20 19

GFSMW_sfc_dewp_135.txt.gz
Dewpoint
17 16 18 30 33 38 42 61 65 66 67 67 66 65 65 65 65 67 67 67 67 67 66 66 64 64 63 63 63 61 60 58 60 58 58 58 58 58 58 58 57 57 58
17 17 31 40 46 45 49 61 65 66 67 67 65 63 64 64 65 65 65 66 67 67 66 66 65 64 63 63 62 61 59 58 59 57 56 53 55 57 57 57 57 56 57
17 18 38 49 52 53 54 55 57 61 61 61 62 62 63 63 63 63 63 64 66 66 67 66 65 64 63 62 62 61 60 58 59 58 57 53 52 54 56 56 56 56 56
17 20 44 50 52 53 53 54 57 59 58 56 54 59 61 61 63 64 64 64 63 65 66 65 64 64 63 62 62 62 60 59 58 58 58 54 54 52 51 56 56 56 55
16 23 43 50 51 52 53 53 54 57 59 59 57 57 57 59 59 62 63 64 63 64 65 64 64 63 63 63 62 61 61 60 59 58 57 56 53 53 52 51 53 54 55
18 32 46 49 50 50 50 54 56 56 57 57 58 58 58 59 59 60 63 63 63 62 64 64 64 63 63 63 62 62 61 60 60 59 58 56 54 52 50 50 52 52 54
29 31 47 50 48 48 51 52 53 53 55 57 57 56 57 57 58 59 61 61 60 61 62 63 63 63 63 63 62 62 61 61 60 59 58 58 56 54 52 51 51 52 52
34 34 47 49 47 49 50 49 50 51 52 52 52 53 54 56 58 59 60 60 60 60 61 62 63 64 63 63 62 62 61 61 60 59 59 58 58 57 54 51 51 51 51
40 43 48 48 49 50 50 49 48 49 50 50 50 50 52 52 54 56 58 60 61 61 61 63 63 63 63 62 62 62 61 61 60 60 59 58 59 58 57 55 54 52 50
42 45 48 49 50 50 49 48 48 48 47 47 48 49 50 51 52 55 57 58 60 60 60 61 62 62 62 62 61 61 61 60 60 60 59 58 59 59 58 57 56 55 52
41 47 49 49 48 47 46 46 45 45 45 45 47 48 49 50 50 51 51 54 58 59 60 61 61 61 61 61 61 61 60 60 59 60 59 59 59 59 59 58 56 55 54
42 46 48 47 46 43 42 42 41 41 42 44 46 47 48 47 47 47 47 49 52 57 59 61 61 61 61 61 60 60 60 59 59 59 59 59 59 58 59 58 56 55 55
42 43 43 42 40 39 38 38 38 39 41 43 43 43 44 44 45 44 45 46 48 51 57 60 59 59 60 60 60 60 59 59 59 59 58 58 58 58 58 58 56 56 55
39 39 39 39 38 36 35 35 36 38 40 41 41 40 40 40 40 41 42 43 44 47 50 57 60 59 59 59 58 59 58 58 58 57 57 57 57 57 57 57 56 55 52
37 37 37 35 33 32 32 32 34 36 37 38 39 37 37 37 38 39 40 41 42 44 48 51 59 59 58 57 57 57 56 56 56 56 56 57 55 51 54 57 56 55 51
32 31 33 31 30 29 29 30 31 31 34 35 34 34 34 35 36 37 37 39 41 42 43 47 51 58 57 49 47 53 55 55 55 54 55 55 50 49 46 46 46 52 49
27 27 28 29 29 28 28 28 29 29 30 30 30 31 31 32 34 35 36 38 39 40 41 43 47 56 57 46 46 46 54 54 54 54 52 49 49 48 49 43 43 43 42
25 25 26 26 26 25 26 28 28 27 27 27 27 28 29 31 33 34 35 37 37 39 40 41 46 52 53 43 44 44 51 49 45 43 42 45 40 38 41 38 37 38 44
25 24 24 25 24 24 24 25 25 25 25 25 25 26 28 30 31 32 34 36 37 38 40 41 42 44 47 40 41 43 41 37 34 33 34 35 35 37 40 37 36 33 32
24 23 23 23 22 22 23 23 23 23 23 24 25 26 28 29 30 32 33 34 35 37 40 38 38 37 39 38 39 42 39 35 33 33 33 34 34 36 36 37 36 34 32
23 23 21 21 20 21 22 23 22 22 23 24 25 25 27 28 30 30 31 32 34 37 37 34 34 35 35 36 38 38 39 36 32 32 31 32 34 35 36 35 35 34 33
22 22 20 20 20 20 21 21 21 23 23 23 24 24 26 26 27 28 29 30 32 35 34 32 32 33 33 34 36 36 35 34 32 30 32 32 33 33 32 31 31 31 31
20 21 22 20 20 20 20 20 22 22 22 22 23 23 25 25 26 27 27 28 31 33 33 32 31 31 32 32 33 33 32 31 29 30 32 32 31 30 29 30 30 29 29
20 20 22 20 19 20 21 21 22 22 22 22 22 23 23 24 24 25 26 27 28 29 32 32 31 30 30 29 30 30 30 31 30 29 27 25 26 25 25 25 25 26 27
20 20 20 19 19 20 21 22 23 22 21 22 22 22 22 21 21 22 23 25 27 29 29 32 31 29 28 28 29 29 29 28 26 24 24 24 23 22 22 22 22 22 22
21 19 19 19 19 20 21 22 23 23 21 21 21 20 19 19 19 18 18 22 25 29 30 32 30 30 29 30 30 31 29 27 27 25 23 22 22 21 21 20 20 20 20

GFSMW_sfc_dewp_138.txt.gz
Dewpoint
17 19 18 19 28 36 33 37 59 66 66 66 65 65 64 64 65 64 64 65 65 66 66 65 64 64 63 62 62 62 60 60 60 58 58 58 58 59 59 59 58 58 58
17 19 20 28 39 42 45 39 49 64 66 66 66 66 65 65 65 66 66 66 66 66 65 65 64 64 63 63 62 61 60 59 60 58 56 54 55 57 58 59 58 57 58
18 18 18 31 46 49 52 51 52 61 66 66 66 63 64 63 63 64 65 66 66 66 66 66 65 64 64 63 63 61 60 59 59 59 55 53 51 53 56 57 57 57 57
38 35 24 28 49 52 54 56 61 64 65 65 64 64 62 62 62 64 64 64 65 65 66 66 65 64 64 63 62 62 61 60 58 59 57 56 55 51 52 56 57 57 56
38 37 35 24 50 52 53 56 58 59 58 59 62 60 60 61 61 62 62 63 63 64 65 65 65 64 63 63 62 61 61 61 59 58 57 56 54 53 52 51 54 56 57
39 40 38 44 50 50 52 54 57 57 57 58 58 59 59 58 58 59 61 63 62 62 64 64 64 64 63 63 62 62 61 61 60 59 58 56 54 52 52 51 53 53 55
40 42 44 48 50 50 54 55 55 56 56 56 56 57 57 57 57 58 59 60 61 61 61 62 62 63 63 62 62 62 61 61 60 60 59 58 57 54 53 52 52 53 54
39 42 47 47 49 51 51 51 51 51 50 50 51 51 52 55 57 57 57 59 60 60 60 61 62 62 62 62 62 62 61 61 61 60 60 59 58 57 54 52 52 52 52
39 42 49 49 49 49 49 48 47 46 46 48 48 49 50 51 52 55 57 58 59 59 59 59 61 62 62 62 62 62 61 61 61 61 60 59 59 59 57 55 54 53 50
41 44 49 48 47 46 45 44 44 44 44 45 46 47 48 49 49 50 50 53 57 58 58 59 60 61 62 62 62 61 61 61 61 61 59 59 59 59 58 57 56 54 53
41 39 39 42 43 41 40 40 41 42 42 43 44 45 46 46 47 47 47 48 51 53 56 58 59 61 61 61 61 61 61 61 60 60 59 59 59 59 59 58 57 55 54
38 39 37 36 39 38 37 36 37 39 41 41 41 42 42 43 43 43 44 46 46 48 52 54 59 60 61 61 61 61 60 60 60 59 59 59 59 58 59 59 57 56 55
36 37 36 34 34 35 34 34 34 34 36 39 40 39 39 38 39 40 41 43 44 44 46 51 54 59 60 60 60 60 60 60 60 60 59 59 58 58 58 58 57 57 56
36 36 35 33 33 34 33 31 32 31 33 36 37 35 36 36 37 38 39 40 41 43 44 46 50 52 59 60 60 59 60 59 59 59 59 59 58 58 58 57 57 56 55
30 30 32 33 32 30 29 29 30 30 31 32 32 32 33 34 35 36 37 38 40 41 42 43 46 49 52 59 59 59 59 58 58 58 58 58 56 52 54 57 56 56 55
26 26 26 26 27 26 25 26 28 28 29 29 29 29 30 30 32 34 35 37 38 39 40 40 42 45 48 48 47 53 57 57 56 55 55 56 50 50 46 45 46 52 50
25 24 24 24 25 25 24 24 26 27 27 27 26 27 28 28 31 33 34 35 36 38 39 40 42 43 46 44 45 45 56 56 56 55 53 51 50 49 52 44 43 43 43
23 23 23 22 23 23 23 24 25 25 25 25 25 26 27 28 30 30 32 33 34 36 37 39 40 42 43 41 41 43 52 54 53 51 49 50 43 44 46 43 40 38 44
23 23 22 21 22 21 22 23 24 24 23 23 24 25 26 26 28 28 31 32 32 33 35 38 40 40 40 39 38 39 49 44 40 37 37 40 40 40 42 40 38 35 34
22 22 22 19 20 20 21 22 22 22 22 22 23 25 26 26 26 28 29 30 31 32 35 37 38 37 36 37 37 38 45 41 38 35 34 36 36 36 37 40 38 36 35
21 21 22 20 20 20 20 21 21 21 22 23 23 23 24 25 25 27 28 28 28 31 33 35 35 35 34 35 36 38 38 38 36 35 33 33 35 36 37 37 36 36 34
21 20 20 21 20 20 20 20 19 21 22 22 22 22 23 24 24 25 25 26 27 28 31 33 34 34 33 34 34 35 35 35 34 34 34 33 35 35 34 34 33 32 32
20 19 20 20 19 20 20 20 20 21 21 21 21 21 21 21 23 22 23 24 25 25 26 29 32 33 32 32 32 33 33 33 31 32 32 33 33 32 31 32 32 31 32
20 20 19 19 18 19 20 21 21 21 21 20 19 20 19 20 20 20 21 22 24 24 25 26 28 32 30 30 30 30 32 32 32 31 30 28 28 28 28 28 28 30 29
21 21 18 18 18 19 19 21 22 21 20 20 18 18 17 16 17 19 18 20 21 26 26 27 29 30 31 29 29 29 29 28 26 25 26 25 25 24 24 24 24 24 24
19 20 18 18 18 19 19 20 21 21 20 18 18 18 17 16 16 17 17 21 23 26 26 29 31 31 31 30 30 30 28 27 27 25 23 23 24 23 23 22 22 23 22